[[{"header":{"parameterUnit":"m.s-1","parameterCategory":1,"la1":30.6,"la2":29.2853,"lo1":-89.7004,"lo2":-87.6739,"dy":0.0162,"dx":0.0183,"nx":112,"ny":82,"refTime":"2024-05-07T00:00:00:Z","depth":0,"parameterNumber":2,"parameterNumberName":"U-component_of_WINDS"},"data":[0.0,0.0,0.0,0.0,0.0,0.0,0.0,0.0,0.0,0.0,0.0,0.0,0.0,0.0,0.0,0.0,0.0,0.0,0.0,0.0,0.0,0.0,0.0,0.0,0.0,0.0,0.0,0.0,0.0,0.0,0.0,0.0,0.0,0.0,0.0,0.0,0.0,0.0,0.0,0.0,0.0,0.0,0.0,0.0,0.0,0.0,0.0,0.0,0.0,0.0,0.0,0.0,0.0,0.0,0.0,0.0,0.0,0.0,0.0,0.0,0.0,0.0,0.0,0.0,0.0,0.0,0.0,0.0,0.0,0.0,0.0,0.0,0.0,0.0,0.0,0.0,0.0,0.0,0.0,0.0,0.0,0.0,0.0,0.0,0.0,0.0,0.0,0.0,0.0,0.0,-6.0887,-6.8394,-7.6553,-8.0314,-7.7547,-7.7296,-7.4755,-6.8796,0.0,0.0,0.0,0.0,0.0,0.0,0.0,0.0,0.0,0.0,0.0,0.0,0.0,0.0,0.0,0.0,0.0,0.0,0.0,0.0,0.0,0.0,0.0,0.0,0.0,0.0,0.0,0.0,0.0,0.0,0.0,0.0,0.0,0.0,0.0,0.0,0.0,0.0,0.0,0.0,0.0,0.0,0.0,0.0,0.0,0.0,0.0,0.0,0.0,0.0,0.0,0.0,0.0,0.0,0.0,0.0,0.0,0.0,0.0,0.0,0.0,0.0,0.0,0.0,0.0,0.0,0.0,0.0,0.0,0.0,0.0,0.0,0.0,0.0,0.0,0.0,0.0,0.0,0.0,0.0,0.0,0.0,0.0,0.0,0.0,0.0,0.0,0.0,0.0,0.0,0.0,0.0,0.0,0.0,0.0,0.0,0.0,0.0,0.0,0.0,0.0,0.0,0.0,0.0,-6.2583,-7.4574,-7.7145,-7.7855,-7.7364,-7.7309,-7.5711,-7.2012,0.0,0.0,0.0,0.0,0.0,0.0,0.0,0.0,0.0,0.0,0.0,0.0,0.0,0.0,0.0,0.0,0.0,0.0,0.0,0.0,0.0,0.0,0.0,0.0,0.0,0.0,0.0,0.0,0.0,0.0,0.0,0.0,0.0,0.0,0.0,0.0,0.0,0.0,0.0,0.0,0.0,0.0,0.0,0.0,0.0,0.0,0.0,0.0,0.0,0.0,0.0,0.0,0.0,0.0,0.0,0.0,0.0,0.0,0.0,0.0,0.0,0.0,0.0,0.0,0.0,0.0,0.0,0.0,0.0,0.0,0.0,0.0,0.0,0.0,0.0,0.0,0.0,0.0,0.0,0.0,0.0,0.0,0.0,0.0,0.0,0.0,0.0,0.0,0.0,0.0,0.0,0.0,0.0,0.0,0.0,0.0,0.0,0.0,0.0,0.0,0.0,0.0,0.0,-6.5206,-7.0752,-7.667,-7.7292,-7.731,-7.7316,-7.7303,-7.5919,-7.2712,-6.3387,0.0,0.0,0.0,0.0,0.0,0.0,0.0,0.0,0.0,0.0,0.0,0.0,0.0,0.0,0.0,0.0,0.0,0.0,0.0,0.0,0.0,0.0,0.0,0.0,0.0,0.0,0.0,0.0,0.0,0.0,0.0,0.0,0.0,0.0,0.0,0.0,0.0,0.0,0.0,0.0,0.0,0.0,0.0,0.0,0.0,0.0,0.0,0.0,0.0,0.0,0.0,0.0,0.0,0.0,0.0,0.0,0.0,0.0,0.0,0.0,0.0,0.0,0.0,0.0,0.0,0.0,0.0,0.0,0.0,0.0,0.0,0.0,0.0,0.0,0.0,0.0,0.0,0.0,0.0,0.0,0.0,0.0,0.0,0.0,0.0,0.0,0.0,0.0,0.0,0.0,0.0,0.0,0.0,0.0,0.0,0.0,0.0,0.0,0.0,0.0,0.0,0.0,-7.0169,-7.644,-7.7201,-7.66,-7.6509,-7.7225,-7.7319,-7.5927,-7.2688,-6.2701,0.0,0.0,0.0,0.0,0.0,0.0,0.0,0.0,0.0,0.0,0.0,0.0,0.0,0.0,0.0,0.0,0.0,0.0,0.0,0.0,0.0,0.0,0.0,0.0,0.0,0.0,0.0,0.0,0.0,0.0,0.0,0.0,0.0,0.0,0.0,0.0,0.0,0.0,0.0,0.0,0.0,0.0,0.0,0.0,0.0,0.0,0.0,0.0,0.0,0.0,0.0,0.0,0.0,0.0,0.0,0.0,0.0,0.0,0.0,0.0,0.0,0.0,0.0,0.0,0.0,0.0,0.0,0.0,0.0,0.0,0.0,0.0,0.0,0.0,0.0,0.0,0.0,0.0,0.0,0.0,0.0,0.0,0.0,0.0,0.0,0.0,0.0,0.0,0.0,0.0,0.0,0.0,0.0,0.0,0.0,0.0,0.0,0.0,0.0,0.0,0.0,0.0,-6.6843,-7.396,-7.6987,-7.4615,-7.4049,-7.7038,-7.7279,-7.592,-7.2724,-6.0747,0.0,0.0,0.0,0.0,0.0,0.0,0.0,0.0,0.0,0.0,0.0,0.0,0.0,0.0,0.0,0.0,0.0,0.0,0.0,0.0,0.0,0.0,0.0,0.0,0.0,0.0,0.0,0.0,0.0,0.0,0.0,0.0,0.0,0.0,0.0,0.0,0.0,0.0,0.0,0.0,0.0,0.0,0.0,0.0,0.0,0.0,0.0,0.0,0.0,0.0,0.0,0.0,0.0,0.0,0.0,0.0,0.0,0.0,0.0,0.0,0.0,0.0,0.0,0.0,0.0,0.0,0.0,0.0,0.0,0.0,0.0,0.0,0.0,0.0,0.0,0.0,0.0,0.0,0.0,0.0,0.0,0.0,0.0,0.0,0.0,0.0,0.0,0.0,0.0,0.0,0.0,0.0,0.0,0.0,0.0,0.0,0.0,0.0,0.0,0.0,0.0,0.0,-6.8993,-7.3369,-7.558,-7.3839,-7.2569,-7.2797,-7.3734,-7.1174,-6.3912,0.0,0.0,0.0,0.0,0.0,0.0,0.0,0.0,0.0,0.0,0.0,0.0,0.0,0.0,0.0,0.0,0.0,0.0,0.0,0.0,0.0,0.0,0.0,0.0,0.0,0.0,0.0,0.0,0.0,0.0,0.0,0.0,0.0,0.0,0.0,0.0,0.0,0.0,0.0,0.0,0.0,0.0,0.0,0.0,0.0,0.0,0.0,0.0,0.0,0.0,0.0,0.0,0.0,0.0,0.0,0.0,0.0,0.0,0.0,0.0,0.0,0.0,0.0,0.0,0.0,0.0,0.0,0.0,0.0,0.0,0.0,0.0,0.0,0.0,0.0,0.0,0.0,0.0,0.0,0.0,0.0,0.0,0.0,0.0,0.0,0.0,0.0,0.0,0.0,0.0,0.0,0.0,0.0,0.0,0.0,0.0,0.0,0.0,0.0,0.0,0.0,0.0,-6.4437,-6.8652,-7.1605,-7.3193,-7.2226,-7.0924,-6.9441,-7.0045,-6.7332,-6.0012,0.0,0.0,0.0,0.0,0.0,0.0,0.0,0.0,0.0,0.0,0.0,0.0,0.0,0.0,0.0,0.0,0.0,0.0,0.0,0.0,0.0,0.0,0.0,0.0,0.0,0.0,0.0,0.0,0.0,0.0,0.0,0.0,0.0,0.0,0.0,0.0,0.0,0.0,0.0,0.0,0.0,0.0,0.0,0.0,0.0,0.0,0.0,0.0,0.0,0.0,0.0,0.0,0.0,0.0,0.0,0.0,0.0,0.0,0.0,0.0,0.0,0.0,0.0,0.0,0.0,0.0,0.0,0.0,0.0,0.0,0.0,0.0,0.0,0.0,0.0,0.0,0.0,0.0,0.0,0.0,0.0,0.0,0.0,0.0,0.0,0.0,0.0,0.0,0.0,0.0,0.0,0.0,0.0,0.0,0.0,0.0,0.0,0.0,0.0,0.0,0.0,0.0,-6.0186,-6.4683,-6.8294,-6.988,-6.9623,-6.886,-6.7781,-6.6702,-6.5128,0.0,0.0,0.0,0.0,0.0,0.0,0.0,0.0,0.0,0.0,0.0,0.0,0.0,0.0,0.0,0.0,0.0,0.0,0.0,0.0,0.0,0.0,0.0,0.0,0.0,0.0,0.0,0.0,0.0,0.0,0.0,0.0,0.0,0.0,0.0,0.0,0.0,0.0,0.0,0.0,0.0,0.0,0.0,0.0,0.0,0.0,0.0,0.0,0.0,0.0,0.0,0.0,0.0,0.0,0.0,0.0,0.0,0.0,0.0,0.0,0.0,0.0,0.0,0.0,0.0,0.0,0.0,0.0,0.0,0.0,0.0,0.0,0.0,0.0,0.0,0.0,0.0,0.0,0.0,0.0,0.0,0.0,0.0,0.0,0.0,0.0,0.0,0.0,0.0,0.0,0.0,0.0,0.0,0.0,0.0,0.0,0.0,0.0,0.0,0.0,0.0,0.0,0.0,-6.0696,-6.4254,-6.7053,-6.8255,-6.9275,-6.9284,-6.7844,-6.6035,-6.3709,-6.0725,0.0,0.0,0.0,0.0,0.0,0.0,0.0,0.0,0.0,0.0,0.0,0.0,0.0,0.0,0.0,0.0,0.0,0.0,0.0,0.0,0.0,0.0,0.0,0.0,0.0,0.0,0.0,0.0,0.0,0.0,0.0,0.0,0.0,0.0,0.0,0.0,0.0,0.0,0.0,0.0,0.0,0.0,0.0,0.0,0.0,0.0,0.0,0.0,0.0,0.0,0.0,0.0,0.0,0.0,0.0,0.0,0.0,0.0,0.0,0.0,0.0,0.0,0.0,0.0,0.0,0.0,0.0,0.0,0.0,0.0,0.0,0.0,0.0,0.0,0.0,0.0,0.0,0.0,0.0,0.0,0.0,0.0,0.0,0.0,0.0,0.0,0.0,0.0,0.0,0.0,0.0,0.0,0.0,0.0,0.0,0.0,0.0,0.0,0.0,0.0,0.0,0.0,-5.9605,-6.2217,-6.4448,-6.6098,-6.743,-6.765,-6.6366,-6.4468,-6.2083,-5.9158,0.0,0.0,0.0,0.0,0.0,0.0,0.0,0.0,0.0,0.0,0.0,0.0,0.0,0.0,0.0,0.0,0.0,0.0,0.0,0.0,0.0,0.0,0.0,0.0,0.0,0.0,0.0,0.0,0.0,0.0,0.0,0.0,0.0,0.0,0.0,0.0,0.0,0.0,0.0,0.0,0.0,0.0,0.0,0.0,0.0,0.0,0.0,0.0,0.0,0.0,0.0,0.0,0.0,0.0,0.0,0.0,0.0,0.0,0.0,0.0,0.0,0.0,0.0,0.0,0.0,0.0,0.0,0.0,0.0,0.0,0.0,0.0,0.0,0.0,0.0,0.0,0.0,0.0,0.0,0.0,0.0,0.0,0.0,0.0,0.0,0.0,0.0,0.0,0.0,0.0,0.0,0.0,0.0,0.0,0.0,0.0,0.0,0.0,0.0,0.0,0.0,0.0,-5.7593,-5.9465,-6.1447,-6.3833,-6.4824,-6.4934,-6.4053,-6.2511,-6.0529,-5.8033,0.0,0.0,0.0,0.0,0.0,0.0,0.0,0.0,0.0,0.0,0.0,0.0,0.0,0.0,0.0,0.0,0.0,0.0,0.0,0.0,0.0,0.0,0.0,0.0,0.0,0.0,0.0,0.0,0.0,0.0,0.0,0.0,0.0,0.0,0.0,0.0,0.0,0.0,0.0,0.0,0.0,0.0,0.0,0.0,0.0,0.0,0.0,0.0,0.0,0.0,0.0,0.0,0.0,0.0,0.0,0.0,0.0,0.0,0.0,0.0,-6.1973,-6.0781,0.0,0.0,0.0,0.0,0.0,0.0,0.0,0.0,0.0,0.0,0.0,0.0,0.0,0.0,0.0,0.0,0.0,0.0,0.0,0.0,0.0,0.0,0.0,0.0,0.0,0.0,0.0,0.0,0.0,0.0,0.0,0.0,0.0,0.0,0.0,0.0,0.0,0.0,0.0,0.0,-5.7689,-5.9942,-6.2034,-6.3906,-6.4824,-6.4714,-6.3209,-6.2181,-6.0309,-5.7262,-5.5753,0.0,0.0,0.0,0.0,0.0,0.0,0.0,0.0,0.0,0.0,0.0,0.0,0.0,0.0,0.0,0.0,0.0,0.0,0.0,0.0,0.0,0.0,0.0,0.0,0.0,0.0,0.0,0.0,0.0,0.0,0.0,0.0,0.0,0.0,0.0,0.0,0.0,0.0,0.0,0.0,0.0,0.0,0.0,0.0,0.0,0.0,0.0,0.0,0.0,0.0,0.0,0.0,0.0,0.0,0.0,0.0,0.0,0.0,0.0,-6.4282,-6.2627,0.0,0.0,0.0,0.0,0.0,0.0,0.0,0.0,0.0,0.0,0.0,0.0,0.0,0.0,0.0,0.0,0.0,0.0,0.0,0.0,0.0,0.0,0.0,0.0,0.0,0.0,0.0,0.0,0.0,0.0,0.0,0.0,0.0,0.0,0.0,0.0,0.0,0.0,0.0,0.0,-5.7042,-5.8841,-6.0493,-6.2144,-6.3025,-6.3025,-6.1777,-6.0933,-5.9391,-5.6969,-5.5558,0.0,0.0,0.0,0.0,0.0,0.0,0.0,0.0,0.0,0.0,0.0,0.0,0.0,0.0,0.0,0.0,0.0,0.0,0.0,0.0,0.0,0.0,0.0,0.0,0.0,0.0,0.0,0.0,0.0,0.0,0.0,0.0,0.0,0.0,0.0,0.0,0.0,0.0,0.0,0.0,0.0,0.0,0.0,0.0,0.0,0.0,0.0,0.0,0.0,0.0,0.0,0.0,0.0,-7.0244,-7.1052,-7.1552,-7.1552,-7.1668,-7.1591,-6.7936,-6.6013,-6.5397,-6.4243,0.0,0.0,0.0,0.0,0.0,0.0,0.0,0.0,0.0,0.0,0.0,0.0,0.0,0.0,0.0,0.0,0.0,0.0,0.0,0.0,0.0,0.0,-5.7409,-5.8217,-5.8364,-5.7813,-5.6132,0.0,0.0,0.0,0.0,0.0,0.0,0.0,0.0,0.0,0.0,0.0,-5.6345,-5.7629,-5.8767,-6.0236,-6.1006,-6.108,-6.0272,-5.9588,-5.8487,-5.6895,-5.5653,-5.4412,0.0,0.0,0.0,0.0,0.0,0.0,0.0,0.0,0.0,0.0,0.0,0.0,0.0,0.0,0.0,0.0,0.0,0.0,0.0,0.0,0.0,0.0,0.0,0.0,0.0,0.0,0.0,0.0,0.0,0.0,0.0,0.0,-6.1211,-6.1211,0.0,0.0,0.0,0.0,0.0,0.0,0.0,0.0,0.0,0.0,0.0,0.0,0.0,-6.8226,-6.8859,-7.1398,-7.2322,-7.1745,-7.4053,-7.4822,-7.4207,-7.4207,-7.463,-7.5245,-7.3937,0.0,-6.8859,-6.6513,0.0,0.0,0.0,0.0,0.0,0.0,0.0,0.0,0.0,0.0,0.0,0.0,0.0,0.0,0.0,0.0,0.0,0.0,0.0,0.0,0.0,0.0,-5.9074,-5.9905,-5.9711,-5.9454,-5.9632,-5.6255,-5.4847,-6.0438,-5.7026,-5.3182,0.0,0.0,0.0,0.0,0.0,0.0,-5.6455,-5.8084,-5.9391,-6.0309,-6.0493,-6.0236,-5.9404,-5.9258,-5.8487,-5.6895,-5.5984,-5.4779,-5.3261,-5.0083,0.0,0.0,0.0,0.0,0.0,0.0,0.0,0.0,0.0,0.0,0.0,0.0,0.0,0.0,0.0,0.0,0.0,0.0,0.0,0.0,0.0,0.0,0.0,0.0,0.0,0.0,0.0,0.0,0.0,-6.082,-6.207,-6.1094,-6.1914,-6.1719,0.0,0.0,0.0,0.0,0.0,0.0,0.0,0.0,0.0,-6.9111,-7.0641,-7.1576,-7.1822,-7.4361,-7.5668,-7.5745,-7.7361,-7.8207,-7.8284,-7.8284,-7.8515,-7.8823,-7.8477,-7.7207,-7.5014,-7.0552,-6.8205,-6.7167,0.0,0.0,0.0,0.0,-6.1626,-6.1259,-6.1692,-6.1671,-6.1374,-6.1153,0.0,0.0,0.0,0.0,0.0,0.0,0.0,-5.7079,-5.8217,-5.9208,-6.0089,-6.0896,-6.1239,-6.1447,-6.169,-6.0107,-5.8368,-5.7553,-5.5126,-5.3193,-5.3191,-5.2119,0.0,0.0,0.0,-5.3922,-5.5868,-5.7519,-5.8657,-5.9024,-5.9465,-5.9391,-5.8584,-5.8547,-5.785,-5.6235,-5.5794,-5.4897,-5.3253,-5.0424,-4.7536,0.0,0.0,0.0,0.0,0.0,0.0,0.0,0.0,0.0,0.0,0.0,0.0,0.0,0.0,0.0,0.0,0.0,0.0,0.0,0.0,0.0,0.0,0.0,0.0,0.0,0.0,0.0,0.0,-6.2305,-6.3594,-6.164,-6.4492,-6.5078,0.0,0.0,0.0,0.0,0.0,0.0,-7.0273,-7.0961,-7.1778,-7.2762,-7.4196,-7.5002,-7.513,-7.7207,-7.8554,-7.9169,-7.9823,-8.0477,-8.1093,-8.1093,-8.1093,-8.1093,-8.1093,-8.0746,-7.9708,-7.4399,-7.1591,-7.036,-6.7167,-6.5628,-6.5167,-6.4709,-6.4191,-6.3823,-6.439,-6.4382,-6.387,-6.2658,-6.1961,-6.1043,-5.8033,0.0,0.0,0.0,0.0,-5.7666,-5.8657,-5.9795,-6.086,-6.1447,-6.1998,-6.2463,-6.2732,-6.2153,-6.0157,-5.535,-5.4428,-5.418,-5.3331,-5.2553,0.0,-5.3057,-5.3408,-5.3995,-5.5427,-5.7005,-5.7923,-5.7703,-5.84,-5.8584,-5.7776,-5.7886,-5.7409,-5.5978,-5.5684,-5.4986,-5.3672,-5.0886,-4.8178,-4.5599,0.0,0.0,0.0,0.0,0.0,0.0,0.0,0.0,0.0,0.0,0.0,0.0,0.0,0.0,0.0,0.0,0.0,0.0,0.0,0.0,0.0,0.0,0.0,0.0,0.0,0.0,0.0,0.0,0.0,-6.4414,-6.9297,0.0,0.0,0.0,0.0,-6.9062,-6.9922,-7.1211,-7.3008,-7.3553,-7.4591,-7.6295,-7.7587,-7.8646,-7.9477,-8.0439,-8.0939,-8.0977,-8.1016,-8.1054,-8.1093,-8.1093,-8.1093,-8.1093,-8.1093,-8.1093,-8.0746,-7.7207,-7.4784,-7.3053,-7.0475,-6.8436,-6.6897,-6.6445,-6.5918,-6.5292,-6.415,-6.3901,-6.409,-6.398,-6.2879,-6.1117,-5.8694,-5.7923,0.0,0.0,-5.8474,-5.9441,-6.1006,-6.1484,-6.1557,-6.1594,-6.1423,-6.1581,-6.2584,-6.0417,-5.8124,-5.7808,-5.7773,-5.6779,-5.3726,0.0,-5.313,-5.3167,-5.3849,-5.462,-5.5486,-5.7005,-5.7703,-5.6932,-5.7593,-5.774,-5.6932,-5.7556,-5.7629,-5.6785,-5.6014,-5.533,-5.4755,-5.2137,-4.9892,-4.8163,-4.8256,0.0,0.0,0.0,0.0,0.0,0.0,0.0,0.0,0.0,0.0,0.0,0.0,0.0,0.0,0.0,0.0,0.0,0.0,0.0,0.0,0.0,0.0,0.0,0.0,0.0,0.0,0.0,0.0,-6.9375,-7.3633,0.0,-7.0937,-7.1914,-7.2773,-7.2734,-7.4609,-7.6445,-7.8164,-7.9242,-8.0302,-8.1439,-8.1143,-8.1093,-8.14,-8.1208,-8.1093,-8.1093,-8.1093,-8.1093,-8.1093,-8.1093,-8.1093,-8.1093,-8.1093,-8.0785,-8.0169,-7.8938,-7.7476,-7.563,-7.2514,-7.0937,-7.0269,-6.9543,-6.8743,-6.7914,-6.7451,-6.69,-6.6145,-6.4604,-6.2622,-6.0676,-5.9795,-5.9538,-5.9538,-5.9538,-6.0126,-6.0896,-6.1447,-6.1594,-6.1594,-6.1594,-6.1153,-6.081,-6.115,-6.0087,-5.8817,-5.8153,-5.7441,-5.661,-5.5471,-5.4979,-5.4583,-5.4069,-5.5097,-5.5684,-5.4913,-5.6675,-5.7483,-5.6161,-5.6748,-5.6895,-5.6088,-5.6271,-5.6088,-5.5317,-5.4509,-5.3659,-5.2789,-5.2491,-5.1071,-4.834,-4.8291,-4.8306,0.0,0.0,0.0,0.0,0.0,0.0,0.0,0.0,0.0,0.0,0.0,0.0,0.0,0.0,0.0,0.0,0.0,0.0,0.0,0.0,0.0,0.0,0.0,0.0,0.0,-6.9336,-7.3086,-7.25,-7.7578,-7.9492,-7.5469,-7.7148,-7.8398,-7.8086,-7.9687,-8.1289,-8.2695,-8.3268,-8.3732,-8.4209,-8.3036,-8.24,-8.2285,-8.1516,-8.1093,-8.1093,-8.1093,-8.1093,-8.1093,-8.1093,-8.1093,-8.1093,-8.1093,-8.0592,-7.9785,-7.9477,-7.8554,-7.7053,-7.4822,-7.3553,-7.2937,-7.2091,-7.121,-7.0287,-6.9357,-6.8068,-6.6586,-6.4714,-6.2622,-6.0786,-6.0786,-6.0786,-6.0786,-6.0786,-6.1374,-6.1998,-6.1998,-6.1777,-6.152,-6.1263,-6.0566,-5.9905,-5.9646,-5.9291,-5.8864,-5.8143,-5.7423,-5.6813,-5.6483,-5.5955,-5.5427,-5.4876,-5.5721,-5.6014,-5.495,-5.6675,-5.7262,-5.539,-5.6161,-5.6381,-5.528,-5.5427,-5.5133,-5.4069,-5.3261,-5.2218,-5.0973,-5.1667,-5.1096,-4.8914,-4.8524,-4.7587,-4.6104,0.0,0.0,0.0,0.0,0.0,0.0,0.0,0.0,0.0,0.0,0.0,0.0,0.0,0.0,0.0,0.0,0.0,0.0,0.0,0.0,0.0,0.0,0.0,-6.5976,-7.1719,-7.543,-7.3867,-8.1094,-8.4258,-7.9297,-8.3281,-8.5859,-8.5,-8.4922,-8.5312,-8.6133,-8.5242,-8.4551,-8.4256,-8.324,-8.2626,-8.2285,-8.1516,-8.1093,-8.1093,-8.1093,-8.1093,-8.1093,-8.1093,-8.1093,-8.1054,-8.1054,-8.0554,-7.9669,-7.8823,-7.7977,-7.7207,-7.7207,-7.6207,-7.4591,-7.3783,-7.3054,-7.209,-6.9394,-6.7099,-6.5191,-6.4347,-6.2989,-6.163,-6.163,-6.163,-6.163,-6.163,-6.2218,-6.278,-6.278,-6.2181,-6.1374,-6.0603,-5.9795,-5.8927,-5.818,-5.7997,-5.7997,-5.7997,-5.7997,-5.7666,-5.663,-5.5992,-5.5633,-5.5596,-5.5596,0.0,-5.5596,-5.6932,-5.7042,-5.4693,-5.5831,-5.6124,-5.4546,-5.5097,-5.484,-5.3203,-5.2344,-5.1189,-4.961,-4.9745,-4.9839,-4.9876,-4.8812,-4.6168,-4.1937,0.0,0.0,0.0,0.0,0.0,0.0,0.0,0.0,0.0,0.0,0.0,0.0,0.0,0.0,0.0,0.0,0.0,0.0,0.0,0.0,0.0,-6.7539,-7.0742,-7.1133,-7.5508,-7.9414,-8.1484,-8.4375,-8.6133,-8.5937,-8.6094,-8.6094,-8.5859,-8.5859,-8.5937,-8.6172,-8.6335,-8.6033,-8.5151,-8.4132,-8.3154,-8.2285,-8.1516,-8.1093,-8.1093,-8.1093,-8.1093,-8.1093,-8.1093,-8.0746,-8.0169,-8.0169,-7.9323,-7.7977,-7.7707,-7.6746,-7.5399,-7.5399,-7.513,-7.4553,-7.3091,-7.1576,-6.9962,-6.8227,-6.6617,-6.5191,-6.4347,-6.3356,-6.2475,-6.2475,-6.2475,-6.2475,-6.2475,-6.2658,-6.278,-6.278,-6.1777,-6.0676,-6.0456,-5.9355,-5.8253,-5.8033,-5.7997,-5.7997,-5.7997,-5.7997,-5.7923,-5.7629,-5.6969,-5.6271,-5.5684,-5.5596,0.0,-5.4803,-5.5611,-5.6014,-5.5317,-5.5647,-5.55,-5.4473,-5.4069,-5.3188,-5.1573,-5.0105,-4.9114,-4.8673,-4.7223,-4.6617,-4.704,-4.6727,-4.5991,0.0,0.0,0.0,0.0,0.0,0.0,0.0,0.0,0.0,0.0,0.0,0.0,0.0,0.0,0.0,0.0,0.0,0.0,0.0,0.0,0.0,0.0,-7.1211,-7.4297,-7.625,-7.9297,-8.2226,-8.4609,-8.6289,-8.75,-8.8125,-8.7617,-8.7265,-8.7265,-8.6953,-8.7031,-8.7734,-8.735,-8.693,-8.6599,-8.4842,-8.354,-8.284,-8.167,-8.1093,-8.1093,-8.1093,-8.1093,-8.1093,-8.1093,-8.0631,-7.9823,-7.9823,-7.8861,-7.7284,-7.6899,-7.5938,0.0,0.0,0.0,0.0,0.0,-7.0746,-6.8631,-6.753,-6.6114,-6.4677,-6.3833,-6.2989,-6.2291,-6.2291,-6.2291,-6.2254,-6.1887,-6.2266,-6.2633,-6.1998,-6.1117,-6.0309,-5.9979,-5.8951,-5.7997,-5.7997,-5.7997,-5.7997,-5.7997,-5.7997,0.0,-5.7997,-5.7042,-5.6235,-5.6124,-5.5537,-5.4913,-5.4473,-5.5097,-5.5317,-5.4656,-5.4913,-5.4766,-5.3959,-5.3151,0.0,0.0,0.0,-4.8012,-4.7315,-4.5773,0.0,0.0,0.0,-4.5663,-4.4564,0.0,0.0,0.0,-4.3721,-4.4346,0.0,0.0,0.0,0.0,0.0,0.0,0.0,0.0,0.0,0.0,0.0,0.0,0.0,0.0,0.0,0.0,-7.5078,-7.7461,-8.0703,-8.2656,-8.4062,-8.4922,-8.7148,-8.8359,-8.7812,-8.8242,-8.8594,-8.8672,-8.7969,-8.8203,-8.9765,-8.8209,0.0,0.0,0.0,-8.385,-8.3455,-8.19,-8.1093,-8.1093,-8.1093,-8.1093,-8.1093,-8.1016,-8.0477,-7.9669,-7.9554,-7.8631,-7.7092,-7.6207,-7.5284,-7.4437,-7.4437,-7.3937,-7.3077,-7.2164,-7.0255,-6.7956,-6.6991,0.0,0.0,-6.2989,-6.2181,-6.1557,-6.1484,-6.1447,-6.13,-6.0603,-6.1447,-6.2193,-6.0786,-6.0346,-6.0089,-5.9368,-5.8584,-5.7997,-5.7997,-5.7997,-5.796,-5.785,-5.785,-5.785,-5.774,-5.6528,-5.5831,-5.6565,-5.5317,-5.4289,-5.4399,-5.495,-5.484,-5.3592,0.0,0.0,-5.3387,-5.2527,-5.161,-5.0729,-4.9077,-4.7498,-4.5957,-4.5296,-4.4929,-4.4838,-4.6085,-4.5516,-4.3059,-4.3943,-4.395,-4.3164,-4.3833,-4.4611,0.0,0.0,0.0,0.0,0.0,0.0,0.0,0.0,0.0,0.0,0.0,0.0,0.0,0.0,0.0,-7.3789,-7.6953,-7.9687,-8.1758,-8.3554,-8.4961,-8.5859,-8.6992,-8.8203,-8.9414,-8.8437,-8.8008,-8.8633,-8.7969,-8.7929,-8.8906,-8.8441,-8.7827,-8.7075,-8.5685,-8.4197,-8.2554,-8.1593,-8.1093,-8.1093,-8.1093,0.0,-8.1093,-8.0362,-7.9592,-7.8707,-7.8054,-7.7207,-7.6169,-7.5322,-7.4053,-7.2668,-7.2668,-7.2168,-7.1255,-6.9988,-6.8932,-6.7821,-6.5961,-6.4772,-6.3833,-6.2328,-6.1741,-6.1484,-6.0823,-6.0639,0.0,-6.0456,-6.0639,-6.0786,-6.0493,-5.9942,-5.9368,-5.9221,-5.8584,-5.7997,-5.7997,-5.7997,-5.774,-5.6887,-5.6873,-5.6822,-5.6161,-5.5794,-5.5669,-5.5794,-5.4473,-5.3665,-5.4326,-5.3959,-5.4032,-5.5023,-5.4693,-5.4326,-5.4179,-5.2821,-5.1353,-4.9941,-4.8269,-4.6892,-4.5957,-4.6379,-4.6305,-4.5663,-4.6544,-4.647,-4.5279,-4.6275,-4.6008,-4.4581,-4.3781,-4.3815,0.0,0.0,0.0,0.0,0.0,0.0,0.0,0.0,0.0,0.0,0.0,-6.457,-6.7617,0.0,-7.3789,-7.7226,-7.9258,-8.082,-8.2109,-8.3437,-8.457,-8.5469,-8.6719,-8.7812,-8.8672,-8.8359,-8.8281,-8.8672,-8.8711,-8.9101,-8.9961,-8.8908,-8.8208,-8.8087,-8.5691,-8.3924,-8.2939,-8.1708,-8.1093,-8.1093,-8.1093,-8.1093,-8.1054,-8.0208,-7.9323,-7.8453,-7.763,-7.6823,-7.5899,-7.463,-7.3091,-7.1552,-7.1552,-7.1052,-7.0179,-6.905,-6.8062,-6.7067,-6.574,-6.4389,-6.3131,-6.2426,-6.1374,-6.0419,-6.0419,-6.0126,-5.9722,-5.9318,-5.9795,-6.0199,-5.9428,-5.9208,-5.9074,-5.8694,-5.829,-5.7997,-5.7997,-5.7363,-5.6644,-5.6108,-5.6116,-5.6051,-5.5647,-5.5244,-5.4987,-5.4987,-5.3959,-5.3371,-5.3739,-5.3445,-5.3518,-5.4326,-5.4032,-5.3812,-5.3812,-5.2307,-5.0875,-4.9684,-4.8049,-4.6929,-4.6544,-4.6507,-4.6324,-4.592,-4.6672,-4.6709,-4.5883,-4.6389,-4.6054,-4.4815,-4.3929,-4.3955,0.0,0.0,0.0,0.0,0.0,0.0,0.0,-5.8515,-6.039,-6.4023,-6.6133,-6.8711,-7.3242,-7.4883,-7.6797,-8.039,-8.1133,-8.1484,-8.2187,-8.3047,-8.3906,-8.4804,-8.6289,-8.7304,-8.7461,-8.8086,-8.8515,-8.8672,-8.9336,-9.0195,-9.1207,-8.9381,-8.8637,-8.9293,-8.5769,-8.3747,-8.3593,-8.1939,-8.1093,-8.1093,-8.1093,-8.1093,-8.1054,-8.0208,-7.9323,-7.8438,-7.7476,-7.6476,-7.5399,-7.4053,-7.2476,-7.0898,-7.0744,-7.0167,-6.9346,-6.8548,-6.7408,-6.6138,-6.5427,-6.3896,-6.2235,-6.2315,-6.0909,-5.9294,-5.9795,-5.9501,-5.8817,-5.818,-5.8914,-5.9648,-5.8327,-5.8474,-5.8804,-5.8143,-5.7997,-5.7997,-5.7997,-5.6974,-5.5939,-5.555,-5.553,-5.55,-5.517,-5.4583,-5.4216,-5.4363,-5.3739,-5.3203,-5.3203,-5.3203,-5.3203,-5.3203,-5.3203,-5.3151,-5.3004,-5.1793,-5.0618,-4.9647,-4.8343,-4.7516,-4.7333,-4.6728,-4.6287,-4.614,-4.6746,-4.6636,-4.5663,-4.581,-4.5406,-4.4471,-4.4122,-4.4315,-5.3398,-5.3242,-5.4648,-5.6797,-5.7461,-5.9023,0.0,-6.5156,-6.5937,-7.0117,-7.2383,-7.4258,-7.6367,-7.8047,-7.9531,-8.0781,-8.164,-8.2187,-8.2304,-8.3047,-8.3906,-8.4804,-8.5742,-8.664,-8.7422,-8.7578,-8.7929,-8.8633,-8.8789,-8.9486,-9.0949,-8.9858,-8.9139,-8.9046,-8.623,-8.4362,-8.3593,-8.1939,-8.1093,-8.1093,-8.1093,-8.1093,-8.1054,-8.0208,-7.9323,-7.84,-7.6823,-7.5245,-7.3783,-7.3591,-7.2476,-7.0821,-7.0129,-6.9321,-6.8473,-6.7914,-6.6861,-6.5483,-6.4266,-6.2895,-6.1581,-6.0884,-6.0015,-5.9074,-5.8474,-5.8217,-5.8107,-5.8033,-5.8143,-5.8217,-5.8033,-5.807,-5.8107,-5.8033,-5.7997,-5.7997,-5.7997,-5.785,-5.7166,-5.5265,-5.5273,-5.5133,-5.3702,-5.3408,-5.3592,-5.4289,-5.3739,-5.3203,-5.3203,-5.3203,-5.3203,-5.3203,-5.3203,-5.2931,-5.2197,-5.1977,-5.1169,-4.9591,-4.939,-4.8967,-4.8196,-4.8086,-4.7719,-4.6966,-4.7039,-4.6342,-4.4838,-4.5553,-4.5112,-4.3644,-4.4307,-4.4379,-5.5976,-5.5625,-5.6015,-5.8125,-5.9765,-6.164,-6.4687,-6.664,-6.8906,-7.2734,-7.5312,-7.7383,-7.9101,-8.039,-8.1484,-8.2383,-8.2383,-8.2461,-8.3008,-8.2929,-8.3164,-8.4023,-8.4922,-8.6172,-8.8008,-8.9101,-8.9844,-9.0195,-9.0195,-9.0422,-9.0976,-8.9469,-8.8507,-8.8248,-8.5597,-8.3978,-8.3593,-8.1939,-8.1093,-8.1093,-8.1093,-8.1093,-8.1054,-8.0208,-7.9054,-7.7707,-7.5976,-7.4591,-7.3476,-7.2937,-7.2014,-7.086,-7.0514,-6.9898,-6.8987,-6.7774,-6.6657,-6.5611,-6.4445,-6.3055,-6.1698,-6.1245,-5.9905,-5.8547,-5.8657,-5.8364,-5.7997,-5.7997,-5.7997,-5.7997,-5.7997,-5.7997,-5.7997,-5.7997,-5.7997,-5.7997,-5.7997,-5.7262,-5.6345,-5.5442,-5.4671,-5.3995,-5.3314,-5.3203,-5.3314,-5.3665,-5.3445,-5.3203,-5.3203,-5.3203,-5.3203,-5.3203,-5.3203,-5.3078,-5.2747,-5.183,-5.0986,-5.0288,-4.937,-4.8673,-4.8306,-4.8306,-4.7939,-4.7113,-4.7113,-4.6526,-4.5406,-4.5259,-4.4856,-4.4195,-4.4048,-4.3869,-5.6911,-5.7182,-5.7687,-5.963,-6.2049,-6.4275,-6.5602,-6.8219,-7.1149,-7.4158,-7.6902,-7.9174,-8.0659,-8.1678,-8.2578,-8.3476,-8.3086,-8.289,-8.3515,-8.3047,-8.289,-8.3515,-8.4375,-8.582,-8.8125,-8.9492,-9.0351,-9.0586,-9.0586,-9.0652,-9.0891,-8.9129,-8.8041,-8.7989,-8.5113,-8.3593,-8.3593,-8.1939,-8.1093,-8.1093,-8.1093,-8.1093,-8.1054,-7.9939,-7.8784,-7.7515,-7.5553,-7.4245,-7.3437,-7.2552,-7.1668,-7.0898,-7.0898,-7.0244,-6.9206,-6.7936,-6.6871,-6.5901,-6.4792,-6.322,-6.1674,-6.1362,-5.9795,-5.8107,-5.8694,-5.8474,-5.7997,-5.7997,-5.7997,-5.7997,-5.7997,-5.7997,-5.7997,-5.7997,-5.7983,-5.8006,-5.8006,-5.6734,-5.5464,-5.5038,-5.4194,-5.3482,-5.3261,-5.3203,-5.3203,-5.3203,-5.3203,-5.3203,-5.3203,-5.3203,-5.3203,-5.3203,-5.3203,-5.3203,-5.3203,-5.194,-5.1059,-5.0802,-4.9444,-4.8563,-4.8306,-4.8086,-4.7609,-4.6782,-4.6562,-4.6049,-4.5223,-4.4635,-4.4378,-4.4342,-4.3754,-4.3515,-5.4997,-5.6965,-5.9404,-6.1818,-6.4357,-6.6932,-6.9461,-7.1368,-7.3126,-7.4891,-7.7472,-7.9658,-8.052,-8.1589,-8.2578,-8.3476,-8.3594,-8.3554,-8.3594,-8.3594,-8.3554,-8.3594,-8.4375,-8.5586,-8.7344,-8.7578,-8.7929,-8.8711,-8.8789,-8.9305,-9.0539,-8.9004,-8.8257,-8.8645,-8.5379,-8.3593,-8.3593,-8.1939,-8.1093,-8.1093,-8.1093,-8.1093,-8.1054,-7.9323,-7.8515,-7.8323,-7.5784,-7.4245,-7.3437,-7.2552,-7.1668,-7.0898,-7.0898,-6.9898,-6.8436,-6.8398,-6.7525,-6.6211,-6.4857,-6.3008,-6.113,-6.0595,-5.9318,-5.7997,-5.8033,-5.8033,-5.7997,-5.7997,-5.7997,-5.7997,-5.7997,-5.7997,-5.7997,-5.7997,-5.7992,-5.8023,-5.8023,-5.6742,-5.5148,-5.3594,-5.3858,-5.4106,-5.3335,-5.3203,-5.3203,-5.3203,-5.3203,-5.3203,-5.3203,-5.3203,-5.3203,-5.3203,-5.3203,-5.3203,-5.3203,-5.2454,-5.161,-5.0839,-4.9994,-4.9187,-4.8343,-4.7553,-4.6746,-4.5957,-4.5186,-4.4378,-4.3588,-4.3551,-4.3551,-4.3551,-4.3515,-4.3515,-5.6371,-5.816,-6.0505,-6.4117,-6.6134,-6.7736,-6.9759,-7.1945,-7.3897,-7.5072,-7.5663,-7.6447,-7.7894,-7.8465,-7.9377,-8.1368,-8.2062,-8.2786,-8.4095,-8.3753,-8.3222,-8.2773,-8.4023,-8.4883,-8.4922,-8.6484,-8.8086,-8.9453,-8.8385,-8.8032,-8.8896,-8.772,-8.6752,-8.6187,-8.4478,-8.3324,-8.2747,-8.1631,-8.1093,-8.1093,-8.1093,-8.1093,-8.1054,-7.9285,-7.8477,-7.8323,-7.5245,-7.3745,-7.336,-7.136,-7.036,-7.0052,-6.9475,-6.8898,-6.8321,-6.7744,-6.7255,-6.6639,-6.4964,-6.3201,-6.1523,-6.0697,-5.9318,-5.7997,-5.7997,-5.7997,-5.7997,-5.7997,-5.7997,-5.7997,-5.7997,-5.7997,-5.7997,-5.7997,-5.7992,-5.772,-5.6653,-5.5141,-5.3851,-5.3316,-5.3418,-5.3518,-5.324,-5.3203,-5.3203,-5.3203,-5.3203,-5.3203,-5.3203,-5.3203,-5.3004,-5.2454,-5.2417,-5.2197,-5.1646,-5.0875,-5.0308,-5.0014,-4.9224,-4.86,-4.8306,-4.8049,-4.7278,-4.592,-4.5626,-4.4819,-4.3515,-4.3515,-4.3515,-4.3515,-4.3515,-4.3515,-5.812,-5.9808,-6.1764,-6.5627,-6.7247,-6.8333,-7.0078,-7.1949,-7.3433,-7.3675,-7.3698,-7.3904,-7.4728,-7.5201,-7.6166,-7.8428,-7.9483,-8.0853,-8.3315,-8.2999,-8.256,-8.2734,-8.375,-8.4336,-8.4101,-8.5231,-8.6591,-8.796,-8.7453,-8.7103,-8.7069,-8.6405,-8.5705,-8.4917,-8.3747,-8.2862,-8.2324,-8.1516,-8.1093,-8.1093,-8.0785,-8.0631,-8.0592,-7.8861,-7.79,-7.7438,-7.4707,-7.3168,-7.2437,-7.0475,-6.9513,-6.9167,-6.8629,-6.8205,-6.7859,-6.7321,-6.6705,-6.5999,-6.4465,-6.3048,-6.1676,-6.0396,-5.9098,-5.7997,-5.7997,-5.7997,-5.7997,-5.7997,-5.7997,-5.7997,-5.7997,-5.7997,-5.7923,-5.7629,-5.7514,-5.7095,-5.5845,-5.4334,-5.3191,-5.3191,-5.3219,-5.3203,-5.3203,-5.3203,-5.3203,-5.3203,-5.3203,-5.3203,-5.3203,-5.2968,-5.2564,-5.205,-5.172,-5.1353,-5.0839,-5.0068,-4.961,-4.961,-4.8783,-4.8306,-4.8306,-4.7755,-4.6948,-4.592,-4.5333,-4.4525,-4.3515,-4.3515,-4.3515,-4.3515,-4.3515,-4.3515,-5.993,-6.1688,-6.3167,-6.6357,-6.7782,-6.8821,-7.0475,-7.1514,-7.186,-7.0975,-7.151,-7.192,-7.1078,-7.1863,-7.3244,-7.5035,-7.6308,-7.8203,-8.1567,-8.1504,-8.1717,-8.3319,-8.3632,-8.3984,-8.4726,-8.3914,-8.3666,-8.4438,-8.5994,-8.6416,-8.52,-8.519,-8.506,-8.4802,-8.317,-8.2285,-8.2247,-8.1477,-8.1093,-8.1093,-8.0208,-7.9823,-7.9746,-7.8015,-7.6784,-7.5899,-7.4168,-7.2476,-7.0821,-6.9975,-6.9129,-6.8321,-6.8269,-6.7782,-6.7051,-6.7051,-6.6013,-6.4449,-6.3403,-6.252,-6.1544,-5.9804,-5.8657,-5.7997,-5.7997,-5.7997,-5.7997,-5.7997,-5.7997,-5.7997,-5.7997,-5.7997,-5.7813,-5.7042,-5.6573,-5.6198,-5.5705,-5.4354,-5.3203,-5.3203,-5.3203,-5.3203,-5.3203,-5.3203,-5.3203,-5.3203,-5.3203,-5.3203,-5.3203,-5.2527,-5.2013,-5.194,-5.1242,-5.0765,-5.0692,-4.9958,-4.9537,-4.9537,-4.8746,-4.8306,-4.8306,-4.6838,-4.5993,-4.5883,-4.4378,-4.3588,-4.3515,-4.3515,-4.3515,-4.3515,-4.3515,-4.3515,-6.049,-6.2478,-6.4674,-6.7372,-6.8244,-6.8667,-6.9744,-7.0629,-7.0821,-6.936,-6.8347,-6.7658,-6.7435,-6.9188,-7.1387,-7.3762,-7.6903,-7.9834,-8.2106,-8.2853,-8.2909,-8.2278,-8.3974,-8.4771,-8.3621,-8.3952,-8.3944,-8.3174,-8.4106,-8.4549,-8.4258,-8.472,-8.4358,-8.3016,-8.2516,-8.2016,-8.14,-8.1208,-8.1093,-8.1093,-8.0208,-7.9823,-7.9708,-7.74,-7.6207,-7.5861,-7.3553,-7.1898,-7.0783,-6.9321,-6.8205,-6.7359,-6.6782,-6.6397,-6.6205,-6.6205,-6.5513,-6.4385,-6.2774,-6.1689,-6.081,-5.9597,-5.8657,-5.7997,-5.7997,-5.7997,-5.7997,-5.7997,-5.7997,-5.7997,-5.7997,-5.7997,-5.796,-5.774,-5.6432,-5.5295,-5.5544,-5.4347,-5.3203,-5.3203,-5.3203,-5.3203,-5.3203,-5.3203,-5.3203,-5.3203,-5.3203,-5.3203,-5.3203,-5.3041,-5.2417,-5.1242,-5.0912,-5.0288,-4.904,-4.8746,-4.8636,-4.8636,-4.8416,-4.8306,-4.8306,-4.7902,-4.7131,-4.592,-4.548,-4.4709,-4.3515,-4.3515,-4.3515,-4.3515,-4.3515,-4.3515,-6.2684,-6.439,-6.6205,-6.8436,-6.8667,-6.8436,-6.8513,-6.8898,-6.8552,-6.6128,-6.5223,-6.4535,-6.3426,-6.5925,-6.8722,-7.051,-7.4372,-7.813,-8.1085,-8.1674,-8.1922,-8.2217,-8.3611,-8.4176,-8.3089,-8.3462,-8.3459,-8.2681,-8.3421,-8.3553,-8.2714,-8.3372,-8.317,-8.1823,-8.1785,-8.1554,-8.1093,-8.1093,-8.09,-8.0516,-7.9669,-7.9054,-7.8631,-7.6438,-7.5245,-7.4784,-7.2976,-7.1283,-6.9744,-6.8783,-6.7667,-6.6513,-6.609,-6.5897,-6.5859,-6.5474,-6.4782,-6.3758,-6.1977,-6.0821,-5.9963,-5.8969,-5.8364,-5.7997,-5.7997,-5.7997,-5.7997,-5.7997,-5.7997,-5.7997,-5.7997,-5.7997,-5.7923,-5.7556,-5.6542,-5.5493,-5.4723,-5.3821,-5.3198,-5.3203,-5.3203,-5.3203,-5.3203,-5.3203,-5.3203,-5.3203,-5.3203,-5.3203,-5.3203,-5.2601,-5.1793,-5.0912,-5.0141,-4.9334,-4.8379,-4.8306,-4.8306,-4.8306,-4.8306,-4.8306,-4.8306,-4.7957,-4.7205,-4.592,-4.5553,-4.4745,-4.3515,-4.3515,-4.3515,-4.3515,-4.3515,-4.3515,-6.5474,-6.6628,-6.7667,-6.9283,-6.9052,-6.8129,-6.7167,-6.6859,-6.582,-6.2447,-6.2397,-6.2281,-5.9935,-6.2897,-6.6128,-6.7398,-7.1116,-7.5337,-7.9629,-7.9815,-8.0336,-8.25,-8.2954,-8.3079,-8.2928,-8.2792,-8.2697,-8.2649,-8.3178,-8.2818,-8.1185,-8.1862,-8.1939,-8.1131,-8.1093,-8.1093,-8.1093,-8.1093,-8.0669,-7.9785,-7.89,-7.8092,-7.7246,-7.5399,-7.4168,-7.3437,-7.2476,-7.0667,-6.8385,-6.8385,-6.7398,-6.5897,-6.5897,-6.582,-6.5628,-6.4897,-6.3974,-6.2913,-6.1294,-6.0124,-5.923,-5.8326,-5.7997,-5.7997,-5.7997,-5.7997,-5.7997,-5.7997,-5.7997,-5.7997,-5.7997,-5.7997,-5.7813,-5.7152,-5.6895,-5.6249,-5.4276,-5.35,-5.3191,-5.3203,-5.3203,-5.3203,-5.3203,-5.3203,-5.3203,-5.3203,-5.3203,-5.3203,-5.3203,-5.1977,-5.1059,-5.0839,-4.9517,-4.8563,-4.8343,-4.8306,-4.8306,-4.8306,-4.8306,-4.8306,-4.8306,-4.7516,-4.6709,-4.592,-4.5112,-4.4305,-4.3515,-4.3515,-4.3515,-4.3515,-4.3515,-4.3515,-6.6782,-6.7513,-6.8436,-6.9436,-6.9052,-6.8013,-6.6474,-6.5551,-6.4089,-6.0666,-6.0627,-6.0896,-5.9704,-6.2435,-6.6013,-6.9667,-7.2646,-7.6038,-8.0313,-8.1412,-8.1673,-8.1456,-8.2818,-8.3421,-8.2501,-8.2574,-8.2587,-8.2385,-8.1893,-8.1439,-8.1131,-8.1862,-8.1939,-8.1131,-8.1093,-8.1093,-8.1093,-8.1093,-8.0669,-7.9785,-7.89,-7.8092,-7.7207,-7.4822,-7.363,-7.3399,-7.1822,0.0,-6.8385,-6.8385,-6.7398,-6.5897,-6.5897,-6.5474,-6.482,-6.4666,-6.3628,-6.2157,-6.1066,-6.0124,-5.923,-5.8326,-5.7997,-5.7997,-5.7997,-5.7997,-5.7997,-5.7997,-5.7997,-5.7997,-5.7997,-5.7997,-5.796,-5.7813,-5.7299,-5.6859,-5.711,-5.5053,-5.3191,-5.3203,-5.3203,-5.3203,-5.3203,-5.3203,-5.3203,-5.3203,-5.3203,-5.3203,-5.3203,-5.2947,-5.227,-5.0949,-5.0545,-4.9811,-4.8416,-4.8306,-4.8306,-4.8306,-4.8306,-4.8306,-4.8306,-4.7516,-4.6709,-4.592,-4.5112,-4.4305,-4.3515,-4.3515,-4.3515,-4.3515,-4.3515,-4.3515,-6.8975,-6.9706,-7.0475,-7.0898,-6.9706,-6.7731,-6.5128,-6.3897,-6.232,-5.8896,-5.9242,-5.9742,-5.8434,-6.1358,-6.4589,-6.6628,-6.986,-7.3591,-7.7861,-7.9169,-8.0054,-8.0977,-8.189,-8.2241,-8.1724,-8.1774,-8.1817,-8.1685,-8.1323,-8.1093,-8.1093,-8.1477,-8.1516,-8.1093,-8.1093,-8.1093,-8.1093,-8.0669,-7.9977,-7.9092,-7.8284,-7.7438,-7.6553,-7.4437,-7.3514,-7.3399,-7.1206,-6.9552,-6.8359,-6.7898,-6.7013,-6.5859,-6.5397,-6.4974,-6.4474,-6.3628,-6.2781,-6.1951,-6.0806,-5.995,-5.9284,-5.8591,-5.8172,-5.7997,-5.7997,-5.7997,-5.7997,-5.7997,-5.7997,-5.7997,-5.7997,-5.7997,-5.7997,-5.7997,-5.7409,-5.6991,-5.7847,-5.5486,-5.3207,-5.3203,-5.3203,-5.3203,-5.3203,-5.3203,-5.3203,-5.3203,-5.3203,-5.3203,-5.3203,-5.3203,-5.2747,-5.1536,-5.0692,-4.9848,-4.904,-4.8563,-4.8306,-4.8306,-4.8306,-4.8306,-4.8306,-4.7516,-4.6929,-4.6544,-4.5315,-4.4525,-4.4121,-4.3681,-4.3515,-4.3515,-4.3515,-4.3515,-7.0975,-7.1822,-7.2437,-7.2245,-7.0437,-6.7744,-6.4128,-6.2512,-6.087,-5.7445,-5.7934,-5.855,-5.7253,-5.9858,-6.2551,-6.3435,-6.6397,-7.0283,-7.5053,-7.6476,-7.7977,-8.0516,-8.0977,-8.1093,-8.1093,-8.1093,-8.1093,-8.1093,-8.1093,-8.1093,-8.1093,-8.1093,-8.1016,-8.0823,-8.1016,-8.0939,-8.0554,-8.0054,-7.9285,-7.8246,-7.7592,-7.6746,-7.5668,-7.4168,-7.3399,-7.3091,-7.0744,-6.9206,-6.8321,-6.7475,-6.6628,-6.582,-6.4936,-6.4474,-6.4128,-6.2639,-6.1985,-6.1668,-6.0512,-5.9855,-5.9441,-5.8894,-5.8375,-5.7997,-5.7997,-5.7997,-5.7997,-5.7997,-5.7997,-5.7997,-5.7997,-5.7997,-5.796,-5.7776,-5.7409,-5.7161,-5.7582,-5.5508,-5.3478,-5.3219,-5.3203,-5.3203,-5.3203,-5.3203,-5.3203,-5.3203,-5.3203,-5.3203,-5.3203,-5.3203,-5.2968,-5.2307,-5.0802,-4.9794,-4.961,-4.8783,-4.8306,-4.8306,-4.8306,-4.8306,-4.8306,-4.7516,-4.7003,-4.6856,-4.5425,-4.4635,-4.4452,-4.3791,-4.3515,-4.3515,-4.3515,-4.3515,-7.186,-7.2706,-7.3206,-7.2399,-7.086,-6.8475,-6.4269,-6.2089,-5.9935,-5.6511,-5.656,-5.7176,-5.7022,-5.7973,-6.0012,-6.3858,-6.482,-6.7359,-7.3899,-7.5553,-7.7053,-7.9631,-8.0631,-8.1093,-8.1093,-8.1093,-8.1093,-8.1093,-8.1093,-8.1093,-8.1093,-8.1093,-8.0746,-7.9939,-8.0708,-8.0323,-7.8746,-7.9438,-7.9015,-7.74,-7.7323,-7.6438,-7.4784,-7.3899,-7.3091,-7.2206,-7.0475,-6.9206,0.0,-6.7475,-6.6628,-6.582,-6.4936,-6.4128,-6.332,-6.2435,-6.1601,-6.0849,-6.0283,-6.0089,-5.9885,-5.9009,-5.8375,-5.7997,-5.7997,-5.7997,-5.7997,-5.7997,-5.7997,-5.7997,-5.7997,-5.7997,-5.7813,-5.7079,-5.7409,-5.7638,-5.6728,-5.5559,-5.4356,-5.3366,-5.3203,-5.3203,-5.3203,-5.3203,-5.3203,-5.3203,-5.3203,-5.3203,-5.3203,-5.3203,-5.3167,-5.3093,-5.1646,-5.0398,-4.9647,-4.8783,-4.8306,-4.8306,-4.8306,-4.8306,-4.8306,-4.7516,-4.6746,-4.603,-4.5149,-4.4342,-4.3608,-4.3551,-4.3515,-4.3515,-4.3515,-4.3515,-7.1668,-7.3206,-7.4014,-7.3206,-7.0552,-6.7282,-6.4051,-6.1243,-5.8742,-5.6868,-5.6753,-5.6983,-5.6983,-5.728,-5.8242,-6.0435,-6.1204,-6.3358,-6.8667,-7.0129,-7.2168,-7.6245,-7.7053,-7.7861,-7.94,-7.9554,-7.9554,-7.9554,-7.9515,-7.9515,-7.9554,-8.0015,-8.0169,-7.9823,-7.9631,-7.9208,-7.8515,-7.8361,-7.7707,-7.6515,-7.5976,-7.513,-7.3937,-7.2552,-7.1745,-7.1283,-6.909,-6.7936,0.0,-6.6167,-6.5397,-6.4974,-6.3628,-6.2858,-6.2474,-6.1627,-6.1089,-6.0769,-6.0597,-6.0338,-5.9977,-5.9337,-5.8796,-5.8354,-5.8074,-5.7997,-5.7997,-5.7997,-5.7997,-5.7997,-5.7997,-5.7997,-5.7813,-5.7005,-5.7042,-5.7124,-5.6543,-5.5434,-5.4269,-5.3387,-5.3203,-5.3203,-5.3203,-5.3203,-5.3203,-5.3203,-5.3203,-5.3203,-5.3203,-5.3203,-5.3203,-5.3203,-5.1756,-5.0655,-5.0362,-4.9077,-4.8306,-4.8306,-4.8306,-4.8306,-4.8306,-4.7516,-4.7186,-4.7352,-4.6067,-4.5259,-4.4929,-4.4452,-4.3975,-4.3515,-4.3515,-4.3515,-7.0437,-7.2476,-7.3822,-7.3245,-7.0283,-6.6821,-6.4282,-6.1089,-5.8357,-5.7253,-5.6791,-5.6637,-5.6637,-5.683,-5.728,-5.8165,-5.8973,-6.0896,-6.4936,-6.6244,-6.8359,-7.2706,-7.3437,-7.4591,-7.713,-7.8054,-7.84,-7.8169,-7.8361,-7.8284,-7.7784,-7.8323,-7.8669,-7.8669,-7.8092,-7.7515,-7.7015,-7.6707,-7.6092,-7.5245,-7.4399,-7.3514,-7.2668,-7.1206,-7.0398,-7.0014,-6.7744,-6.6744,0.0,-6.4897,-6.4205,-6.4089,-6.2627,-6.2101,-6.1985,-6.1127,-6.0781,-6.0781,-6.0781,-6.0597,-6.0217,-5.9776,-5.9284,-5.8815,-5.8332,-5.8097,-5.7997,-5.7997,-5.7997,-5.7997,-5.7997,-5.7813,-5.7446,-5.6638,-5.6455,-5.6257,-5.5595,-5.4898,-5.4224,-5.3686,-5.354,-5.3634,-5.3876,-5.3708,-5.354,-5.354,-5.3335,-5.3203,-5.3203,-5.3203,-5.3203,-5.3203,-5.1972,-5.1055,-5.0839,-4.9517,-4.8563,-4.8343,-4.8306,-4.8306,-4.8306,-4.7736,-4.759,-4.792,-4.6838,-4.614,-4.5883,-4.5112,-4.4415,-4.3864,-4.3608,-4.3515,-6.7975,-7.0283,-7.2206,-7.2206,-7.0283,-6.7744,-6.5166,-6.1935,-5.9011,-5.733,-5.6329,-5.5703,-5.5703,-5.6406,-5.728,-5.8165,-5.8973,-6.0704,-6.4128,-6.5359,-6.6859,-6.9436,-7.0437,-7.1937,-7.4476,-7.7015,-7.8169,-7.7361,-7.8054,-7.7784,-7.6092,-7.6015,-7.6053,-7.6053,-7.6015,-7.5245,-7.3591,-7.4322,-7.4322,-7.3514,-7.2629,-7.1783,-7.0898,-7.009,-6.9244,-6.8308,-6.6628,-6.5897,0.0,-6.4051,-6.3308,-6.3243,-6.2397,-6.2101,-6.1985,-6.1127,-6.0781,-6.0781,-6.0781,-6.0781,-6.0734,-6.0269,-5.9792,-5.9302,-5.8835,-5.8354,-5.7997,-5.7997,-5.7997,-5.7997,-5.7997,-5.7409,-5.6602,-5.5794,-5.5611,-5.517,-5.3592,-5.3864,-5.4399,-5.4396,-5.4381,-5.4622,-5.5444,-5.4923,-5.4381,-5.4381,-5.3708,-5.3203,-5.3203,-5.3203,-5.3203,-5.3203,-5.2459,-5.169,-5.0855,-5.0031,-4.9243,-4.8343,-4.8306,-4.8306,-4.8306,-4.8306,-4.7939,-4.7113,-4.7113,-4.6709,-4.5883,-4.5112,-4.4691,-4.4654,-4.3864,-4.3515,-6.6051,-6.8129,-6.9321,-6.8167,-6.6397,-6.4397,-6.2435,-6.0281,-5.8357,-5.7253,-5.6791,-5.6406,-5.5818,-5.6406,-5.728,-5.8165,-5.8973,-6.0089,-6.1781,-6.3243,-6.5089,-6.7628,-7.0744,-7.3014,-7.3822,-7.463,-7.4976,-7.4707,-7.4938,-7.4861,-7.4322,-7.3168,-7.3322,-7.5053,-7.4014,-7.3129,-7.2629,-7.2283,-7.1706,-7.0898,-7.0629,-7.0014,-6.9167,-6.8321,-6.7475,-6.6628,-6.5513,-6.4666,-6.4051,-6.2935,-6.2474,-6.2397,-6.155,-6.1204,-6.1166,-6.0896,-6.0781,-6.0781,-6.0781,-6.0781,-6.0734,-6.0231,-5.9991,-5.9744,-5.8951,-5.8354,-5.7997,-5.7997,-5.7997,-5.7997,-5.7997,-5.7409,-5.6602,-5.5794,-5.517,-5.462,-5.4142,-5.4231,-5.4568,-5.5107,-5.4781,-5.4487,-5.4751,-5.4113,-5.3588,-5.3592,-5.3335,-5.3203,-5.3203,-5.3203,-5.3203,-5.3203,-5.2962,-5.2485,-5.1683,-5.0381,-4.95,-4.9206,-4.8636,-4.8306,-4.8306,-4.8306,-4.8196,-4.792,-4.7939,-4.7516,-4.6709,-4.592,-4.4966,-4.3901,-4.4195,-4.4011,-6.3281,-6.5205,-6.6397,-6.6013,-6.4589,-6.2974,-6.1589,-5.9742,-5.805,-5.7176,-5.6753,-5.6329,-5.578,-5.6406,-5.7176,-5.7703,-5.8742,-5.9819,-6.0666,-6.2243,-6.4128,-6.6359,-6.986,-7.2091,-7.2091,-7.2629,-7.3014,-7.3014,-7.2706,-7.2245,-7.1615,-7.0552,-7.0398,-7.136,-7.0975,-7.0783,-7.0783,-7.0244,-6.9552,-6.8706,-6.8706,-6.8282,-6.7436,-6.6898,-6.6205,-6.5359,-6.4474,-6.3628,0.0,-6.1935,-6.1601,-6.1562,-6.1012,-6.0781,-6.0781,-6.0781,-6.0781,-6.0781,-6.0781,-6.0781,-6.0757,-6.0469,-5.9903,-5.9235,-5.8502,-5.8132,-5.7997,-5.7997,-5.7997,-5.7923,-5.7629,-5.6969,-5.6124,-5.5317,-5.4509,-5.4032,-5.4326,-5.4399,-5.4641,-5.5454,-5.5442,-5.519,-5.4905,-5.4436,-5.4005,-5.3723,-5.3371,-5.3203,-5.3203,-5.3203,-5.3203,-5.3203,-5.3203,-5.3004,-5.2491,-5.0986,-4.9941,-4.961,-4.8783,-4.8306,-4.8306,-4.8306,-4.8306,-4.8306,-4.8306,-4.803,-4.7553,-4.6764,-4.5516,-4.3975,-4.4782,-4.4709,0.0,-6.1743,-6.3435,-6.5051,-6.4243,-6.282,-6.2101,-6.005,0.0,-5.7253,-5.6406,-5.578,-5.578,-5.6522,-5.7099,-5.7176,-5.855,-5.9896,-6.0781,-6.2435,-6.4205,-6.5859,-6.8205,-6.9667,-6.9513,-7.0975,-7.1898,-7.1822,-7.1091,-6.9937,-6.8321,-6.8154,-6.7436,-6.5859,-6.7282,-6.809,-6.8129,-6.809,-6.7628,-6.6821,-6.6821,-6.6436,-6.5705,-6.5705,-6.5243,-6.4397,-6.3589,-6.2743,0.0,-6.1127,-6.0781,-6.0781,-6.0781,-6.0781,-6.0781,-6.0781,-6.0781,-6.0781,-6.0781,-6.0781,-6.0781,-6.0742,-5.9616,-5.824,-5.7641,-5.7619,-5.785,-5.7886,-5.7923,-5.7776,-5.7079,-5.6271,-5.55,-5.473,-5.3959,-5.3592,-5.4399,-5.4583,-5.4788,-5.5551,-5.6257,-5.6485,-5.5644,-5.5481,-5.5165,-5.4417,-5.3671,-5.3203,-5.3203,-5.3203,-5.3203,-5.3203,-5.3203,-5.3167,-5.313,-5.1699,-5.0472,-4.9721,-4.882,-4.8306,-4.8306,-4.8306,-4.8306,-4.8306,-4.8306,-4.8269,-4.8233,-4.7443,-4.6324,-4.4819,-4.559,-4.5516,-5.7561,0.0,-6.0473,-6.0896,-6.0704,-6.0358,0.0,-5.9165,-5.8242,-5.805,-5.728,-5.6676,-5.6676,-5.7396,-5.8204,-5.8819,-5.9781,-6.0781,-6.1678,-6.432,-6.659,-6.7667,-6.8936,-6.9167,-6.7821,-6.8667,-6.9013,-6.8359,-6.809,-6.7552,-6.6551,-6.5859,-6.532,-6.4936,-6.4628,-6.482,-6.5474,-6.482,-6.4397,-6.4205,-6.4205,-6.4089,-6.3897,-6.3897,-6.3474,-6.2666,-6.2486,-6.1897,-6.1089,-6.0858,-6.0781,-6.0781,-6.0781,-6.0781,-6.0781,-6.0781,-6.0781,-6.0781,-6.0781,-6.0781,-6.0704,-6.0012,-5.974,-5.9323,-5.7561,-5.6643,-5.6271,-5.6895,-5.7079,-5.7189,-5.7593,-5.7116,-5.6492,-5.6271,-5.5611,-5.5244,-5.6051,-5.6235,-5.6271,-5.6485,-5.6176,-5.5625,-5.4818,-5.4164,-5.3708,-5.3503,-5.3335,-5.3203,-5.3203,-5.3203,-5.3203,-5.3203,-5.3203,-5.2962,-5.2349,-5.136,-5.0705,-5.0545,-4.9114,-4.8306,-4.8306,-4.8306,-4.8306,-4.8306,-4.8306,-4.8012,-4.7369,-4.7187,-4.6581,-4.5625,-4.6452,-4.6067,-5.6753,-5.7934,-5.905,-5.9396,-5.9511,-5.9396,-5.905,-5.8319,-5.7588,-5.7203,-5.6742,-5.6522,-5.6945,-5.7396,-5.7973,-5.8819,-5.9665,-6.0781,-6.2435,-6.4551,-6.6551,-6.8205,-6.8475,-6.8436,-6.8321,-6.8013,-6.7436,-6.659,-6.6167,-6.5436,-6.4205,-6.3705,-6.3281,-6.2858,-6.2397,-6.2743,-6.4012,-6.3538,-6.3128,-6.2743,-6.3128,-6.3128,-6.2743,-6.3128,-6.2858,-6.2101,-6.2101,-6.1601,-6.0781,-6.0781,-6.0781,-6.0781,-6.0781,-6.0781,-6.0781,-6.0781,-6.0781,-6.0781,-6.0781,-6.055,-6.005,-5.9204,-5.8681,-5.8168,-5.7036,-5.6046,-5.5528,-5.6522,-5.6822,-5.6895,-5.7336,-5.7152,-5.6712,-5.6345,-5.5611,-5.528,-5.6088,-5.6235,-5.6124,-5.578,-5.5941,-5.5647,-5.4136,-5.3812,-5.3634,-5.3261,-5.3203,-5.3203,-5.3203,-5.3203,-5.3203,-5.3203,-5.3203,-5.2999,-5.259,-5.1483,-5.0659,-5.0265,-4.9021,-4.8306,-4.8306,-4.8306,-4.8306,-4.8306,-4.8306,-4.7901,-4.7093,-4.748,-4.7224,-4.647,-4.7298,-4.6782,-5.6599,-5.7627,-5.8627,-5.9165,-5.9319,-5.9127,-5.8473,-5.7511,-5.6637,-5.6011,-5.578,-5.6011,-5.7022,-5.7214,-5.7511,-5.8511,-5.9588,-6.1166,-6.3743,-6.482,-6.609,-6.7975,-6.7667,-6.7744,-6.8821,-6.759,-6.6359,-6.5551,-6.4705,-6.3551,-6.1985,-6.1908,-6.1562,-6.0819,-6.0781,-6.1473,-6.2897,-6.2935,-6.2589,-6.1908,-6.2589,-6.2551,-6.1908,-6.2627,-6.2551,-6.1908,0.0,0.0,-6.0781,-6.0781,-6.0781,-6.0781,-6.0781,-6.0781,-6.0781,-6.0781,-6.0781,-6.0781,-6.0666,-6.005,-5.9165,-5.8357,-5.7453,-5.665,-5.6292,-5.5788,-5.549,-5.6445,-5.6779,-5.6822,-5.6969,-5.6969,-5.6785,-5.5978,-5.5244,-5.4913,-5.5464,-5.5596,-5.5354,-5.4546,-5.5499,-5.5727,-5.3576,-5.3766,-5.4007,-5.3298,-5.3203,-5.3203,-5.3203,-5.3203,-5.3203,-5.3203,-5.3203,-5.313,-5.3036,-5.1768,-5.0628,-4.9821,-4.8854,-4.8306,-4.8306,-4.8306,-4.8306,-4.8306,-4.8306,-4.7974,-4.7292,-4.7974,-4.794,-4.7279,-4.7977,-4.7513,-5.5857,-5.755,-5.9165,-5.8627,-5.8473,-5.8473,-5.8319,-5.7049,-5.6049,-5.6676,-5.6214,-5.6203,-5.7819,-5.8088,-5.8627,-6.0165,-6.232,-6.4705,-6.7269,-6.8359,-6.8513,-6.7436,-6.7821,-6.7475,-6.559,-6.5128,-6.4628,-6.3782,-6.2935,-6.2062,-6.105,-6.1012,-6.0935,-6.0781,-6.0781,-6.0935,-6.1166,-6.1166,-6.1127,-6.1012,-6.1127,-6.1127,-6.1012,-6.1127,-6.1127,-6.1012,0.0,-6.0935,-6.0781,-6.0781,-6.0781,-6.0781,-6.0781,-6.0781,-6.0781,-6.0781,-6.0781,-6.0704,-5.9973,-5.9165,-5.8357,-5.7473,-5.7566,-5.7666,-5.5861,-5.5898,-5.6564,-5.6347,-5.6546,-5.6969,-5.7629,-5.7813,-5.7593,-5.6822,-5.6528,-5.6271,-5.5721,-5.5596,-5.5354,-5.4546,-5.4604,-5.4421,-5.3371,-5.3298,-5.3335,-5.3225,-5.3203,-5.3203,-5.3203,-5.3203,-5.3203,-5.3203,-5.3203,-5.2926,-5.2254,-5.1946,-5.1474,-5.0672,-4.9167,-4.8306,-4.8306,-4.8306,-4.8306,-4.8306,-4.8306,-4.825,-4.814,-4.825,-4.8233,-4.8105,-4.8233,-4.7808,-5.4357,-5.5857,-5.7357,-5.6973,-5.828,-5.9511,-5.905,-5.7973,-5.7088,-5.7022,-5.6676,-5.678,-5.8088,-5.905,-6.0512,-6.3128,-6.4897,-6.6205,-6.6936,-6.6974,-6.6974,-6.709,-6.6667,-6.609,-6.5359,-6.4897,-6.4051,-6.2743,-6.2332,-6.1716,-6.0858,-6.0781,-6.0781,-6.0781,-6.0319,-6.0089,-6.0089,-5.9665,-5.9896,-6.0781,-6.0781,-6.0781,-6.0781,-6.0781,-6.0781,-6.0781,0.0,-6.0781,-6.0781,-6.0781,-6.0781,-6.0742,-6.0281,-6.0089,-6.005,-5.9627,-5.9435,-5.9396,-5.8973,-5.8319,-5.7511,-5.7137,-5.6934,-5.6686,-5.5441,-5.5928,-5.6801,-5.635,-5.6499,-5.6895,-5.7262,-5.7336,-5.7152,-5.6345,-5.5831,-5.539,-5.5023,-5.495,-5.4693,-5.3922,-5.4106,-5.4142,-5.3314,-5.3203,-5.3203,-5.3203,-5.3203,-5.3371,-5.3812,-5.3849,-5.3849,-5.3849,-5.3855,-5.3503,-5.2721,-5.2254,-5.149,-5.0237,-4.9448,-4.8804,-4.8306,-4.8306,-4.8306,-4.8306,-4.8306,-4.8306,-4.8306,-4.8306,-4.8306,-4.8306,-4.8306,-4.7882,-5.3203,-5.4587,-5.5895,-5.5511,-5.7665,-5.9819,-5.955,-5.9011,-5.8434,-5.7984,-5.7907,-5.8099,-5.8781,-6.0242,-6.2397,-6.5397,-6.659,-6.7013,-6.6821,-6.6051,-6.582,-6.6705,-6.5705,-6.5013,-6.5282,-6.4512,-6.3474,-6.2216,-6.1716,-6.1204,-6.0512,-6.0319,-6.0204,-6.0204,-5.9588,-5.9204,-5.9204,-5.8627,-5.8934,-6.0204,-6.0204,-6.0319,-6.0512,-6.0512,-6.0589,-6.0781,-6.0781,-6.0666,-6.0512,-6.0704,-6.055,-6.0165,-5.9704,-5.9396,-5.9127,-5.855,-5.8165,-5.8011,-5.8011,-5.7434,-5.6714,-5.6714,-5.6252,-5.561,-5.5212,-5.5799,-5.6521,-5.6052,-5.6203,-5.6565,-5.6748,-5.6675,-5.6308,-5.55,-5.484,-5.4363,-5.4179,-5.4106,-5.3959,-5.3314,-5.3702,-5.3922,-5.3314,-5.3203,-5.3203,-5.3203,-5.3203,-5.3482,-5.4289,-5.4399,-5.4399,-5.4399,-5.439,-5.406,-5.3261,-5.2627,-5.1658,-5.024,-4.9801,-4.921,-4.8343,-4.8306,-4.8306,-4.8306,-4.8306,-4.8306,-4.8306,-4.8306,-4.8306,-4.8306,-4.8306,-4.7974,-5.3203,-5.5011,-5.6522,-5.4972,-5.5934,-5.7676,-5.9165,-5.9473,-5.9627,-6.0358,-6.0512,-6.055,-6.0589,-6.1973,-6.3743,-6.559,-6.659,-6.7628,-6.9206,-6.8667,-6.759,-6.6167,-6.5859,-6.5205,-6.3628,-6.2743,-6.2216,-6.2101,-6.0589,-5.9665,-5.9588,-5.8896,-5.8473,-5.8473,-5.8434,-5.8396,-5.8396,-5.8319,-5.8357,-5.8473,-5.8473,-5.8858,-5.9588,-5.9588,-6.0012,-6.0781,-6.0781,-6.0319,-5.9665,-6.0473,-5.9896,-5.855,-5.9242,-5.905,-5.8396,-5.8319,-5.778,-5.7099,-5.7099,-5.6522,-5.578,-5.578,-5.5742,-5.561,-5.5212,-5.5397,-5.5689,-5.523,-5.5373,-5.5868,-5.6602,-5.6235,-5.5464,-5.4693,-5.4436,-5.4216,-5.3445,-5.3277,-5.3298,-5.3203,-5.324,-5.3298,-5.3203,-5.3203,-5.3203,-5.3203,-5.3203,-5.3482,-5.4289,-5.4399,-5.4399,-5.4399,-5.4399,-5.4069,-5.3298,-5.313,-5.2747,-5.1887,-5.0424,-4.921,-4.8343,-4.8306,-4.8306,-4.8306,-4.8306,-4.8306,-4.8306,-4.8306,-4.8306,-4.8306,-4.8306,-4.825,-5.1664,-5.351,-5.528,-5.4664,-5.5742,-5.7599,-5.9781,-6.0742,-6.1204,-6.1562,-6.2012,-6.2358,-6.2358,-6.3743,-6.5282,-6.6436,-6.7359,-6.7936,-6.8052,-6.6898,-6.582,-6.5166,-6.4628,-6.382,-6.2666,-6.1781,-6.105,-6.0512,-5.9396,-5.8742,-5.8742,-5.8473,-5.8319,-5.8319,-5.778,-5.7473,-5.7473,-5.6934,-5.6665,-5.6703,-5.778,-5.8473,-5.8742,-5.8742,-5.8934,-5.9242,-5.9242,-5.905,-5.8781,-5.9127,-5.8858,-5.828,-5.805,-5.7434,-5.6665,-5.6665,-5.6472,-5.6291,-5.683,-5.6445,-5.578,-5.6329,-5.6126,-5.561,-5.5212,-5.5738,-5.635,-5.5865,-5.5669,-5.5537,-5.5354,-5.5097,-5.4656,-5.3849,-5.3665,-5.3592,-5.3298,-5.3203,-5.3203,-5.3203,-5.3203,-5.3203,-5.3203,-5.3203,-5.3203,-5.3203,-5.3203,-5.3482,-5.4289,-5.4399,-5.4399,-5.4399,-5.3959,-5.3555,-5.3203,-5.3203,-5.2858,-5.205,-5.0952,-4.9961,-4.9114,-4.86,-4.8306,-4.8306,-4.8306,-4.8306,-4.8306,-4.8306,-4.8306,-4.8306,-4.8306,-4.8563,-5.1087,-5.2549,-5.4087,-5.4087,-5.5357,-5.733,-6.0165,-6.1666,-6.2704,-6.3524,-6.3705,-6.3628,-6.3346,-6.4512,-6.5667,-6.6205,-6.7051,-6.7398,-6.6821,-6.5243,-6.4089,-6.382,-6.3051,-6.2204,-6.1358,-6.0512,-5.9742,-5.9165,-5.8357,-5.7896,-5.7896,-5.7627,-5.7473,-5.7473,-5.6896,-5.6599,-5.6599,-5.6011,-5.5703,-5.5703,-5.6896,-5.7627,-5.7896,-5.7896,-5.805,-5.8319,-5.8319,-5.8127,-5.7896,-5.8204,-5.8127,-5.778,-5.6934,-5.6252,-5.5703,-5.5703,-5.5703,-5.578,-5.6368,-5.6214,-5.578,-5.6406,-5.6214,-5.561,-5.5212,-5.5674,-5.6215,-5.5622,-5.5235,-5.4891,-5.4185,-5.4032,-5.3885,-5.3335,-5.3203,-5.3203,-5.3203,-5.3203,-5.3203,-5.3203,-5.3203,-5.3203,-5.3203,-5.3203,-5.3203,-5.3203,-5.3203,-5.3482,-5.4289,-5.4399,-5.4399,-5.4399,-5.3702,-5.3203,-5.3203,-5.3203,-5.2968,-5.2417,-5.161,-5.0692,-4.9647,-4.9003,-4.86,-4.8306,-4.8306,-4.8306,-4.8306,-4.8306,-4.8453,-4.871,-4.871,-4.915,-5.1885,-5.2538,-5.3203,-5.3203,-5.4472,-5.6626,-6.0012,-6.2089,-6.4012,-6.6551,-6.5743,-6.432,-6.3474,-6.4012,-6.4589,-6.4589,-6.5282,-6.5859,-6.5859,-6.4359,-6.2974,-6.2178,-6.132,-6.0435,-5.9588,-5.8781,-5.828,-5.828,-5.7473,-5.6983,-5.6983,-5.6137,-5.5665,-5.5703,-5.5703,-5.5703,-5.5703,-5.5703,-5.5703,-5.5703,-5.5703,-5.6126,-5.6983,-5.6983,-5.7473,-5.828,-5.828,-5.778,-5.706,-5.7934,-5.778,-5.6907,-5.6049,-5.5703,-5.5703,-5.5703,-5.5703,-5.5703,-5.5703,-5.5703,-5.5703,-5.5703,-5.5703,-5.561,-5.5224,-5.5107,-5.4919,-5.4066,-5.3833,-5.372,-5.3334,-5.3225,-5.3188,-5.3203,-5.3203,-5.3203,-5.3203,-5.3203,-5.3203,-5.3203,-5.3203,-5.3203,-5.3203,-5.3203,-5.3203,-5.3203,-5.3203,-5.3482,-5.4289,-5.4399,-5.4399,-5.4399,-5.3702,-5.3203,-5.3203,-5.3203,-5.3203,-5.3203,-5.2454,-5.1279,-4.9684,-4.961,-4.9187,-4.8343,-4.8306,-4.8306,-4.8306,-4.8306,-4.8746,-4.961,-4.961,-5.0051,-5.1202,-5.2125,-5.3356,-5.3972,-5.5857,-5.8242,-6.105,-6.2089,-6.3166,-6.5743,-6.4897,-6.3628,-6.3346,-6.3512,-6.3512,-6.2935,-6.3063,-6.3217,-6.3217,-6.2243,-6.1243,-6.0358,-6.005,-5.955,-5.8742,-5.7896,-5.7396,-5.7396,-5.6049,-5.5241,-5.5241,-5.4434,-5.4203,-5.4857,-5.4857,-5.5126,-5.5703,-5.5703,-5.5703,-5.5703,-5.5703,-5.5818,-5.6088,-5.6088,-5.6242,-5.6472,-5.6472,-5.6319,-5.6088,-5.6357,-5.6319,-5.6049,-5.578,-5.5703,-5.5703,-5.5703,-5.5703,-5.5703,-5.5703,-5.5703,-5.5703,-5.5703,-5.5703,-5.5692,-5.5566,-5.5721,-5.5878,-5.5624,-5.5346,-5.5033,-5.4576,-5.4051,-5.3546,-5.3272,-5.3203,-5.3203,-5.3203,-5.3203,-5.3203,-5.3203,-5.3203,-5.3203,-5.3203,-5.3203,-5.3203,-5.3203,-5.3203,-5.3277,-5.3555,-5.3555,-5.3555,-5.3555,-5.3314,-5.3203,-5.3203,-5.3203,-5.3203,-5.3203,-5.3004,-5.238,-5.1336,-5.0729,-5.0068,-4.9224,-4.9206,-4.9206,-4.9206,-4.9206,-4.9627,-5.0435,-5.0435,-5.0875,-5.1741,-5.2664,-5.401,-5.5203,-5.6896,-5.8896,-6.1089,-6.287,-6.4628,-6.6513,-6.5243,-6.382,-6.382,-6.3281,-6.2666,-6.2178,-6.2101,-6.2101,-6.2101,-6.105,-6.0089,-5.955,-5.8896,-5.8319,-5.7819,-5.7011,-5.6483,-5.6483,-5.5241,-5.4626,-5.4972,-5.3857,-5.3741,-5.4934,-5.4318,-5.4549,-5.5703,-5.5395,-5.5395,-5.5703,-5.5703,-5.5703,-5.5703,-5.5703,-5.5703,-5.5665,-5.5357,-5.5395,-5.5665,-5.5357,-5.5395,-5.5703,-5.5703,-5.5703,-5.5703,-5.5703,-5.5703,-5.5703,-5.5703,-5.5703,-5.5703,-5.5703,-5.5703,-5.5703,-5.5703,-5.5877,-5.604,-5.5859,-5.5651,-5.5344,-5.49,-5.4297,-5.3702,-5.3314,-5.3203,-5.3203,-5.3203,-5.3203,-5.3203,-5.3203,-5.3203,-5.3203,-5.3203,-5.3203,-5.3203,-5.3203,-5.3203,-5.3203,-5.3203,-5.3203,-5.3203,-5.3203,-5.3203,-5.3203,-5.3203,-5.3203,-5.3203,-5.3203,-5.3203,-5.3004,-5.2491,-5.1683,-5.0729,-4.961,-4.9904,-4.9941,-4.961,-4.9941,-5.0472,-5.1279,-5.1279,-5.172,-5.2972,-5.378,-5.4818,-5.6676,-5.7896,-5.905,-6.0666,-6.4012,-6.6974,-6.7667,-6.6051,-6.4474,-6.4397,-6.3128,-6.2062,-6.1985,-6.1908,-6.187,-6.187,-6.0435,-5.9358,-5.9281,-5.7934,-5.6983,-5.6907,-5.6165,-5.5665,-5.5588,-5.4857,-5.4664,-5.5318,-5.3857,-5.3703,-5.528,-5.3895,-5.3857,-5.5472,-5.4741,-5.4741,-5.5472,-5.5472,-5.5511,-5.5588,-5.5665,-5.5703,-5.5665,-5.4934,-5.5011,-5.5626,-5.4895,-5.5011,-5.5588,-5.5588,-5.5588,-5.5588,-5.5511,-5.5549,-5.5703,-5.5626,-5.5626,-5.5703,-5.5703,-5.5703,-5.5703,-5.5703,-5.5703,-5.561,-5.525,-5.516,-5.5067,-5.4609,-5.4187,-5.3758,-5.3314,-5.3203,-5.3203,-5.3203,-5.3203,-5.3203,-5.3203,-5.3203,-5.3203,-5.3203,-5.3203,-5.3203,-5.3203,-5.3203,-5.3203,-5.3203,-5.3203,-5.3203,-5.3203,-5.3203,-5.3203,-5.3203,-5.3203,-5.3203,-5.3203,-5.3203,-5.3203,-5.3203,-5.2491,-5.141,-4.9867,-5.0545,-5.0545,-4.9831,-5.0545,-5.1316,-5.2087,-5.2087,-5.2491,-5.2972,-5.3356,-5.4203,-5.7242,-5.9665,-6.155,-6.2551,-6.3474,-6.3974,-6.3551,-6.3512,-6.3397,-6.2743,-6.2332,-6.187,-6.1166,-6.0512,-6.005,-6.005,-5.9204,-5.8319,-5.7627,-5.7214,-5.6714,-5.6049,-5.5818,-5.5434,-5.4818,-5.3972,-5.328,-5.2731,-5.1779,-5.1702,-5.2692,-5.2385,-5.2692,-5.3741,-5.3587,-5.3587,0.0,-5.3741,-5.4087,-5.478,-5.5395,-5.5703,-5.5703,-5.5511,-5.5549,-5.5703,-5.5511,-5.5164,-5.4741,-5.4741,-5.4741,-5.4664,-5.3972,-5.4587,-5.5588,-5.4972,-5.5164,-5.5703,-5.5703,-5.5703,-5.5703,-5.5703,-5.5703,-5.5692,-5.5588,-5.5577,-5.5411,-5.4686,-5.442,-5.4173,-5.338,-5.3203,-5.3203,-5.3203,-5.3203,-5.3203,-5.3203,-5.3203,-5.3203,-5.3203,-5.3203,-5.3203,-5.3203,-5.3203,-5.3203,-5.3203,-5.3203,-5.3203,-5.3203,-5.3203,-5.3203,-5.3203,-5.3203,-5.3203,-5.3203,-5.3203,-5.3203,-5.3203,-5.3041,-5.2491,-5.152,-5.1646,-5.1646,-5.1463,-5.1646,-5.216,-5.2931,-5.2931,-5.3041,-5.1895,-5.3164,-5.5203,-5.8627,-6.0819,-6.2101,-6.2089,-6.2435,-6.2358,-6.1089,-6.1858,-6.2589,-6.2178,-6.1755,-6.1166,-6.0319,-5.9819,-5.9358,-5.8973,-5.8204,-5.7511,-5.706,-5.6637,-5.6214,-5.5742,-5.5357,-5.4934,-5.4511,-5.3318,-5.2538,-5.25,-5.1356,-5.1241,-5.2462,-5.1741,-5.1933,-5.3203,-5.2779,-5.2779,-5.3203,-5.3203,-5.3664,-5.4511,-5.5318,-5.5703,-5.5665,-5.528,-5.5318,-5.5665,-5.528,-5.5126,-5.5049,-5.4664,-5.4741,-5.4934,-5.3664,-5.4241,-5.5588,-5.478,-5.5011,-5.5703,-5.5703,-5.5703,-5.5703,-5.5703,-5.5703,-5.5703,-5.5703,-5.5703,-5.5566,-5.4933,-5.4337,-5.3795,-5.3532,-5.3339,-5.3203,-5.3203,-5.3203,-5.3203,-5.3203,-5.3203,-5.3203,-5.3203,-5.3203,-5.3203,-5.3203,-5.3203,-5.3203,-5.3203,-5.3203,-5.3203,-5.3203,-5.3203,-5.3203,-5.3203,-5.3203,-5.3203,-5.3203,-5.3203,-5.3203,-5.3203,-5.3203,-5.2821,-5.2013,-5.238,-5.238,-5.1977,-5.238,-5.2784,-5.3203,-5.3203,-5.3203,-5.0635,-5.3251,-5.6626,-5.9627,-6.1127,-6.1678,-6.0973,-6.1358,-6.1396,-5.9819,-6.0666,-6.1601,-6.1485,-6.0973,-6.0281,-5.9435,-5.9281,-5.9011,-5.8204,-5.7319,-5.6791,-5.6791,-5.6126,-5.5703,-5.5703,-5.5088,-5.4587,-5.428,-5.2933,-5.2308,-5.2741,-5.1318,-5.1125,-5.251,-5.1048,-5.0971,-5.2549,-5.1808,-5.1933,-5.2779,-5.2895,-5.3356,-5.4087,-5.4895,-5.5357,-5.5434,-5.4626,-5.4664,-5.5241,-5.4703,-5.478,-5.5203,-5.4703,-5.4818,-5.5088,-5.3549,-5.3933,-5.5164,-5.4511,-5.4818,-5.5511,-5.5665,-5.5703,-5.5703,-5.5703,-5.5703,-5.5703,-5.5703,-5.5703,-5.5599,-5.5199,-5.4273,-5.3483,-5.3756,-5.3504,-5.3203,-5.3203,-5.3203,-5.3203,-5.3203,-5.3203,-5.3203,-5.3203,-5.3203,-5.3203,-5.3203,-5.3203,-5.3203,-5.3203,-5.3203,-5.3203,-5.3203,-5.3203,-5.3203,-5.3203,-5.3203,-5.3203,-5.3203,-5.3203,-5.3203,-5.3203,-5.3203,-5.2894,-5.2197,-5.2858,-5.2858,-5.2197,-5.2894,-5.3203,-5.3203,-5.3203,-5.3203,-5.0289,-5.3713,-5.7137,-5.8319,-5.9819,-6.0935,-6.0819,-6.0896,-6.0704,-5.9704,-5.9704,-5.9627,-5.8934,-5.9281,-5.9396,-5.8588,-5.8473,-5.8165,-5.728,-5.6395,-5.5857,-5.5857,-5.578,-5.5703,-5.5703,-5.5588,-5.4934,-5.3472,-5.3164,-5.2433,-5.1097,-5.0125,-4.9663,-4.9894,-4.8971,-4.8933,-4.9894,-4.9779,-5.0164,-5.1058,-5.1741,-5.2115,-5.2269,-5.3126,-5.3933,-5.4626,-5.3741,-5.3433,-5.3587,-5.4241,-5.4126,-5.3587,-5.4241,-5.4087,-5.3433,-5.2423,-5.2692,-5.351,-5.3395,-5.3933,-5.478,-5.5472,-5.5703,-5.5703,-5.5703,-5.5703,-5.5703,-5.5703,-5.5703,-5.5599,-5.5199,-5.4714,-5.422,-5.3868,-5.3504,-5.3203,-5.3203,-5.3203,-5.3203,-5.3203,-5.3203,-5.3203,-5.3203,-5.3203,-5.3203,-5.3203,-5.3203,-5.3203,-5.3203,-5.3203,-5.3203,-5.3203,-5.3203,-5.3203,-5.3203,-5.3203,-5.3203,-5.3203,-5.3203,-5.3203,-5.3203,-5.3203,-5.313,-5.3041,-5.313,-5.313,-5.3041,-5.313,-5.3203,-5.3203,-5.3203,-5.3203,-5.1356,-5.3472,-5.5511,-5.828,-5.9204,-5.9665,-6.0589,-6.0435,-5.9819,-5.9011,-5.8434,-5.8127,-5.828,-5.8588,-5.855,-5.7703,-5.755,-5.728,-5.6406,-5.5934,-5.5703,-5.5703,-5.5703,-5.5703,-5.5703,-5.4857,-5.3972,-5.328,-5.2318,-5.1471,-5.075,-4.9856,-4.9394,-4.9394,-4.8548,-4.8279,-4.8663,-4.9163,-4.9817,-5.0712,-5.151,-5.1885,-5.1923,-5.2308,-5.2972,-5.3741,-5.3356,-5.3203,-5.3241,-5.3626,-5.3549,-5.3241,-5.3626,-5.3857,-5.378,-5.2385,-5.2779,-5.378,-5.2818,-5.3049,-5.3818,-5.4164,-5.4626,-5.4934,-5.4434,-5.4972,-5.5588,-5.5164,-5.5357,-5.5599,-5.5199,-5.4618,-5.4118,-5.3865,-5.3329,-5.2929,-5.3141,-5.3203,-5.3203,-5.3203,-5.3203,-5.3203,-5.3203,-5.3203,-5.3203,-5.3203,-5.3203,-5.3203,-5.3203,-5.3203,-5.3203,-5.3203,-5.3203,-5.3203,-5.3203,-5.3203,-5.3203,-5.3203,-5.3203,-5.3203,-5.3203,-5.3203,-5.3203,-5.3203,-5.3203,-5.3203,-5.3203,-5.3203,-5.3203,-5.3203,-5.3203,-5.3203,-5.0856,-5.2087,-5.3356,-5.6742,-5.778,-5.8319,-5.955,-5.9511,-5.8973,-5.8127,-5.7434,-5.7137,-5.755,-5.7819,-5.7665,-5.683,-5.6868,-5.6714,-5.5818,-5.5703,-5.5703,-5.5703,-5.5703,-5.5703,-5.5703,-5.4395,-5.3433,-5.3241,-5.1856,-5.0933,-5.0712,-4.9663,-4.9163,-4.9394,-4.8125,-4.7663,-4.8086,-4.8971,-4.974,-5.0366,-5.1202,-5.1587,-5.1587,-5.1587,-5.1972,-5.2549,-5.2549,-5.2549,-5.2587,-5.2779,-5.301,-5.3241,-5.3433,-5.3933,-5.4318,-5.2779,-5.2933,-5.3664,-5.2346,-5.2462,-5.3203,-5.3203,-5.3933,-5.4664,-5.378,-5.4549,-5.5549,-5.4972,-5.5088,-5.5391,-5.5274,-5.4575,-5.3919,-5.4096,-5.3596,-5.3124,-5.3187,-5.3203,-5.3203,-5.3203,-5.3203,-5.3203,-5.3203,-5.3203,-5.3203,-5.3203,-5.3203,-5.3203,-5.3203,-5.3203,-5.3203,-5.3203,-5.3203,-5.3203,-5.3203,-5.3203,-5.3203,-5.3203,-5.3203,-5.3203,-5.3203,-5.3203,-5.3203,-5.3203,-5.3203,-5.3203,-5.3203,-5.3203,-5.3203,-5.3203,-5.3203,-5.3203,-4.6971,-4.8971,-5.1048,-5.2038,-5.4703,-5.7099,-5.7176,-5.778,-5.8127,-5.7253,-5.7022,-5.6753,-5.5972,-5.6522,-5.6791,-5.5895,-5.6483,-5.6714,-5.5818,-5.5703,-5.5703,-5.5703,-5.5703,-5.5703,-5.5703,-5.4934,-5.4087,-5.328,-5.2346,-5.151,-5.075,-4.9086,-4.8548,-4.9356,-4.7018,-4.6471,-4.8086,-4.8971,-4.9433,-4.9471,-5.0356,-5.075,-5.075,-5.075,-5.0789,-5.0827,-5.0827,-5.0827,-5.0904,-5.1664,-5.2462,-5.328,-5.4126,-5.4472,-5.4395,-5.3472,-5.2654,-5.2,-5.1923,-5.2462,-5.3203,-5.3203,-5.4318,-5.5472,-5.4664,-5.5011,-5.5703,-5.5665,-5.5126,-5.4741,-5.55,-5.4736,-5.4013,-5.4825,-5.4708,-5.4183,-5.338,-5.3203,-5.3203,-5.3203,-5.3203,-5.3203,-5.3203,-5.3203,-5.3203,-5.3203,-5.3203,-5.3203,-5.3203,-5.3203,-5.3203,-5.3203,-5.3203,-5.3203,-5.3203,-5.3203,-5.3203,-5.3203,-5.3203,-5.3203,-5.3203,-5.3203,-5.3203,-5.3203,-5.3203,-5.3203,-5.3203,-5.3203,-5.3203,-5.3203,-5.3203,-5.3203,-4.7586,-4.8355,-4.9625,-5.2125,-5.3664,-5.4972,-5.6637,-5.7253,-5.7357,-5.706,-5.656,-5.6049,-5.5742,-5.5972,-5.6049,-5.5742,-5.5972,-5.6049,-5.5742,-5.5703,-5.5703,-5.5703,-5.5703,-5.5703,-5.5703,-5.4472,-5.3549,-5.3241,-5.1895,-5.101,-5.0712,-4.9048,-4.824,-4.8548,-4.7163,-4.6971,-4.8086,-4.8394,-4.8856,-4.9394,-5.0289,-5.0712,-5.0712,-5.0712,-5.0712,-5.0712,-5.0712,-5.0712,-5.0712,-5.101,-5.1318,-5.1741,-5.3126,-5.3664,-5.3703,-5.3933,-5.3472,-5.2654,-5.2077,-5.2115,-5.2269,-5.1741,-5.3126,-5.4664,-5.328,-5.4164,-5.5472,-5.4395,-5.4664,-5.5203,-5.4972,-5.4973,-5.5028,-5.5084,-5.479,-5.4404,-5.4103,-5.3602,-5.3203,-5.3203,-5.3203,-5.3203,-5.3203,-5.3203,-5.3203,-5.3203,-5.3203,-5.3203,-5.3203,-5.3203,-5.3203,-5.3203,-5.3203,-5.3203,-5.3203,-5.3203,-5.3203,-5.3203,-5.3203,-5.3203,-5.3203,-5.3203,-5.3203,-5.3203,-5.3702,-5.3739,-5.3203,-5.3203,-5.3203,-5.3203,-5.3203,-5.3203,-4.7278,-4.7471,-4.8394,-5.1241,-5.2125,-5.2933,-5.5203,-5.5703,-5.5818,-5.6099,-5.5703,-5.5395,-5.5665,-5.5703,-5.5703,-5.5703,-5.5703,-5.5703,-5.5703,-5.5703,-5.5703,-5.5703,-5.5703,-5.5703,-5.5703,-5.4164,-5.3203,-5.3203,-5.1664,0.0,-5.0712,-4.9048,-4.7855,-4.7278,-4.7048,-4.7009,-4.7278,-4.7817,-4.8279,-4.8586,-5.001,-5.0558,-5.0289,-5.0558,-5.0712,-5.0712,-5.0712,-5.0712,-5.0712,-5.0712,-5.0856,-5.1241,-5.2664,-5.3203,-5.3318,-5.4164,-5.378,-5.2692,-5.2115,-5.2077,-5.2192,-5.1356,-5.2818,-5.4626,-5.3203,-5.4126,-5.5472,-5.4357,-5.4664,-5.5241,-5.4972,-5.528,-5.5621,-5.5375,-5.4974,-5.4701,-5.4701,-5.4033,-5.342,-5.342,-5.3314,-5.3203,-5.3203,-5.3203,-5.3203,-5.3203,-5.3203,-5.3203,-5.3203,-5.3203,-5.3203,-5.3203,-5.3203,-5.3203,-5.3203,-5.3203,-5.3203,-5.3203,-5.3203,-5.3203,-5.3203,-5.3203,-5.3203,-5.3203,-5.3739,-5.3885,-5.3592,-5.3592,-5.3482,-5.3203,-5.3203,-5.3203,0.0,0.0,0.0,-4.8894,-4.9971,-5.1048,-5.2741,-5.3126,-5.3395,-5.428,-5.4472,-5.4703,-5.5511,-5.5665,-5.5703,-5.5703,-5.5703,-5.5703,-5.5703,-5.5703,-5.5703,-5.5703,-5.5703,-5.5703,-5.5703,-5.4164,-5.3203,-5.3203,-5.1664,-5.0712,-5.0673,-4.9009,-4.7317,-4.571,-4.6432,-4.6471,-4.5633,-4.724,-4.7663,-4.6923,-4.9471,-5.0212,-4.9394,-5.0289,-5.0712,-5.0673,-5.0712,-5.0712,-5.0712,-5.0712,-5.1164,-5.1962,-5.2818,-5.3164,-5.328,-5.4164,-5.3395,-5.1885,-5.1923,-5.2462,-5.301,-5.2154,-5.3587,-5.5511,-5.4703,-5.5049,-5.5703,-5.5665,-5.5126,-5.4703,-5.5511,-5.5703,-5.5703,-5.5703,-5.5399,-5.5121,-5.5121,-5.443,-5.3814,-5.3795,-5.3484,-5.3188,-5.3225,-5.3203,-5.3203,-5.3203,-5.3203,-5.3203,-5.3203,-5.3203,-5.3203,-5.3203,-5.3203,-5.3203,-5.3203,-5.3203,-5.3203,-5.3203,-5.3203,-5.3203,-5.3203,-5.3203,-5.3203,-5.3203,-5.324,-5.3665,-5.4399,-5.4399,-5.3995,-5.3298,-5.324,-5.3261,-4.5594,0.0,0.0,0.0,0.0,0.0,-5.101,-5.1395,-5.1779,-5.328,-5.3549,-5.3818,-5.4664,-5.5318,-5.5703,-5.5703,-5.5703,-5.5703,-5.5703,-5.5703,-5.5703,-5.5703,-5.5703,-5.5703,-5.5703,-5.4164,-5.3203,0.0,-5.1664,-5.0442,-4.9779,-4.8163,-4.7009,-4.6547,-4.6163,-4.6163,-4.6547,-4.7009,-4.7115,-4.6923,-4.8856,-4.9317,-4.8509,-5.001,-5.0366,-4.9779,-5.0442,-5.0712,-5.0712,-5.0712,-5.0827,-5.1125,-5.1933,-5.2269,-5.2423,-5.3933,-5.3395,-5.2,-5.2615,-5.2577,-5.2115,-5.1318,-5.2741,-5.4664,-5.3818,-5.4549,-5.5588,-5.5011,-5.5088,-5.5434,-5.5626,-5.5703,-5.5703,-5.5703,-5.561,-5.5543,-5.5543,-5.5134,-5.4541,-5.3923,-5.3702,-5.3526,-5.3251,-5.3203,-5.3203,-5.3203,-5.3203,-5.3203,-5.3203,-5.3203,-5.3203,-5.3203,-5.3203,-5.3203,-5.3203,-5.3203,-5.3203,-5.3203,-5.3203,-5.3203,-5.3203,-5.3203,-5.3203,-5.3203,-5.4326,-5.4766,-5.4399,-5.4399,-5.4583,-5.4913,-5.4326,-5.4069,-4.571,-4.5594,-4.5902,-4.7086,0.0,0.0,-4.9779,-4.9894,-5.001,-5.1356,-5.1625,-5.1972,-5.3203,-5.3818,-5.4357,-5.5088,-5.5203,-5.5318,-5.5665,-5.5703,-5.5703,-5.5703,-5.5703,-5.5703,-5.5703,-5.4164,-5.3203,-5.3203,-5.1664,-5.0164,-4.8933,-4.7625,-4.674,-4.6355,-4.5855,-4.5825,-4.6355,-4.674,-4.674,-4.6394,-4.8048,-4.8586,-4.8163,-4.951,-5.0087,-4.9971,-5.0481,-5.0712,-5.0712,-5.0712,-5.0712,-5.0789,-5.1587,-5.1692,-5.1625,-5.3318,-5.2856,-5.151,-5.2356,-5.2308,-5.1808,-5.1356,-5.2702,-5.4395,-5.3895,-5.4664,-5.5588,-5.5126,-5.5318,-5.5703,-5.5703,-5.5703,-5.5703,-5.5703,-5.5703,-5.5703,-5.5703,-5.5531,-5.516,-5.4462,-5.4066,-5.372,-5.3504,-5.3297,-5.3203,-5.3203,-5.3203,-5.3203,-5.3203,-5.3203,-5.3203,-5.3203,-5.3203,-5.3314,-5.3665,-5.3408,-5.3482,-5.4179,-5.3885,-5.3849,-5.4179,-5.4216,-5.4216,-5.4216,-5.5097,-5.5537,-5.539,-5.539,-5.5464,-5.5574,-5.5097,-5.4913,-4.5825,-4.5594,-4.5979,-4.7432,-4.7355,0.0,-4.8779,-4.8509,-4.8202,-4.9086,-4.924,-4.9779,-5.1462,-5.1846,-5.2423,-5.3972,-5.4357,-5.478,-5.5588,-5.5703,-5.5703,-5.5703,-5.5703,-5.5703,-5.5703,-5.428,-5.3318,-5.3203,-5.1548,-4.9817,-4.8202,-4.7355,-4.6509,-4.5633,-4.5594,-4.5594,-4.5594,-4.6355,-4.6355,-4.5633,-4.7201,-4.7932,-4.7855,-4.8933,-4.9779,-5.0442,-5.0635,-5.0712,-5.0712,-5.0712,-5.0712,-5.0789,-5.151,-5.1318,-5.0904,-5.2472,-5.2049,-5.0827,-5.1625,-5.1846,-5.1769,-5.1769,-5.2895,-5.4241,-5.4318,-5.4934,-5.5588,-5.5665,-5.5703,-5.5703,-5.5703,-5.5703,-5.5703,-5.5703,-5.5703,-5.5703,-5.5703,-5.5703,-5.5588,-5.5224,-5.4494,-5.3905,-5.3795,-5.3524,-5.3251,-5.3225,-5.3203,-5.3203,-5.3203,-5.3203,-5.3203,-5.3314,-5.3335,-5.3628,-5.4326,-5.3849,-5.4032,-5.5354,-5.4876,-5.484,-5.5596,-5.5596,-5.5596,-5.5596,-5.5684,-5.6124,-5.6932,-5.6932,-5.6565,-5.5868,-5.5757,-5.5721,-4.5633,-4.5594,-4.5671,-4.6018,-4.6509,0.0,-4.7317,-4.7278,-4.7355,-4.8202,-4.8355,-4.8894,-5.0625,-5.1471,-5.2,-5.2346,-5.3587,-5.478,-5.5588,-5.5703,-5.5703,-5.5703,-5.5703,-5.5703,-5.5703,-5.4818,-5.3972,-5.3241,-5.101,-4.9202,-4.8163,-4.7355,-4.6509,-4.5633,-4.5594,-4.5594,-4.5594,-4.5787,-4.5787,-4.5594,-4.6624,-4.6778,-4.6172,-4.8394,-4.9125,-4.8702,-5.0087,-5.0712,-5.0712,-5.0712,-5.0712,-5.0712,-5.0856,-5.0827,-5.0827,-5.1779,-5.1548,-5.0827,-5.1625,-5.1471,-5.0933,-5.0933,-5.1587,-5.2538,-5.3241,-5.4049,-5.4857,-5.5511,-5.5703,-5.5703,-5.5703,-5.5703,-5.5703,-5.5703,-5.5703,-5.5703,-5.5703,-5.5703,-5.5692,-5.5599,-5.5199,-5.4618,-5.3923,-5.3739,-5.3565,-5.3251,-5.3203,-5.3203,-5.3203,-5.3203,-5.3445,-5.4106,-5.4179,-5.4216,-5.4399,-5.484,-5.4987,-5.4656,-5.5097,-5.5427,-5.5574,-5.5596,-5.5596,-5.5596,-5.6235,-5.6969,-5.7776,-5.7776,-5.7703,-5.7519,-5.6859,-5.6565,-4.5736,-4.5594,-4.5594,-4.5594,-4.5932,0.0,0.0,-4.624,-4.6355,-4.6778,-4.6855,-4.724,-4.8548,-4.9125,-4.9808,-5.1087,-5.201,-5.3049,-5.428,-5.5164,-5.5703,-5.5703,-5.5703,-5.5703,-5.5703,-5.4972,-5.3972,-5.2654,-5.0587,-4.9202,-4.8779,-4.7586,-4.6701,-4.6278,-4.5825,-4.5594,-4.5594,-4.5594,-4.5594,-4.5594,-4.6047,-4.624,-4.6317,-4.7971,-4.8509,-4.8163,-4.9471,-5.0048,-5.0048,-5.0048,-5.0048,-5.0087,-5.0519,-5.0712,-5.075,-5.1164,-5.1048,-5.075,-5.1164,-5.1048,-5.0712,-5.0712,-5.1241,-5.2038,-5.2933,-5.4087,-5.5164,-5.5588,-5.5703,-5.5703,-5.5703,-5.5703,-5.5703,-5.5703,-5.5703,-5.5703,-5.5703,-5.5703,-5.5703,-5.5703,-5.5554,-5.5147,-5.4305,-5.3941,-5.3644,-5.3251,-5.3203,-5.3203,-5.3203,-5.3203,-5.3518,-5.4326,-5.4399,-5.4546,-5.495,-5.5354,-5.5574,-5.5611,-5.5978,-5.6381,-5.6785,-5.6785,-5.6785,-5.6785,-5.7189,-5.7593,-5.7997,-5.7997,-5.7997,-5.7997,-5.7593,-5.7409,-4.5857,-4.5629,-4.5594,-4.5594,-4.5748,-4.5825,0.0,0.0,0.0,-4.5633,-4.5594,-4.5864,-4.674,-4.6885,-4.7625,-4.9817,-5.0481,-5.1164,-5.2549,-5.4164,-5.528,-5.5434,-5.5318,-5.5357,-5.5665,-5.4818,-5.3664,-5.2269,-5.0587,-4.9586,-4.9394,-4.8125,-4.724,-4.6923,-4.6201,-4.5787,-4.5594,-4.5594,-4.5594,-4.5594,-4.5594,-4.597,-4.6701,-4.7509,-4.7855,-4.7932,-4.8933,-4.9394,-4.9394,-4.9394,-4.9394,-4.9471,-5.0366,-5.0596,-5.0481,-5.0635,-5.0712,-5.0712,-5.0856,-5.0827,-5.075,-5.0894,-5.1471,-5.2269,-5.301,-5.4357,-5.5703,-5.5703,-5.5703,-5.5703,-5.5703,-5.5703,-5.5703,-5.5703,-5.5703,-5.5703,-5.5703,-5.5703,-5.5703,-5.5703,-5.5703,-5.5458,-5.4731,-5.4305,-5.3869,-5.34,-5.3334,-5.3293,-5.3225,-5.3203,-5.3592,-5.4509,-5.4473,-5.473,-5.5537,-5.5721,-5.6051,-5.6528,-5.6859,-5.7336,-5.796,-5.7997,-5.7997,-5.7997,-5.7997,-5.7997,-5.7997,-5.7997,-5.7997,-5.7997,-5.7997,-5.7997,-4.5796,-4.5704,-4.5594,-4.5594,-4.6163,-4.6547,-4.5787,0.0,-4.6547,-4.5748,0.0,-4.5864,-4.674,0.0,0.0,-4.824,-4.9702,-5.0789,-5.0981,-5.2433,-5.378,-5.4549,-5.3933,-5.4087,-5.5549,-5.428,-5.328,-5.3087,-5.151,-5.0212,-4.9433,-4.9202,-4.8432,-4.6962,-4.6817,-4.6394,-4.5594,-4.5594,-4.5594,-4.5594,-4.5594,-4.5671,-4.5787,-4.6624,-4.7038,-4.7115,-4.8702,-4.9394,-4.9394,-4.9394,-4.9394,-4.9471,-5.0366,-5.025,-4.9625,-5.0442,-5.0712,-5.0789,-5.151,-5.1318,-5.0827,-5.1548,-5.2346,-5.3087,-5.3164,-5.4357,-5.5703,-5.5703,-5.5703,-5.5703,-5.5703,-5.5703,-5.5703,-5.5703,-5.5703,-5.5703,-5.5703,-5.5703,-5.5703,-5.5703,-5.5703,-5.5566,-5.5121,-5.4974,-5.4663,-5.3851,-5.3739,-5.3604,-5.323,-5.3203,-5.3775,-5.528,-5.484,-5.473,-5.5537,-5.6235,-5.6418,-5.5757,-5.7079,-5.7886,-5.7997,-5.7997,-5.7997,-5.7997,-5.7997,-5.7997,-5.7997,-5.7997,-5.7997,-5.7997,-5.7997,-5.7997,-4.5862,-4.583,-4.5757,-4.5733,-4.6005,-4.6167,-4.5697,-4.5893,-4.6047,-4.5671,0.0,0.0,0.0,0.0,0.0,0.0,-4.8702,-4.9548,-5.0558,-5.1318,-5.2433,-5.428,-5.3741,0.0,-5.4164,-5.3164,-5.2241,-5.1779,-5.1097,-5.0327,-4.9433,-4.9394,-4.9086,-4.8355,-4.7432,-4.674,-4.6355,-4.5864,-4.5594,-4.5594,-4.5594,-4.5594,-4.5633,-4.6509,-4.6624,-4.6201,-4.7432,-4.7971,-4.7971,-4.7971,-4.7971,-4.8048,-4.8856,-4.9279,-4.951,-5.0366,-5.0712,-5.075,-5.1087,-5.1279,-5.1471,-5.1769,-5.25,-5.3203,-5.3203,-5.4357,-5.5703,-5.5703,-5.5703,-5.5703,-5.5703,-5.5703,-5.5703,-5.5703,-5.5703,-5.5703,-5.5703,-5.5703,-5.5703,-5.5703,-5.5703,-5.5671,-5.547,-5.525,-5.489,-5.4305,-5.3977,-5.3739,-5.3565,-5.3339,-5.3665,-5.4766,-5.5023,-5.5207,-5.5596,-5.6748,-5.7152,-5.6345,-5.7373,-5.7997,-5.7997,-5.7997,-5.7997,-5.7997,-5.7997,-5.7997,-5.7997,-5.7997,-5.7997,-5.7997,-5.7997,-5.7997,-4.5985,-4.5944,-4.59,-4.5836,-4.5846,-4.5803,-4.5696,-4.5648,-4.5709,-4.5911,-4.5787,0.0,0.0,0.0,-4.6509,-4.8163,0.0,-4.8971,-5.0481,-5.0712,-5.1471,-5.3549,-5.3664,-5.3549,0.0,-5.2779,-5.1933,-5.1087,-5.0587,-4.9971,-4.9086,-4.9279,-4.9279,-4.9048,-4.7855,-4.7115,-4.6885,-4.6047,-4.5594,-4.5594,-4.5594,-4.5594,-4.5633,-4.624,-4.6201,-4.5633,-4.6509,-4.6885,-4.6885,-4.6885,-4.6885,-4.6962,-4.7778,-4.8509,-4.9163,-5.001,-5.0481,-5.075,-5.0933,-5.1587,-5.2231,-5.1962,-5.2654,-5.3549,-5.3549,-5.4549,-5.5703,-5.5703,-5.5703,-5.5703,-5.5703,-5.5703,-5.5703,-5.5703,-5.5703,-5.5703,-5.5703,-5.5703,-5.578,-5.6011,-5.6049,-5.6126,-5.6357,-5.5983,-5.5401,-5.4754,-5.478,-5.4663,-5.4187,-5.4064,-5.4312,-5.5008,-5.539,-5.5684,-5.5904,-5.7005,-5.7519,-5.7152,-5.7666,-5.7997,-5.7997,-5.7997,-5.7997,-5.7997,-5.7997,-5.7997,-5.7997,-5.7997,-5.7997,-5.7997,-5.7997,-5.7997,-4.6087,-4.5995,-4.5918,-4.5914,-4.5914,-4.5881,-4.5809,-4.577,-4.5993,-4.6707,-4.6201,-4.6095,-4.774,-4.7394,-4.7432,-4.9086,-4.9356,0.0,0.0,-5.0712,-5.101,-5.1885,-5.3433,-5.4472,0.0,-5.3664,-5.2818,0.0,-5.0356,-4.9048,-4.8202,-4.8933,-4.9009,-4.8163,-4.8086,-4.7702,-4.6923,-4.6047,-4.5594,-4.5594,-4.5594,-4.5594,-4.5594,-4.5633,-4.5633,-4.5633,-4.6509,-4.6885,-4.6885,-4.6885,-4.6885,-4.6962,-4.7778,-4.8125,-4.824,-4.9125,-4.9971,-5.0827,-5.1587,-5.2423,-5.301,-5.2154,-5.3049,-5.4472,-5.4472,-5.5049,-5.5703,-5.5703,-5.5703,-5.5703,-5.5703,-5.5703,-5.5703,-5.5703,-5.5703,-5.5703,-5.5703,-5.5703,-5.5934,-5.6791,-5.6945,-5.7242,-5.8088,-5.7511,-5.6526,-5.5261,-5.6466,-5.6877,-5.5175,-5.5695,-5.6317,-5.6683,-5.6051,-5.5904,-5.6712,-5.6822,-5.7152,-5.7923,-5.7997,-5.7997,-5.7997,-5.7997,-5.7997,-5.7997,-5.7997,-5.7997,-5.7997,-5.7997,-5.7997,-5.7997,-5.7997,-5.7997,0.0,0.0,-4.6145,-4.6067,-4.6017,-4.5995,-4.5886,-4.5819,-4.6035,-4.6808,-4.6689,-4.6817,-4.7894,-4.7894,-4.8086,-4.9202,-4.9394,-4.9702,0.0,-5.0202,-5.0356,-5.1731,-5.2933,-5.3203,-5.2087,0.0,0.0,0.0,-4.8856,0.0,-4.7355,-4.8625,-4.924,-4.8971,-4.8394,-4.7971,-4.7702,-4.6278,-4.5594,-4.5594,-4.5594,-4.5594,-4.5594,-4.5594,-4.5594,-4.5633,-4.5893,-4.6047,-4.6047,-4.6047,-4.6047,-4.6124,-4.6971,-4.7625,-4.8279,-4.974,-5.0442,-5.0904,-5.2279,-5.2577,-5.2462,-5.3356,-5.401,-5.4511,-5.4511,-5.5049,-5.5703,-5.5703,-5.5703,-5.5703,-5.5703,-5.5703,-5.5703,-5.5703,-5.5703,-5.5703,-5.5703,-5.6126,-5.6637,-5.6945,-5.7473,-5.7934,-5.8242,-5.8511,-5.8323,-5.7373,-5.7442,-5.7387,-5.6815,-5.6456,-5.6327,-5.6483,-5.6439,-5.6492,-5.6785,-5.7299,-5.7703,-5.796,-5.7997,-5.7997,-5.7997,-5.7997,-5.7997,-5.7997,-5.7997,-5.7997,-5.7997,-5.7997,-5.7997,-5.7997,-5.7997,-5.7997,-4.6289,-4.6289,0.0,-4.6199,-4.6153,0.0,-4.5998,-4.5923,-4.6124,-4.6917,-4.6777,-4.6885,-4.8044,-4.8213,-4.8356,-4.8934,-4.9219,-4.9471,0.0,-4.9548,-4.9817,-5.0894,-5.1779,-5.201,-5.1202,-5.1125,-5.0279,0.0,0.0,-4.7625,0.0,0.0,-4.8625,-4.8933,-4.8394,-4.8086,-4.8086,-4.674,-4.5893,-4.5594,-4.5594,-4.5594,-4.5594,-4.5594,-4.5594,-4.5594,-4.5594,-4.5594,-4.5594,-4.5594,-4.5787,-4.6163,-4.7009,-4.7817,-4.8702,-4.9817,-5.0442,-5.0904,-5.2279,-5.2577,-5.2577,-5.4049,-5.4703,-5.4934,-5.4934,-5.528,-5.5703,-5.5703,-5.5703,-5.5703,-5.5703,-5.5703,-5.5703,-5.5703,-5.5934,-5.6165,-5.6165,-5.6857,-5.755,-5.7819,-5.8357,-5.8819,-5.9127,-5.9627,-5.9588,-5.8473,-5.8539,-5.859,-5.811,-5.7797,-5.7507,-5.7189,-5.7365,-5.7413,-5.7248,-5.7703,-5.7997,-5.7997,-5.7997,-5.7997,-5.7997,-5.7997,-5.8253,-5.8841,-5.829,-5.829,-5.8841,-5.829,-5.7997,-5.7997,-5.7997,-5.7997]},{"header":{"parameterUnit":"m.s-1","parameterCategory":1,"la1":30.6,"la2":29.2853,"lo1":-89.7004,"lo2":-87.6739,"dy":0.0162,"dx":0.0183,"nx":112,"ny":82,"refTime":"2024-05-07T00:00:00:Z","depth":0,"parameterNumber":3,"parameterNumberName":"V-component_of_WINDS"},"data":[0.0,0.0,0.0,0.0,0.0,0.0,0.0,0.0,0.0,0.0,0.0,0.0,0.0,0.0,0.0,0.0,0.0,0.0,0.0,0.0,0.0,0.0,0.0,0.0,0.0,0.0,0.0,0.0,0.0,0.0,0.0,0.0,0.0,0.0,0.0,0.0,0.0,0.0,0.0,0.0,0.0,0.0,0.0,0.0,0.0,0.0,0.0,0.0,0.0,0.0,0.0,0.0,0.0,0.0,0.0,0.0,0.0,0.0,0.0,0.0,0.0,0.0,0.0,0.0,0.0,0.0,0.0,0.0,0.0,0.0,0.0,0.0,0.0,0.0,0.0,0.0,0.0,0.0,0.0,0.0,0.0,0.0,0.0,0.0,0.0,0.0,0.0,0.0,0.0,0.0,-2.4061,-2.4978,-2.7109,-2.8539,-2.8609,-2.8612,-2.7486,-2.4785,0.0,0.0,0.0,0.0,0.0,0.0,0.0,0.0,0.0,0.0,0.0,0.0,0.0,0.0,0.0,0.0,0.0,0.0,0.0,0.0,0.0,0.0,0.0,0.0,0.0,0.0,0.0,0.0,0.0,0.0,0.0,0.0,0.0,0.0,0.0,0.0,0.0,0.0,0.0,0.0,0.0,0.0,0.0,0.0,0.0,0.0,0.0,0.0,0.0,0.0,0.0,0.0,0.0,0.0,0.0,0.0,0.0,0.0,0.0,0.0,0.0,0.0,0.0,0.0,0.0,0.0,0.0,0.0,0.0,0.0,0.0,0.0,0.0,0.0,0.0,0.0,0.0,0.0,0.0,0.0,0.0,0.0,0.0,0.0,0.0,0.0,0.0,0.0,0.0,0.0,0.0,0.0,0.0,0.0,0.0,0.0,0.0,0.0,0.0,0.0,0.0,0.0,0.0,0.0,-2.4337,-2.6958,-2.7888,-2.8337,-2.8541,-2.7662,-2.644,-2.4708,0.0,0.0,0.0,0.0,0.0,0.0,0.0,0.0,0.0,0.0,0.0,0.0,0.0,0.0,0.0,0.0,0.0,0.0,0.0,0.0,0.0,0.0,0.0,0.0,0.0,0.0,0.0,0.0,0.0,0.0,0.0,0.0,0.0,0.0,0.0,0.0,0.0,0.0,0.0,0.0,0.0,0.0,0.0,0.0,0.0,0.0,0.0,0.0,0.0,0.0,0.0,0.0,0.0,0.0,0.0,0.0,0.0,0.0,0.0,0.0,0.0,0.0,0.0,0.0,0.0,0.0,0.0,0.0,0.0,0.0,0.0,0.0,0.0,0.0,0.0,0.0,0.0,0.0,0.0,0.0,0.0,0.0,0.0,0.0,0.0,0.0,0.0,0.0,0.0,0.0,0.0,0.0,0.0,0.0,0.0,0.0,0.0,0.0,0.0,0.0,0.0,0.0,0.0,-2.3572,-2.4881,-2.7245,-2.7941,-2.8234,-2.8332,-2.7564,-2.6791,-2.6017,-2.7808,0.0,0.0,0.0,0.0,0.0,0.0,0.0,0.0,0.0,0.0,0.0,0.0,0.0,0.0,0.0,0.0,0.0,0.0,0.0,0.0,0.0,0.0,0.0,0.0,0.0,0.0,0.0,0.0,0.0,0.0,0.0,0.0,0.0,0.0,0.0,0.0,0.0,0.0,0.0,0.0,0.0,0.0,0.0,0.0,0.0,0.0,0.0,0.0,0.0,0.0,0.0,0.0,0.0,0.0,0.0,0.0,0.0,0.0,0.0,0.0,0.0,0.0,0.0,0.0,0.0,0.0,0.0,0.0,0.0,0.0,0.0,0.0,0.0,0.0,0.0,0.0,0.0,0.0,0.0,0.0,0.0,0.0,0.0,0.0,0.0,0.0,0.0,0.0,0.0,0.0,0.0,0.0,0.0,0.0,0.0,0.0,0.0,0.0,0.0,0.0,0.0,0.0,-2.4418,-2.5391,-2.7149,-2.7786,-2.8036,-2.8012,-2.7285,-2.6887,-2.6996,-2.7426,0.0,0.0,0.0,0.0,0.0,0.0,0.0,0.0,0.0,0.0,0.0,0.0,0.0,0.0,0.0,0.0,0.0,0.0,0.0,0.0,0.0,0.0,0.0,0.0,0.0,0.0,0.0,0.0,0.0,0.0,0.0,0.0,0.0,0.0,0.0,0.0,0.0,0.0,0.0,0.0,0.0,0.0,0.0,0.0,0.0,0.0,0.0,0.0,0.0,0.0,0.0,0.0,0.0,0.0,0.0,0.0,0.0,0.0,0.0,0.0,0.0,0.0,0.0,0.0,0.0,0.0,0.0,0.0,0.0,0.0,0.0,0.0,0.0,0.0,0.0,0.0,0.0,0.0,0.0,0.0,0.0,0.0,0.0,0.0,0.0,0.0,0.0,0.0,0.0,0.0,0.0,0.0,0.0,0.0,0.0,0.0,0.0,0.0,0.0,0.0,0.0,0.0,-2.4329,-2.5647,-2.7168,-2.7527,-2.7594,-2.7375,-2.6327,-2.5956,-2.6559,-2.6729,0.0,0.0,0.0,0.0,0.0,0.0,0.0,0.0,0.0,0.0,0.0,0.0,0.0,0.0,0.0,0.0,0.0,0.0,0.0,0.0,0.0,0.0,0.0,0.0,0.0,0.0,0.0,0.0,0.0,0.0,0.0,0.0,0.0,0.0,0.0,0.0,0.0,0.0,0.0,0.0,0.0,0.0,0.0,0.0,0.0,0.0,0.0,0.0,0.0,0.0,0.0,0.0,0.0,0.0,0.0,0.0,0.0,0.0,0.0,0.0,0.0,0.0,0.0,0.0,0.0,0.0,0.0,0.0,0.0,0.0,0.0,0.0,0.0,0.0,0.0,0.0,0.0,0.0,0.0,0.0,0.0,0.0,0.0,0.0,0.0,0.0,0.0,0.0,0.0,0.0,0.0,0.0,0.0,0.0,0.0,0.0,0.0,0.0,0.0,0.0,0.0,0.0,-2.3756,-2.5084,-2.6579,-2.7149,-2.7313,-2.7037,-2.6292,-2.5905,-2.6066,0.0,0.0,0.0,0.0,0.0,0.0,0.0,0.0,0.0,0.0,0.0,0.0,0.0,0.0,0.0,0.0,0.0,0.0,0.0,0.0,0.0,0.0,0.0,0.0,0.0,0.0,0.0,0.0,0.0,0.0,0.0,0.0,0.0,0.0,0.0,0.0,0.0,0.0,0.0,0.0,0.0,0.0,0.0,0.0,0.0,0.0,0.0,0.0,0.0,0.0,0.0,0.0,0.0,0.0,0.0,0.0,0.0,0.0,0.0,0.0,0.0,0.0,0.0,0.0,0.0,0.0,0.0,0.0,0.0,0.0,0.0,0.0,0.0,0.0,0.0,0.0,0.0,0.0,0.0,0.0,0.0,0.0,0.0,0.0,0.0,0.0,0.0,0.0,0.0,0.0,0.0,0.0,0.0,0.0,0.0,0.0,0.0,0.0,0.0,0.0,0.0,0.0,-2.2109,-2.3304,-2.4568,-2.5829,-2.6556,-2.6694,-2.6309,-2.5581,-2.5258,-2.5474,0.0,0.0,0.0,0.0,0.0,0.0,0.0,0.0,0.0,0.0,0.0,0.0,0.0,0.0,0.0,0.0,0.0,0.0,0.0,0.0,0.0,0.0,0.0,0.0,0.0,0.0,0.0,0.0,0.0,0.0,0.0,0.0,0.0,0.0,0.0,0.0,0.0,0.0,0.0,0.0,0.0,0.0,0.0,0.0,0.0,0.0,0.0,0.0,0.0,0.0,0.0,0.0,0.0,0.0,0.0,0.0,0.0,0.0,0.0,0.0,0.0,0.0,0.0,0.0,0.0,0.0,0.0,0.0,0.0,0.0,0.0,0.0,0.0,0.0,0.0,0.0,0.0,0.0,0.0,0.0,0.0,0.0,0.0,0.0,0.0,0.0,0.0,0.0,0.0,0.0,0.0,0.0,0.0,0.0,0.0,0.0,0.0,0.0,0.0,0.0,0.0,0.0,-2.1832,-2.3064,-2.41,-2.5003,-2.5599,-2.5746,-2.5174,-2.403,-2.3785,0.0,0.0,0.0,0.0,0.0,0.0,0.0,0.0,0.0,0.0,0.0,0.0,0.0,0.0,0.0,0.0,0.0,0.0,0.0,0.0,0.0,0.0,0.0,0.0,0.0,0.0,0.0,0.0,0.0,0.0,0.0,0.0,0.0,0.0,0.0,0.0,0.0,0.0,0.0,0.0,0.0,0.0,0.0,0.0,0.0,0.0,0.0,0.0,0.0,0.0,0.0,0.0,0.0,0.0,0.0,0.0,0.0,0.0,0.0,0.0,0.0,0.0,0.0,0.0,0.0,0.0,0.0,0.0,0.0,0.0,0.0,0.0,0.0,0.0,0.0,0.0,0.0,0.0,0.0,0.0,0.0,0.0,0.0,0.0,0.0,0.0,0.0,0.0,0.0,0.0,0.0,0.0,0.0,0.0,0.0,0.0,0.0,0.0,0.0,0.0,0.0,0.0,0.0,-2.1568,-2.2754,-2.3745,-2.4674,-2.53,-2.5389,-2.4777,-2.4035,-2.3346,-2.2629,0.0,0.0,0.0,0.0,0.0,0.0,0.0,0.0,0.0,0.0,0.0,0.0,0.0,0.0,0.0,0.0,0.0,0.0,0.0,0.0,0.0,0.0,0.0,0.0,0.0,0.0,0.0,0.0,0.0,0.0,0.0,0.0,0.0,0.0,0.0,0.0,0.0,0.0,0.0,0.0,0.0,0.0,0.0,0.0,0.0,0.0,0.0,0.0,0.0,0.0,0.0,0.0,0.0,0.0,0.0,0.0,0.0,0.0,0.0,0.0,0.0,0.0,0.0,0.0,0.0,0.0,0.0,0.0,0.0,0.0,0.0,0.0,0.0,0.0,0.0,0.0,0.0,0.0,0.0,0.0,0.0,0.0,0.0,0.0,0.0,0.0,0.0,0.0,0.0,0.0,0.0,0.0,0.0,0.0,0.0,0.0,0.0,0.0,0.0,0.0,0.0,0.0,-2.1254,-2.2185,-2.3139,-2.3976,-2.4543,-2.4623,-2.4155,-2.3544,-2.2673,-2.1459,0.0,0.0,0.0,0.0,0.0,0.0,0.0,0.0,0.0,0.0,0.0,0.0,0.0,0.0,0.0,0.0,0.0,0.0,0.0,0.0,0.0,0.0,0.0,0.0,0.0,0.0,0.0,0.0,0.0,0.0,0.0,0.0,0.0,0.0,0.0,0.0,0.0,0.0,0.0,0.0,0.0,0.0,0.0,0.0,0.0,0.0,0.0,0.0,0.0,0.0,0.0,0.0,0.0,0.0,0.0,0.0,0.0,0.0,0.0,0.0,0.0,0.0,0.0,0.0,0.0,0.0,0.0,0.0,0.0,0.0,0.0,0.0,0.0,0.0,0.0,0.0,0.0,0.0,0.0,0.0,0.0,0.0,0.0,0.0,0.0,0.0,0.0,0.0,0.0,0.0,0.0,0.0,0.0,0.0,0.0,0.0,0.0,0.0,0.0,0.0,0.0,0.0,-2.0962,-2.1643,-2.2365,-2.3233,-2.3594,-2.3634,-2.3313,-2.2752,-2.2031,-2.1122,0.0,0.0,0.0,0.0,0.0,0.0,0.0,0.0,0.0,0.0,0.0,0.0,0.0,0.0,0.0,0.0,0.0,0.0,0.0,0.0,0.0,0.0,0.0,0.0,0.0,0.0,0.0,0.0,0.0,0.0,0.0,0.0,0.0,0.0,0.0,0.0,0.0,0.0,0.0,0.0,0.0,0.0,0.0,0.0,0.0,0.0,0.0,0.0,0.0,0.0,0.0,0.0,0.0,0.0,0.0,0.0,0.0,0.0,0.0,0.0,-1.0928,-1.0717,0.0,0.0,0.0,0.0,0.0,0.0,0.0,0.0,0.0,0.0,0.0,0.0,0.0,0.0,0.0,0.0,0.0,0.0,0.0,0.0,0.0,0.0,0.0,0.0,0.0,0.0,0.0,0.0,0.0,0.0,0.0,0.0,0.0,0.0,0.0,0.0,0.0,0.0,0.0,0.0,-2.0926,-2.1817,-2.2579,-2.326,-2.3594,-2.3554,-2.3006,-2.2632,-2.1951,-2.0842,-2.2173,0.0,0.0,0.0,0.0,0.0,0.0,0.0,0.0,0.0,0.0,0.0,0.0,0.0,0.0,0.0,0.0,0.0,0.0,0.0,0.0,0.0,0.0,0.0,0.0,0.0,0.0,0.0,0.0,0.0,0.0,0.0,0.0,0.0,0.0,0.0,0.0,0.0,0.0,0.0,0.0,0.0,0.0,0.0,0.0,0.0,0.0,0.0,0.0,0.0,0.0,0.0,0.0,0.0,0.0,0.0,0.0,0.0,0.0,0.0,-1.1335,-1.1043,0.0,0.0,0.0,0.0,0.0,0.0,0.0,0.0,0.0,0.0,0.0,0.0,0.0,0.0,0.0,0.0,0.0,0.0,0.0,0.0,0.0,0.0,0.0,0.0,0.0,0.0,0.0,0.0,0.0,0.0,0.0,0.0,0.0,0.0,0.0,0.0,0.0,0.0,0.0,0.0,-2.0762,-2.1416,-2.2017,-2.2619,-2.2939,-2.2939,-2.2485,-2.2178,-2.1617,-2.0735,-2.1815,0.0,0.0,0.0,0.0,0.0,0.0,0.0,0.0,0.0,0.0,0.0,0.0,0.0,0.0,0.0,0.0,0.0,0.0,0.0,0.0,0.0,0.0,0.0,0.0,0.0,0.0,0.0,0.0,0.0,0.0,0.0,0.0,0.0,0.0,0.0,0.0,0.0,0.0,0.0,0.0,0.0,0.0,0.0,0.0,0.0,0.0,0.0,0.0,0.0,0.0,0.0,0.0,0.0,-1.2386,-1.2528,-1.2617,-1.2617,-1.2637,-1.2623,-1.1979,-1.164,-1.1531,-1.1328,0.0,0.0,0.0,0.0,0.0,0.0,0.0,0.0,0.0,0.0,0.0,0.0,0.0,0.0,0.0,0.0,0.0,0.0,0.0,0.0,0.0,0.0,-2.0895,-2.1189,-2.1243,-2.1042,-2.0292,0.0,0.0,0.0,0.0,0.0,0.0,0.0,0.0,0.0,0.0,0.0,-2.0508,-2.0975,-2.139,-2.1924,-2.2205,-2.2231,-2.1937,-2.1762,-2.136,-2.0708,-2.1572,-2.226,0.0,0.0,0.0,0.0,0.0,0.0,0.0,0.0,0.0,0.0,0.0,0.0,0.0,0.0,0.0,0.0,0.0,0.0,0.0,0.0,0.0,0.0,0.0,0.0,0.0,0.0,0.0,0.0,0.0,0.0,0.0,0.0,0.0,0.0,0.0,0.0,0.0,0.0,0.0,0.0,0.0,0.0,0.0,0.0,0.0,0.0,0.0,-1.0197,-1.2142,-1.2589,-1.2752,-1.2651,-1.3057,-1.3193,-1.3085,-1.3085,-1.3159,-1.3268,-1.3037,0.0,-1.2142,-1.1728,0.0,0.0,0.0,0.0,0.0,0.0,0.0,0.0,0.0,0.0,0.0,0.0,0.0,0.0,0.0,0.0,0.0,0.0,0.0,0.0,0.0,0.0,-2.1574,-2.1804,-2.1881,-2.1787,-2.141,-2.0753,-2.0166,-1.9783,-1.9636,-1.9488,0.0,0.0,0.0,0.0,0.0,0.0,-2.0548,-2.1212,-2.1617,-2.1951,-2.2017,-2.1924,-2.1695,-2.1641,-2.136,-2.0708,-2.0584,-2.1233,-2.2883,-2.2824,0.0,0.0,0.0,0.0,0.0,0.0,0.0,0.0,0.0,0.0,0.0,0.0,0.0,0.0,0.0,0.0,0.0,0.0,0.0,0.0,0.0,0.0,0.0,0.0,0.0,0.0,0.0,0.0,0.0,0.0,0.0,0.0,0.0,0.0,0.0,0.0,0.0,0.0,0.0,0.0,0.0,0.0,0.0,-0.7264,-0.8987,-1.0777,-1.2664,-1.3112,-1.3342,-1.3356,-1.3641,-1.379,-1.3804,-1.3804,-1.3844,-1.3899,-1.3838,-1.3614,-1.3227,-1.244,-1.2026,-1.1843,0.0,0.0,0.0,0.0,-1.6009,-1.7928,-1.997,-2.1385,-2.2338,-2.2258,0.0,0.0,0.0,0.0,0.0,0.0,0.0,-2.0775,-2.1189,-2.155,-2.1871,-2.2164,-2.2365,-2.2365,-2.1921,-2.1359,-2.0884,-2.038,-2.0201,-2.002,-1.9689,-1.9098,0.0,0.0,0.0,-1.9626,-2.0334,-2.0935,-2.1349,-2.1483,-2.1643,-2.1617,-2.1323,-2.1309,-2.1056,-2.0468,-2.0307,-2.0593,-2.1583,-2.1469,-2.1726,0.0,0.0,0.0,0.0,0.0,0.0,0.0,0.0,0.0,0.0,0.0,0.0,0.0,0.0,0.0,0.0,0.0,0.0,0.0,0.0,0.0,0.0,0.0,0.0,0.0,0.0,0.0,0.0,0.0,0.0,0.0,0.0,0.0,0.0,0.0,0.0,0.0,0.0,0.0,0.0,-0.2788,-0.5019,-0.6446,-0.9521,-1.1879,-1.3247,-1.3614,-1.3851,-1.396,-1.4075,-1.419,-1.4299,-1.4299,-1.4299,-1.4299,-1.4299,-1.4238,-1.4055,-1.3119,-1.2623,-1.2406,-1.1843,-1.1572,-1.1711,-1.3459,-1.5411,-1.7475,-1.9456,-2.1542,-2.3247,-2.2806,-2.2552,-2.2218,-2.1122,0.0,0.0,0.0,0.0,-2.0989,-2.1349,-2.1764,-2.2151,-2.2365,-2.2565,-2.2657,-2.2138,-2.1781,-2.1451,-2.0832,-2.0621,-2.0392,-1.9874,-1.9388,0.0,-1.9377,-1.9439,-1.9653,-2.0174,-2.0748,-2.1082,-2.1002,-2.1256,-2.1323,-2.1029,-2.1069,-2.0895,-2.0374,-2.0267,-2.0354,-2.0737,-2.0559,-2.0761,-2.1263,0.0,0.0,0.0,0.0,0.0,0.0,0.0,0.0,0.0,0.0,0.0,0.0,0.0,0.0,0.0,0.0,0.0,0.0,0.0,0.0,0.0,0.0,0.0,0.0,0.0,0.0,0.0,0.0,0.0,0.0,0.0,0.0,0.0,0.0,0.0,0.0,0.0,0.0,0.0,-0.4177,-0.6608,-0.6843,-1.125,-1.3779,-1.4014,-1.4183,-1.4272,-1.4278,-1.4285,-1.4292,-1.4299,-1.4299,-1.4299,-1.4299,-1.4299,-1.4299,-1.4238,-1.3614,-1.3186,-1.2881,-1.2427,-1.2067,-1.2022,-1.3745,-1.5749,-1.7877,-1.9307,-2.1381,-2.3327,-2.3287,-2.2886,-2.2245,-2.1363,-2.1082,0.0,0.0,-2.1283,-2.1708,-2.2205,-2.2378,-2.2405,-2.2418,-2.2432,-2.2338,-2.2086,-2.1766,-2.1443,-2.0826,-2.0459,-2.0107,-1.9821,0.0,-1.9403,-1.9417,-1.9599,-1.988,-2.0127,-2.0748,-2.1002,-2.0722,-2.0962,-2.1015,-2.0722,-2.0949,-2.0975,-2.0668,-2.0388,-2.055,-2.1293,-2.08,-2.0411,-2.0197,-2.117,0.0,0.0,0.0,0.0,0.0,0.0,0.0,0.0,0.0,0.0,0.0,0.0,0.0,0.0,0.0,0.0,0.0,0.0,0.0,0.0,0.0,0.0,0.0,0.0,0.0,0.0,0.0,0.0,0.0,0.0,0.0,0.0,0.0,0.0,0.0,0.0,0.0,0.0,-0.4586,-0.7202,-0.7214,-1.1765,-1.4299,-1.4353,-1.4319,-1.4299,-1.4299,-1.4299,-1.4299,-1.4299,-1.4299,-1.4299,-1.4299,-1.4299,-1.4245,-1.4136,-1.3919,-1.3661,-1.3336,-1.2786,-1.2508,-1.2469,-1.2968,-1.5319,-1.8356,-1.8864,-2.1254,-2.4075,-2.3514,-2.2792,-2.2084,-2.1764,-2.167,-2.167,-2.167,-2.1884,-2.2164,-2.2365,-2.2418,-2.2418,-2.2418,-2.2258,-2.2058,-2.1805,-2.1647,-2.148,-2.1022,-2.0694,-2.0465,-2.0396,-2.0147,-1.9867,-1.9679,-2.0054,-2.0267,-1.9987,-2.0628,-2.0922,-2.0441,-2.0655,-2.0708,-2.0414,-2.0481,-2.0414,-2.0134,-1.984,-1.9663,-1.954,-1.9105,-1.8778,-1.8496,-1.884,-1.9333,0.0,0.0,0.0,0.0,0.0,0.0,0.0,0.0,0.0,0.0,0.0,0.0,0.0,0.0,0.0,0.0,0.0,0.0,0.0,0.0,0.0,0.0,0.0,0.0,0.0,0.0,0.0,0.0,0.0,0.0,0.0,0.0,0.0,0.0,0.0,0.0,0.0,-0.3909,-0.6498,-0.7367,-1.1208,-1.3604,-1.4509,-1.4373,-1.4299,-1.4299,-1.4299,-1.4299,-1.4299,-1.4299,-1.4299,-1.4299,-1.4299,-1.4211,-1.4068,-1.4014,-1.3851,-1.3587,-1.3193,-1.2969,-1.2861,-1.2712,-1.4812,-1.7932,-1.9153,-2.1707,-2.4235,-2.3554,-2.2792,-2.2124,-2.2124,-2.2124,-2.2124,-2.2124,-2.2338,-2.2565,-2.2565,-2.2485,-2.2392,-2.2298,-2.2044,-2.1804,-2.1488,-2.1434,-2.1352,-2.1162,-2.0971,-2.0819,-2.0698,-2.0435,-2.0174,-1.9973,-2.0281,-2.0388,-2.0,-2.0628,-2.0842,-2.016,-2.0441,-2.0521,-2.012,-2.0174,-2.0067,-1.9679,-1.9386,-1.8941,-1.8364,-1.8043,-1.7781,-1.7622,-1.7781,-1.8386,-1.9451,0.0,0.0,0.0,0.0,0.0,0.0,0.0,0.0,0.0,0.0,0.0,0.0,0.0,0.0,0.0,0.0,0.0,0.0,0.0,0.0,0.0,0.0,0.0,0.0,0.0,0.0,0.0,0.0,0.0,0.0,0.0,0.0,0.0,0.0,0.0,0.0,-0.2325,-0.4801,-0.7279,-0.9576,-1.1888,-1.4509,-1.4373,-1.4299,-1.4299,-1.4299,-1.4299,-1.4299,-1.4299,-1.4299,-1.4292,-1.4292,-1.4204,-1.4048,-1.3899,-1.3749,-1.3614,-1.3614,-1.3437,-1.3152,-1.301,-1.4366,-1.6809,-2.0309,-2.2532,-2.3728,-2.342,-2.2926,-2.2432,-2.2432,-2.2432,-2.2432,-2.2432,-2.2645,-2.2928,-2.2928,-2.2632,-2.2338,-2.2058,-2.1764,-2.1521,-2.1176,-2.1109,-2.1109,-2.1109,-2.1109,-2.0989,-2.0752,-2.0449,-2.018,-2.0167,-2.0167,0.0,-2.0167,-2.0722,-2.0762,-1.9907,-2.0321,-2.0428,-1.9853,-2.0054,-1.996,-1.943,-1.9052,-1.8568,-1.7995,-1.7738,-1.7588,-1.7601,-1.8129,-1.8888,-1.9779,0.0,0.0,0.0,0.0,0.0,0.0,0.0,0.0,0.0,0.0,0.0,0.0,0.0,0.0,0.0,0.0,0.0,0.0,0.0,0.0,0.0,0.0,0.0,0.0,0.0,0.0,0.0,0.0,0.0,0.0,0.0,0.0,0.0,0.0,0.0,0.0,-0.2355,-0.4885,-0.7356,-0.9679,-1.2057,-1.4509,-1.4373,-1.4299,-1.4299,-1.4299,-1.4299,-1.4299,-1.4299,-1.4238,-1.4136,-1.4136,-1.3987,-1.3749,-1.3702,-1.3532,-1.3295,-1.3295,-1.3247,-1.3146,-1.2888,-1.4969,-1.8256,-2.0534,-2.2371,-2.3728,-2.342,-2.306,-2.2739,-2.2739,-2.2739,-2.2739,-2.2739,-2.2806,-2.2928,-2.2928,-2.2485,-2.2084,-2.2004,-2.1603,-2.1203,-2.1122,-2.1109,-2.1109,-2.1109,-2.1109,-2.1082,-2.0975,-2.0735,-2.0481,-2.0267,-2.0167,0.0,-1.9947,-2.0241,-2.0388,-2.0134,-2.0254,-2.0201,-1.9826,-1.9679,-1.9359,-1.8771,-1.8237,-1.7876,-1.7716,-1.7246,-1.6967,-1.6947,-1.7123,-1.731,0.0,0.0,0.0,0.0,0.0,0.0,0.0,0.0,0.0,0.0,0.0,0.0,0.0,0.0,0.0,0.0,0.0,0.0,0.0,0.0,0.0,0.0,0.0,0.0,0.0,0.0,0.0,0.0,0.0,0.0,0.0,0.0,0.0,0.0,0.0,0.0,0.0,-0.2383,-0.4936,-0.7386,-0.9666,-1.2113,-1.4514,-1.4401,-1.4299,-1.4299,-1.4299,-1.4299,-1.4299,-1.4299,-1.4217,-1.4075,-1.4075,-1.3905,-1.3627,-1.3559,-1.339,0.0,0.0,0.0,0.0,0.0,-1.5118,-1.855,-1.9444,-2.1402,-2.3541,-2.3233,-2.2926,-2.2672,-2.2672,-2.2672,-2.2659,-2.2525,-2.274,-2.2874,-2.2565,-2.2245,-2.1951,-2.183,-2.1456,-2.1109,-2.1109,-2.1109,-2.1109,-2.1109,-2.1109,0.0,-2.1109,-2.0762,-2.0468,-2.0428,-2.0214,-1.9987,-1.9826,-2.0054,-2.0134,-1.9893,-1.9987,-1.9933,-1.9639,-1.9345,0.0,0.0,0.0,-1.7475,-1.7221,-1.6773,0.0,0.0,0.0,-1.6846,-1.7106,0.0,0.0,0.0,-2.2942,-2.3765,0.0,0.0,0.0,0.0,0.0,0.0,0.0,0.0,0.0,0.0,0.0,0.0,0.0,0.0,0.0,0.0,0.0,0.0,0.0,0.0,0.0,0.0,0.0,0.0,0.0,0.0,0.0,0.0,0.0,0.0,0.0,-0.2406,0.0,0.0,0.0,-1.2158,-1.4622,-1.4441,-1.4299,-1.4299,-1.4299,-1.4299,-1.4299,-1.4285,-1.419,-1.4048,-1.4027,-1.3865,-1.3593,-1.3437,-1.3275,-1.3125,-1.3125,-1.3037,-1.2968,-1.2968,-1.5174,-1.805,-1.8029,0.0,0.0,-2.2926,-2.2632,-2.2405,-2.2378,-2.2365,-2.2311,-2.2058,-2.2365,-2.2713,-2.2124,-2.1964,-2.1871,-2.1681,-2.1323,-2.1109,-2.1109,-2.1109,-2.1096,-2.1056,-2.1056,-2.1056,-2.1015,-2.0575,-2.0321,-2.0588,-2.0134,-1.976,-1.98,-2.0,-1.996,-1.9506,0.0,0.0,-1.9497,-1.9118,-1.8784,-1.8464,-1.7862,-1.7288,-1.6727,-1.6486,-1.6353,-1.6375,-1.6603,-1.7018,-1.7616,-1.8034,-1.8826,-2.0013,-2.2214,-2.3347,0.0,0.0,0.0,0.0,0.0,0.0,0.0,0.0,0.0,0.0,0.0,0.0,0.0,0.0,0.0,0.0,0.0,0.0,0.0,0.0,0.0,0.0,0.0,0.0,0.0,0.0,0.0,0.0,0.0,0.0,0.0,-0.2509,-0.4987,-0.7331,-0.9857,-1.2208,-1.4557,-1.4387,-1.4299,-1.4299,-1.4299,0.0,-1.4299,-1.417,-1.4034,-1.3878,-1.3763,-1.3614,-1.3431,-1.3281,-1.3057,-1.2813,-1.2813,-1.2725,-1.2725,-1.416,-1.6073,-1.8252,-1.9382,-2.1359,-2.3233,-2.2686,-2.2472,-2.2378,-2.2138,-2.2071,0.0,-2.2004,-2.2071,-2.2124,-2.2017,-2.1817,-2.1681,-2.1628,-2.1323,-2.1109,-2.1109,-2.1109,-2.1015,-2.0846,-2.077,-2.0681,-2.0441,-2.0307,-2.0193,-2.0307,-1.9826,-1.9533,-1.9773,-1.9639,-1.9666,-2.0027,-1.9907,-1.9773,-1.972,-1.9225,-1.8691,-1.8115,-1.7569,-1.7125,-1.6727,-1.6938,-1.6911,-1.662,-1.6941,-1.7029,-1.6873,-1.852,-1.9175,-1.9039,-2.1531,-2.2931,0.0,0.0,0.0,0.0,0.0,0.0,0.0,0.0,0.0,0.0,0.0,0.0,0.0,0.0,0.0,0.0,0.0,0.0,0.0,0.0,0.0,0.0,0.0,0.0,0.0,0.0,0.0,0.0,0.0,0.0,0.0,-0.3687,-0.6362,-0.7416,-1.1091,-1.348,-1.4624,-1.4407,-1.4299,-1.4299,-1.4299,-1.4299,-1.4292,-1.4143,-1.3987,-1.3745,-1.3688,-1.3546,-1.3383,-1.3159,-1.2888,-1.2617,-1.2617,-1.2528,-1.2532,-1.3266,-1.4778,-1.6644,-1.8309,-1.9993,-2.1584,-2.2413,-2.2338,-2.1991,-2.1991,-2.1884,-2.1737,-2.159,-2.1764,-2.1911,-2.163,-2.155,-2.1574,-2.1363,-2.1216,-2.1109,-2.1109,-2.102,-2.0827,-2.0699,-2.0563,-2.0401,-2.0254,-2.0107,-2.0013,-2.0013,-1.9639,-1.9426,-1.9559,-1.9452,-1.9479,-1.9773,-1.9666,-1.9586,-1.9586,-1.9038,-1.8517,-1.8022,-1.7488,-1.7139,-1.6941,-1.6927,-1.686,-1.6714,-1.7045,-1.7058,-1.67,-1.7691,-1.7909,-1.754,-1.9558,-2.1083,0.0,0.0,0.0,0.0,0.0,0.0,0.0,0.0,0.0,0.0,0.0,0.0,0.0,0.0,0.0,0.0,0.0,0.0,0.0,0.0,0.0,0.0,0.0,0.0,0.0,0.0,0.0,0.0,0.0,-0.0197,-0.0796,-0.5173,-0.7852,-0.8401,-1.2531,-1.4767,-1.474,-1.4448,-1.4299,-1.4299,-1.4299,-1.4299,-1.4292,-1.4143,-1.3987,-1.3831,-1.3661,-1.3485,-1.3295,-1.3057,-1.2779,-1.2501,-1.2474,-1.2372,-1.2306,-1.255,-1.3714,-1.5497,-1.7378,-1.8927,-2.0447,-2.2144,-2.2244,-2.1655,-2.1764,-2.1657,-2.148,-2.1176,-2.1443,-2.171,-2.1229,-2.1283,-2.1403,-2.1162,-2.1109,-2.1109,-2.1109,-2.0948,-2.0706,-2.0631,-2.0348,-2.0201,-2.008,-1.9867,-1.9733,-1.9786,-1.9559,-1.943,-1.943,-1.943,-1.943,-1.943,-1.943,-1.9345,-1.9292,-1.8851,-1.8424,-1.8009,-1.7595,-1.7353,-1.7286,-1.7007,-1.6847,-1.6794,-1.7072,-1.7032,-1.662,-1.6673,-1.6526,-1.6241,-1.738,-1.8868,0.0,0.0,0.0,0.0,0.0,0.0,0.0,0.0,0.0,0.0,0.0,0.0,0.0,0.0,0.0,0.0,0.0,0.0,0.0,0.0,0.0,0.0,0.0,0.0,0.0,0.0,0.0,0.0,0.0,-0.1074,-0.3474,-0.6284,-0.8779,-1.1032,-1.3657,-1.4875,-1.474,-1.4448,-1.4299,-1.4299,-1.4299,-1.4299,-1.4292,-1.4143,-1.3987,-1.3824,-1.3546,-1.3268,-1.301,-1.2976,-1.2779,-1.2488,-1.2366,-1.2223,-1.2305,-1.3972,-1.5667,-1.747,-1.9189,-2.0816,-2.211,-2.2085,-2.1844,-2.1574,-2.1283,-2.1189,-2.1149,-2.1122,-2.1162,-2.1189,-2.1122,-2.1136,-2.1149,-2.1122,-2.1109,-2.1109,-2.1109,-2.1056,-2.0877,-2.0388,-2.0254,-2.0067,-1.9546,-1.9439,-1.9506,-1.976,-1.9559,-1.943,-1.943,-1.943,-1.943,-1.943,-1.943,-1.9265,-1.8998,-1.8918,-1.8624,-1.805,-1.7916,-1.7822,-1.7542,-1.7502,-1.7368,-1.7152,-1.7179,-1.6924,-1.6375,-1.658,-1.642,-1.5885,-1.6346,-1.7258,0.0,0.0,0.0,0.0,0.0,0.0,0.0,0.0,0.0,0.0,0.0,0.0,0.0,0.0,0.0,0.0,0.0,0.0,0.0,0.0,0.0,0.0,0.0,0.0,0.0,0.0,0.0,0.0,0.0,-0.1184,-0.3773,-0.6256,-0.8815,-1.1422,-1.3653,-1.4808,-1.474,-1.4448,-1.4299,-1.4299,-1.4299,-1.4299,-1.4292,-1.4143,-1.3939,-1.3702,-1.3397,-1.3152,-1.2956,-1.2861,-1.2698,-1.2494,-1.2433,-1.2325,-1.2319,-1.2867,-1.3486,-1.447,-1.7419,-1.8603,-1.9306,-2.1538,-2.1804,-2.1309,-2.1349,-2.1243,-2.1109,-2.1109,-2.1109,-2.1109,-2.1109,-2.1109,-2.1109,-2.1109,-2.1109,-2.1109,-2.1109,-2.0842,-2.0508,-2.0248,-1.9966,-1.9653,-1.947,-1.943,-1.947,-1.9533,-1.9452,-1.943,-1.943,-1.943,-1.943,-1.943,-1.943,-1.9319,-1.9199,-1.8865,-1.8557,-1.8303,-1.7969,-1.7716,-1.7582,-1.7582,-1.7448,-1.7206,-1.7206,-1.6991,-1.6526,-1.6473,-1.6326,-1.6086,-1.6032,-1.6293,-0.0621,-0.0749,-0.0944,-0.1496,-0.1625,-0.1683,-0.1718,-0.1786,-0.1785,-0.178,-0.1342,-0.095,-0.088,-0.0445,0.0,0.0,0.0,0.0,0.0,0.0,0.0,0.0,0.0,0.0,0.0,0.0,0.0,0.0,0.0,-0.1483,-0.4763,-0.6623,-0.9156,-1.2464,-1.3957,-1.474,-1.474,-1.4448,-1.4299,-1.4299,-1.4299,-1.4299,-1.4292,-1.4095,-1.3892,-1.3668,-1.3322,-1.3091,-1.2949,-1.2793,-1.2637,-1.2501,-1.2501,-1.2386,-1.2203,-1.1979,-1.2168,-1.2884,-1.6079,-1.7162,-1.7758,-2.1203,-2.1764,-2.1149,-2.1363,-2.1283,-2.1109,-2.1109,-2.1109,-2.1109,-2.1109,-2.1109,-2.1109,-2.1109,-2.1032,-2.0969,-2.0969,-2.058,-2.0187,-2.01,-1.9792,-1.9466,-1.9386,-1.943,-1.943,-1.943,-1.943,-1.943,-1.943,-1.943,-1.943,-1.943,-1.943,-1.943,-1.943,-1.8905,-1.8584,-1.849,-1.7996,-1.7675,-1.7582,-1.7502,-1.7328,-1.7085,-1.7005,-1.6817,-1.646,-1.6246,-1.6152,-1.6139,-1.5925,-1.5784,-0.2161,-0.2736,-0.3243,-0.5137,-0.5701,-0.5856,-0.6077,-0.6244,-0.6317,-0.6305,-0.4738,-0.3304,-0.3252,-0.1424,0.0,0.0,0.0,0.0,0.0,0.0,0.0,0.0,0.0,0.0,0.0,0.0,0.0,0.0,0.0,-0.2339,-0.7623,-0.7689,-1.0056,-1.5332,-1.4959,-1.474,-1.474,-1.4448,-1.4299,-1.4299,-1.4299,-1.4299,-1.4292,-1.3987,-1.3844,-1.381,-1.3363,-1.3091,-1.2949,-1.2793,-1.2637,-1.2501,-1.2501,-1.2325,-1.2067,-1.206,-1.3126,-1.483,-1.6622,-1.8067,-1.9421,-2.1384,-2.159,-2.1109,-2.1122,-2.1122,-2.1109,-2.1109,-2.1109,-2.1109,-2.1109,-2.1109,-2.1109,-2.1109,-2.0893,-2.069,-2.069,-2.0442,-2.014,-1.9838,-1.9802,-1.9693,-1.9412,-1.943,-1.943,-1.943,-1.943,-1.943,-1.943,-1.943,-1.943,-1.943,-1.943,-1.943,-1.943,-1.9092,-1.8784,-1.8504,-1.8196,-1.7903,-1.7595,-1.7367,-1.7072,-1.6727,-1.6446,-1.6152,-1.5811,-1.5798,-1.5798,-1.5798,-1.5784,-1.5784,-0.2893,-0.3748,-0.4895,-0.5751,-0.6004,-0.6075,-0.6256,-0.6373,-0.6465,-0.6485,-0.4876,-0.3421,-0.3401,-0.2826,-0.2425,-0.2486,-0.3762,-0.4158,-0.2753,-0.2467,-0.1816,-0.0181,0.0,0.0,0.0,0.0,0.0,0.0,-0.1543,-0.4036,-0.7582,-0.922,-1.171,-1.51,-1.4896,-1.4692,-1.459,-1.4394,-1.4299,-1.4299,-1.4299,-1.4299,-1.4292,-1.398,-1.3838,-1.381,-1.3268,-1.3003,-1.2935,-1.2583,-1.2406,-1.2352,-1.225,-1.2149,-1.2047,-1.1945,-1.2237,-1.318,-1.6197,-1.7231,-1.7859,-2.0974,-2.159,-2.1109,-2.1109,-2.1109,-2.1109,-2.1109,-2.1109,-2.1109,-2.1109,-2.1109,-2.1109,-2.1109,-2.0893,-2.0724,-2.069,-2.0274,-1.9933,-1.9802,-1.9641,-1.9479,-1.9444,-1.943,-1.943,-1.943,-1.943,-1.943,-1.943,-1.943,-1.9292,-1.9092,-1.9078,-1.8998,-1.8798,-1.8517,-1.8249,-1.8142,-1.7916,-1.7689,-1.7582,-1.7488,-1.7208,-1.6714,-1.6607,-1.6313,-1.5784,-1.5784,-1.5784,-1.5784,-1.5784,-1.5784,-0.4829,-0.5693,-0.6901,-0.784,-0.8108,-0.8239,-0.8449,-0.8595,-0.8691,-0.8639,-0.6934,-0.5411,-0.5389,-0.4764,-0.4325,-0.4453,-0.5123,-0.5122,-0.3729,-0.2808,-0.1711,-0.018,0.0,0.0,0.0,-0.0744,-0.1322,-0.1247,-0.2863,-0.5327,-0.8671,-1.0418,-1.2427,-1.4878,-1.4767,-1.4611,-1.4516,-1.4373,-1.4299,-1.4299,-1.4245,-1.4217,-1.4211,-1.3905,-1.3736,-1.3654,-1.3173,-1.2901,-1.2773,-1.2427,-1.2257,-1.2196,-1.2101,-1.2026,-1.1965,-1.187,-1.1762,-1.2158,-1.5775,-1.6746,-1.7032,-2.0649,-2.151,-2.1109,-2.1109,-2.1109,-2.1109,-2.1109,-2.1109,-2.1109,-2.1109,-2.1109,-2.1082,-2.0975,-2.0721,-2.0499,-2.0395,-1.9978,-1.9689,-1.9689,-1.9502,-1.943,-1.943,-1.943,-1.943,-1.943,-1.943,-1.943,-1.943,-1.9279,-1.9132,-1.8945,-1.8824,-1.8691,-1.8504,-1.8223,-1.7995,-1.7995,-1.7756,-1.7582,-1.7582,-1.7382,-1.7088,-1.6714,-1.65,-1.6206,-1.5784,-1.5784,-1.5784,-1.5784,-1.5784,-1.5784,-0.7757,-0.8464,-0.9159,-1.1253,-1.1952,-1.2135,-1.2427,-1.261,-1.2671,-1.2515,-1.0687,-0.9149,-0.8963,-0.7236,-0.5845,-0.5988,-0.4584,-0.35,-0.3472,-0.1778,-0.0535,-0.0364,-0.0274,-0.0275,-0.037,-0.2289,-0.3744,-0.3964,-0.4131,-0.6232,-1.0933,-1.131,-1.2523,-1.4857,-1.4665,-1.4509,-1.4502,-1.4367,-1.4299,-1.4299,-1.4143,-1.4075,-1.4061,-1.3756,-1.3539,-1.3383,-1.3078,-1.2779,-1.2488,-1.2338,-1.2189,-1.2047,-1.2115,-1.1952,-1.1823,-1.1823,-1.164,-1.1945,-1.5515,-1.6606,-1.6923,-2.0446,-2.1349,-2.1109,-2.1109,-2.1109,-2.1109,-2.1109,-2.1109,-2.1109,-2.1109,-2.1109,-2.1042,-2.0762,-2.0451,-2.0108,-1.9863,-1.9582,-1.943,-1.943,-1.943,-1.943,-1.943,-1.943,-1.943,-1.943,-1.943,-1.943,-1.943,-1.9118,-1.8931,-1.8905,-1.8651,-1.8477,-1.845,-1.8183,-1.7969,-1.7969,-1.7742,-1.7582,-1.7582,-1.7048,-1.674,-1.67,-1.6152,-1.5811,-1.5784,-1.5784,-1.5784,-1.5784,-1.5784,-1.5784,-0.8569,-0.9547,-1.0895,-1.1804,-1.2033,-1.2108,-1.2298,-1.2454,-1.2488,-1.223,-1.0443,-0.8907,-0.8803,-0.8648,-0.8686,-0.8894,-1.021,-1.0688,-0.9173,-0.8434,-0.7436,-0.5483,-0.385,-0.3516,-0.5298,-0.4308,-0.5134,-0.8742,-0.9211,-0.982,-1.0906,-1.2945,-1.4211,-1.4638,-1.455,-1.4462,-1.4353,-1.4319,-1.4299,-1.4299,-1.4143,-1.4075,-1.4055,-1.3648,-1.3437,-1.3376,-1.2969,-1.2678,-1.2481,-1.2223,-1.2026,-1.1877,-1.1775,-1.1708,-1.1674,-1.1674,-1.1552,-1.186,-1.5288,-1.6385,-1.6793,-2.0448,-2.1349,-2.1109,-2.1109,-2.1109,-2.1109,-2.1109,-2.1109,-2.1109,-2.1109,-2.1109,-2.1096,-2.1015,-2.0609,-2.0194,-2.0079,-1.9714,-1.943,-1.943,-1.943,-1.943,-1.943,-1.943,-1.943,-1.943,-1.943,-1.943,-1.943,-1.9305,-1.9078,-1.8651,-1.8531,-1.8303,-1.7849,-1.7742,-1.7702,-1.7702,-1.7622,-1.7582,-1.7582,-1.7435,-1.7154,-1.6714,-1.6553,-1.6273,-1.5784,-1.5784,-1.5784,-1.5784,-1.5784,-1.5784,-0.9998,-1.0703,-1.1674,-1.2067,-1.2108,-1.2067,-1.2081,-1.2149,-1.2088,-1.166,-1.0695,-0.9789,-0.955,-1.0,-1.0577,-1.0774,-1.1613,-1.1851,-1.0765,-0.9847,-0.8701,-0.7283,-0.603,-0.5794,-0.7178,-0.6935,-0.7852,-1.061,-1.0983,-1.1464,-1.2362,-1.3952,-1.4665,-1.4428,-1.4421,-1.438,-1.4299,-1.4299,-1.4265,-1.4197,-1.4048,-1.3939,-1.3865,-1.3478,-1.3268,-1.3186,-1.2868,-1.2569,-1.2298,-1.2128,-1.1932,-1.1728,-1.1653,-1.1619,-1.1613,-1.1545,-1.1423,-1.1817,-1.5094,-1.6155,-1.6629,-2.0233,-2.1243,-2.1109,-2.1109,-2.1109,-2.1109,-2.1109,-2.1109,-2.1109,-2.1109,-2.1109,-2.1082,-2.0949,-2.065,-2.0335,-2.0053,-1.9789,-1.956,-1.943,-1.943,-1.943,-1.943,-1.943,-1.943,-1.943,-1.943,-1.943,-1.943,-1.9145,-1.8851,-1.8531,-1.825,-1.7956,-1.7609,-1.7582,-1.7582,-1.7582,-1.7582,-1.7582,-1.7582,-1.7514,-1.7181,-1.6714,-1.658,-1.6286,-1.5784,-1.5784,-1.5784,-1.5784,-1.5784,-1.5784,-1.1545,-1.1748,-1.1932,-1.2216,-1.2176,-1.2013,-1.1843,-1.1789,-1.1606,-1.0941,-1.1002,-1.0982,-1.0568,-1.109,-1.166,-1.1884,-1.0946,-1.042,-1.0749,-0.927,-0.8089,-0.8035,-0.7805,-0.7725,-0.8076,-0.9708,-1.0795,-1.1156,-1.132,-1.2193,-1.4224,-1.4434,-1.4448,-1.4306,-1.4299,-1.4299,-1.4299,-1.4299,-1.4224,-1.4068,-1.3912,-1.377,-1.362,-1.3295,-1.3078,-1.2949,-1.2779,-1.2461,-1.2135,-1.2135,-1.1884,-1.1619,-1.1619,-1.1606,-1.1572,-1.1443,-1.128,-1.166,-1.4928,-1.604,-1.6496,-1.9941,-2.1109,-2.1109,-2.1109,-2.1109,-2.1109,-2.1109,-2.1109,-2.1109,-2.1109,-2.1109,-2.1042,-2.0802,-2.0708,-2.0542,-2.0023,-1.987,-1.9689,-1.943,-1.943,-1.943,-1.943,-1.943,-1.943,-1.943,-1.943,-1.943,-1.943,-1.8918,-1.8584,-1.8504,-1.8023,-1.7675,-1.7595,-1.7582,-1.7582,-1.7582,-1.7582,-1.7582,-1.7582,-1.7353,-1.7058,-1.6714,-1.642,-1.6126,-1.5784,-1.5784,-1.5784,-1.5784,-1.5784,-1.5784,-1.1775,-1.1904,-1.2067,-1.2244,-1.2176,-1.1993,-1.1721,-1.1558,-1.1301,-1.0697,-1.069,-1.0738,-1.0527,-1.1009,-1.164,-1.2284,-1.2483,-1.281,-1.353,-1.335,-1.321,-1.3084,-1.1363,-1.0983,-1.2975,-1.1697,-1.1607,-1.3694,-1.3796,-1.3902,-1.4306,-1.4434,-1.4448,-1.4306,-1.4299,-1.4299,-1.4299,-1.4299,-1.4224,-1.4068,-1.3912,-1.377,-1.3614,-1.3193,-1.2983,-1.2942,-1.2664,0.0,-1.2135,-1.2135,-1.1884,-1.1619,-1.1619,-1.1545,-1.143,-1.1402,-1.1219,-1.145,-1.4872,-1.604,-1.6496,-1.9941,-2.1109,-2.1109,-2.1109,-2.1109,-2.1109,-2.1109,-2.1109,-2.1109,-2.1109,-2.1109,-2.1096,-2.1042,-2.0855,-2.0695,-2.0575,-2.0174,-1.9689,-1.943,-1.943,-1.943,-1.943,-1.943,-1.943,-1.943,-1.943,-1.943,-1.943,-1.9336,-1.9025,-1.8544,-1.8397,-1.813,-1.7622,-1.7582,-1.7582,-1.7582,-1.7582,-1.7582,-1.7582,-1.7353,-1.7058,-1.6714,-1.642,-1.6126,-1.5784,-1.5784,-1.5784,-1.5784,-1.5784,-1.5784,-1.2162,-1.2291,-1.2427,-1.2501,-1.2291,-1.2019,-1.1484,-1.1267,-1.0989,-1.0385,-1.0446,-1.0534,-1.0304,-1.0819,-1.1389,-1.1748,-1.2318,-1.2976,-1.3729,-1.396,-1.4116,-1.4278,-1.3337,-1.3118,-1.4318,-1.3318,-1.305,-1.4311,-1.434,-1.4299,-1.4299,-1.4367,-1.4373,-1.4299,-1.4299,-1.4299,-1.4299,-1.4224,-1.4102,-1.3946,-1.3804,-1.3654,-1.3498,-1.3125,-1.2963,-1.2942,-1.2556,-1.2264,-1.2054,-1.1972,-1.1816,-1.1613,-1.1531,-1.1457,-1.1369,-1.1219,-1.107,-1.1272,-1.3759,-1.5156,-1.6302,-1.8896,-2.0386,-2.1109,-2.1109,-2.1109,-2.1109,-2.1109,-2.1109,-2.1109,-2.1109,-2.1109,-2.1109,-2.1109,-2.0895,-2.0673,-2.0485,-2.0127,-1.9761,-1.943,-1.943,-1.943,-1.943,-1.943,-1.943,-1.943,-1.943,-1.943,-1.943,-1.943,-1.9199,-1.8758,-1.845,-1.8143,-1.7849,-1.7675,-1.7582,-1.7582,-1.7582,-1.7582,-1.7582,-1.7353,-1.7139,-1.6941,-1.6549,-1.6206,-1.6059,-1.5899,-1.5784,-1.5784,-1.5784,-1.5784,-1.2515,-1.2664,-1.2773,-1.2739,-1.242,-1.1945,-1.1307,-1.1023,-1.0664,-1.0065,-1.0215,-1.0324,-1.0031,-1.0555,-1.1029,-1.1185,-1.1708,-1.2393,-1.3234,-1.3485,-1.3749,-1.4197,-1.4278,-1.4299,-1.4299,-1.4299,-1.4299,-1.4299,-1.4299,-1.4299,-1.4299,-1.4299,-1.4285,-1.4251,-1.4285,-1.4272,-1.4204,-1.4116,-1.398,-1.3797,-1.3682,-1.3532,-1.3342,-1.3078,-1.2942,-1.2888,-1.2474,-1.2203,-1.2047,-1.1898,-1.1748,-1.1606,-1.145,-1.1369,-1.1307,-1.0975,-1.086,-1.1082,-1.2724,-1.4232,-1.5719,-1.7795,-1.9674,-2.1109,-2.1109,-2.1109,-2.1109,-2.1109,-2.1109,-2.1109,-2.1109,-2.1109,-2.1096,-2.1029,-2.0895,-2.0664,-2.0179,-2.0066,-1.9928,-1.9502,-1.943,-1.943,-1.943,-1.943,-1.943,-1.943,-1.943,-1.943,-1.943,-1.943,-1.9279,-1.9038,-1.849,-1.8062,-1.7995,-1.7756,-1.7582,-1.7582,-1.7582,-1.7582,-1.7582,-1.7353,-1.7166,-1.7112,-1.6589,-1.6246,-1.6179,-1.5939,-1.5784,-1.5784,-1.5784,-1.5784,-1.2671,-1.282,-1.2908,-1.2766,-1.2494,-1.2074,-1.1405,-1.0948,-1.0568,-0.9964,-0.9909,-1.0017,-0.999,-1.0222,-1.0582,-1.126,-1.143,-1.1877,-1.303,-1.3322,-1.3587,-1.4041,-1.4217,-1.4299,-1.4299,-1.4299,-1.4299,-1.4299,-1.4299,-1.4299,-1.4299,-1.4299,-1.4238,-1.4095,-1.4231,-1.4163,-1.3885,-1.4007,-1.3933,-1.3648,-1.3634,-1.3478,-1.3186,-1.303,-1.2888,-1.2732,-1.2427,-1.2203,0.0,-1.1898,-1.1748,-1.1606,-1.145,-1.1307,-1.1165,-1.1009,-1.0793,-1.1003,-1.2676,-1.339,-1.4101,-1.7409,-1.9674,-2.1109,-2.1109,-2.1109,-2.1109,-2.1109,-2.1109,-2.1109,-2.1109,-2.1109,-2.1042,-2.0775,-2.0895,-2.0836,-2.0019,-2.0153,-2.0255,-1.9555,-1.943,-1.943,-1.943,-1.943,-1.943,-1.943,-1.943,-1.943,-1.943,-1.943,-1.9417,-1.939,-1.8798,-1.8343,-1.8009,-1.7756,-1.7582,-1.7582,-1.7582,-1.7582,-1.7582,-1.7353,-1.7072,-1.6754,-1.6433,-1.6139,-1.5872,-1.5798,-1.5784,-1.5784,-1.5784,-1.5784,-1.2637,-1.2908,-1.3051,-1.2908,-1.244,-1.1864,-1.1294,-1.0799,-1.0358,-0.9963,-0.9943,-0.9984,-0.9984,-1.01,-1.027,-1.0656,-1.0792,-1.1172,-1.2108,-1.2366,-1.2725,-1.3444,-1.3587,-1.3729,-1.4,-1.4027,-1.4027,-1.4027,-1.4021,-1.4021,-1.4027,-1.4109,-1.4136,-1.4075,-1.4041,-1.3966,-1.3844,-1.3817,-1.3702,-1.3492,-1.3397,-1.3247,-1.3037,-1.2793,-1.2651,-1.2569,-1.2182,-1.1979,0.0,-1.1667,-1.1531,-1.1457,-1.1219,-1.1084,-1.1016,-1.0867,-1.0772,-1.0784,-1.1505,-1.2413,-1.3709,-1.6108,-1.8116,-1.9737,-2.0779,-2.1109,-2.1109,-2.1109,-2.1109,-2.1109,-2.1109,-2.1109,-2.1042,-2.0748,-2.0762,-2.065,-1.9954,-2.004,-2.0155,-1.9497,-1.943,-1.943,-1.943,-1.943,-1.943,-1.943,-1.943,-1.943,-1.943,-1.943,-1.943,-1.943,-1.8838,-1.8437,-1.833,-1.7862,-1.7582,-1.7582,-1.7582,-1.7582,-1.7582,-1.7353,-1.7233,-1.7235,-1.6767,-1.6473,-1.6353,-1.6179,-1.6005,-1.5784,-1.5784,-1.5784,-1.242,-1.2779,-1.3017,-1.2915,-1.2393,-1.1782,-1.1335,-1.0772,-1.029,-1.0031,-0.995,-0.9923,-0.9923,-0.9957,-1.01,-1.0256,-1.0399,-1.0738,-1.145,-1.1681,-1.2054,-1.282,-1.2949,-1.3152,-1.36,-1.3763,-1.3824,-1.3783,-1.3817,-1.3804,-1.3715,-1.381,-1.3871,-1.3871,-1.377,-1.3668,-1.358,-1.3526,-1.3417,-1.3268,-1.3119,-1.2963,-1.2813,-1.2556,-1.2413,-1.2345,-1.1945,-1.1769,0.0,-1.1443,-1.1321,-1.1301,-1.1043,-1.088,-1.086,-1.0778,-1.0717,-1.0717,-1.0717,-1.1505,-1.28,-1.4558,-1.6302,-1.8052,-1.9801,-2.0716,-2.1109,-2.1109,-2.1109,-2.1109,-2.1109,-2.1042,-2.0909,-2.0615,-2.0548,-2.0406,-1.9824,-1.9914,-1.9937,-1.9474,-1.9421,-1.9389,-1.941,-1.9415,-1.9421,-1.9421,-1.9412,-1.943,-1.943,-1.943,-1.943,-1.943,-1.9045,-1.8709,-1.8504,-1.8023,-1.7675,-1.7595,-1.7582,-1.7582,-1.7582,-1.7434,-1.738,-1.7501,-1.7048,-1.6794,-1.67,-1.642,-1.6166,-1.5965,-1.5872,-1.5784,-1.1986,-1.2393,-1.2732,-1.2732,-1.2393,-1.1945,-1.1491,-1.0921,-1.0405,-1.0044,-0.9869,-0.9822,-0.9822,-0.9883,-1.01,-1.0256,-1.0399,-1.0704,-1.1307,-1.1525,-1.1789,-1.2244,-1.242,-1.2684,-1.3132,-1.358,-1.3783,-1.3641,-1.3763,-1.3715,-1.3417,-1.3403,-1.341,-1.341,-1.3403,-1.3268,-1.2976,-1.3105,-1.3105,-1.2963,-1.2807,-1.2657,-1.2501,-1.2359,-1.221,-1.2121,-1.1748,-1.1619,0.0,-1.1294,-1.1234,-1.1151,-1.1002,-1.088,-1.086,-1.0778,-1.0717,-1.0717,-1.0717,-1.0717,-1.0982,-1.2742,-1.4493,-1.6237,-1.7988,-1.9737,-2.1109,-2.1109,-2.1109,-2.1109,-2.1109,-2.0895,-2.0601,-2.0307,-2.0241,-2.008,-1.9506,-1.9671,-1.98,-1.9463,-1.9391,-1.941,-1.943,-1.9382,-1.9391,-1.9391,-1.9415,-1.943,-1.943,-1.943,-1.943,-1.943,-1.9418,-1.9133,-1.8573,-1.821,-1.7862,-1.7595,-1.7582,-1.7582,-1.7582,-1.7582,-1.7448,-1.7206,-1.7206,-1.7058,-1.67,-1.642,-1.6321,-1.6308,-1.5965,-1.5784,-1.1647,-1.2013,-1.2223,-1.202,-1.1708,-1.1355,-1.1009,-1.0629,-1.029,-1.0031,-0.995,-0.9883,-0.9842,-0.9883,-1.01,-1.0256,-1.0399,-1.0595,-1.0894,-1.1151,-1.1477,-1.1925,-1.2474,-1.2874,-1.3017,-1.3159,-1.322,-1.3173,-1.3214,-1.32,-1.3105,-1.2901,-1.2929,-1.3234,-1.3051,-1.2895,-1.2807,-1.2745,-1.2644,-1.2501,-1.2454,-1.2345,-1.2196,-1.2047,-1.1898,-1.1748,-1.1552,-1.1402,-1.1294,-1.1097,-1.1016,-1.1002,-1.0853,-1.0792,-1.0785,-1.0738,-1.0717,-1.0717,-1.0717,-1.0717,-1.0982,-1.2734,-1.3643,-1.4688,-1.7602,-1.9737,-2.1109,-2.1109,-2.1109,-2.1109,-2.1109,-2.0895,-2.0601,-2.0307,-2.008,-1.988,-1.9706,-1.9805,-1.9794,-1.9447,-2.0006,-2.0575,-2.0539,-2.0569,-2.0302,-1.9506,-1.9412,-1.943,-1.943,-1.943,-1.943,-1.943,-1.9408,-1.9233,-1.8811,-1.8275,-1.7955,-1.7849,-1.7702,-1.7582,-1.7582,-1.7582,-1.7542,-1.7501,-1.7448,-1.7353,-1.7058,-1.6714,-1.6366,-1.5979,-1.6086,-1.6019,-1.1158,-1.1497,-1.1708,-1.164,-1.1389,-1.1104,-1.086,-1.0534,-1.0236,-1.0017,-0.9943,-0.9869,-0.9836,-0.9883,-1.0017,-1.0175,-1.0358,-1.0548,-1.0697,-1.0975,-1.1307,-1.1701,-1.2318,-1.2712,-1.2712,-1.2807,-1.2874,-1.2874,-1.282,-1.2739,-1.2708,-1.244,-1.2413,-1.2583,-1.2515,-1.2481,-1.2481,-1.2386,-1.2264,-1.2115,-1.2115,-1.204,-1.1891,-1.1796,-1.1674,-1.1525,-1.1369,-1.1219,0.0,-1.0921,-1.0793,-1.0786,-1.0758,-1.0717,-1.0717,-1.0717,-1.0717,-1.0717,-1.0717,-1.0717,-1.085,-1.196,-1.3143,-1.4632,-1.7468,-1.9662,-2.1109,-2.1109,-2.1109,-2.1082,-2.0975,-2.0735,-2.0428,-2.0134,-1.984,-1.9666,-1.9773,-1.98,-1.982,-1.9637,-2.0248,-2.0703,-2.046,-2.0488,-2.0192,-1.9487,-1.9426,-1.943,-1.943,-1.943,-1.943,-1.943,-1.943,-1.9292,-1.9105,-1.8557,-1.8115,-1.7995,-1.7756,-1.7582,-1.7582,-1.7582,-1.7582,-1.7582,-1.7582,-1.7541,-1.7367,-1.7021,-1.6567,-1.6005,-1.6299,-1.6273,0.0,-1.0887,-1.1185,-1.147,-1.1328,-1.1077,-1.088,-1.0588,0.0,-1.0031,-0.9883,-0.9836,-0.9836,-0.9903,-1.0004,-1.0017,-1.0324,-1.0561,-1.0717,-1.1009,-1.1321,-1.1613,-1.2026,-1.2284,-1.2257,-1.2515,-1.2678,-1.2664,-1.2535,-1.2332,-1.2047,-1.2094,-1.1891,-1.1613,-1.1864,-1.2006,-1.2013,-1.2006,-1.1925,-1.1782,-1.1782,-1.1714,-1.1586,-1.1586,-1.1504,-1.1355,-1.1212,-1.1063,0.0,-1.0778,-1.0717,-1.0717,-1.0717,-1.0717,-1.0717,-1.0717,-1.0717,-1.0717,-1.0717,-1.0717,-1.0717,-1.0711,-1.2808,-1.5674,-1.7348,-1.9349,-2.1056,-2.1069,-2.1082,-2.1029,-2.0775,-2.0481,-2.0201,-1.992,-1.9639,-1.9506,-1.98,-1.9867,-1.9874,-1.9945,-2.006,-2.0002,-1.9568,-1.9443,-1.94,-1.9404,-1.9402,-1.943,-1.943,-1.943,-1.943,-1.943,-1.943,-1.9417,-1.9403,-1.8881,-1.837,-1.8035,-1.7769,-1.7582,-1.7582,-1.7582,-1.7582,-1.7582,-1.7582,-1.7569,-1.7555,-1.7326,-1.686,-1.6313,-1.6593,-1.6567,-1.0085,0.0,-1.0663,-1.0738,-1.0704,-1.0643,0.0,-1.0432,-1.027,-1.0236,-1.01,-0.993,-0.993,-1.012,-1.0263,-1.0371,-1.0541,-1.0717,-1.0806,-1.1341,-1.1742,-1.1932,-1.2155,-1.2196,-1.1959,-1.2108,-1.2169,-1.2054,-1.2006,-1.1911,-1.1735,-1.1613,-1.1518,-1.145,-1.1396,-1.143,-1.1545,-1.143,-1.1355,-1.1321,-1.1321,-1.1301,-1.1267,-1.1267,-1.1192,-1.105,-1.0948,-1.0914,-1.0772,-1.0731,-1.0717,-1.0717,-1.0717,-1.0717,-1.0717,-1.0717,-1.0717,-1.0717,-1.0717,-1.0717,-1.0704,-1.0582,-1.2019,-1.4105,-1.5491,-1.8063,-2.0481,-2.0708,-2.0775,-2.0815,-2.0962,-2.0788,-2.0561,-2.0481,-2.0241,-2.0107,-2.0401,-2.0468,-2.0481,-2.035,-2.0169,-1.9971,-2.002,-1.9647,-1.9415,-1.9407,-1.9412,-1.943,-1.943,-1.943,-1.943,-1.943,-1.943,-1.9408,-1.9377,-1.9011,-1.8643,-1.8397,-1.7876,-1.7582,-1.7582,-1.7582,-1.7582,-1.7582,-1.7582,-1.7475,-1.73,-1.7116,-1.6839,-1.6381,-1.6621,-1.6653,-0.9943,-1.0215,-1.0412,-1.0473,-1.0493,-1.0473,-1.0412,-1.0283,-1.0154,-1.0086,-1.0005,-0.9903,-0.9977,-1.012,-1.0222,-1.0371,-1.0521,-1.0717,-1.1009,-1.1382,-1.1735,-1.2026,-1.2074,-1.2067,-1.2047,-1.1993,-1.1891,-1.1742,-1.1667,-1.1538,-1.1321,-1.1233,-1.1158,-1.1084,-1.1002,-1.1063,-1.1287,-1.1275,-1.1131,-1.1063,-1.1131,-1.1131,-1.1063,-1.1131,-1.1084,-1.088,-1.088,-1.0793,-1.0717,-1.0717,-1.0717,-1.0717,-1.0717,-1.0717,-1.0717,-1.0717,-1.0717,-1.0717,-1.0717,-1.0677,-1.0588,-1.0439,-1.1539,-1.3029,-1.3759,-1.6269,-1.9188,-2.0363,-2.0681,-2.0708,-2.0869,-2.0802,-2.0641,-2.0508,-2.0241,-2.012,-2.0414,-2.0468,-2.0428,-2.0233,-2.0016,-1.9911,-1.9838,-1.9586,-1.9389,-1.9386,-1.943,-1.943,-1.943,-1.943,-1.943,-1.943,-1.943,-1.9421,-1.9401,-1.8675,-1.8313,-1.8481,-1.7903,-1.7582,-1.7582,-1.7582,-1.7582,-1.7582,-1.7582,-1.7553,-1.7373,-1.734,-1.7013,-1.657,-1.6923,-1.7085,-0.9916,-1.0161,-1.0337,-1.0432,-1.046,-1.0426,-1.031,-1.0141,-0.9923,-0.9876,-0.9836,-0.9876,-0.999,-1.0024,-1.0141,-1.0317,-1.0507,-1.0785,-1.124,-1.143,-1.1653,-1.1986,-1.1932,-1.1945,-1.2135,-1.1918,-1.1701,-1.1558,-1.1409,-1.1206,-1.086,-1.0847,-1.0786,-1.0724,-1.0717,-1.0839,-1.109,-1.1097,-1.1036,-1.0847,-1.1036,-1.1029,-1.0847,-1.1043,-1.1029,-1.0847,0.0,0.0,-1.0717,-1.0717,-1.0717,-1.0717,-1.0717,-1.0717,-1.0717,-1.0717,-1.0717,-1.0717,-1.0697,-1.0588,-1.0432,-1.029,-1.1103,-1.2106,-1.2286,-1.4558,-1.7563,-1.9643,-2.0456,-2.0681,-2.0735,-2.0735,-2.0668,-2.0374,-2.0107,-1.9987,-2.0187,-2.0167,-2.0147,-1.9853,-1.9858,-1.9802,-1.9434,-1.937,-1.9391,-1.9399,-1.943,-1.943,-1.943,-1.943,-1.943,-1.943,-1.943,-1.9403,-1.9435,-1.8459,-1.8053,-1.8442,-1.7902,-1.7582,-1.7582,-1.7582,-1.7582,-1.7582,-1.7582,-1.758,-1.7623,-1.758,-1.733,-1.6859,-1.7344,-1.7587,-0.9849,-1.0148,-1.0432,-1.0337,-1.031,-1.031,-1.0283,-1.0059,-0.9883,-0.993,-0.9849,-0.991,-1.0195,-1.0243,-1.0337,-1.0609,-1.0989,-1.1409,-1.1937,-1.2054,-1.2081,-1.1891,-1.1959,-1.1898,-1.1565,-1.1484,-1.1396,-1.1246,-1.1097,-1.0873,-1.0765,-1.0758,-1.0744,-1.0717,-1.0717,-1.0744,-1.0785,-1.0785,-1.0778,-1.0758,-1.0778,-1.0778,-1.0758,-1.0778,-1.0778,-1.0758,0.0,-1.0744,-1.0717,-1.0717,-1.0717,-1.0717,-1.0717,-1.0717,-1.0717,-1.0717,-1.0717,-1.0704,-1.0575,-1.0432,-1.029,-1.0134,-1.028,-1.0818,-1.1874,-1.3807,-1.6019,-1.7834,-1.947,-2.0735,-2.0975,-2.1042,-2.0962,-2.0681,-2.0575,-2.0481,-2.0281,-2.0167,-2.0147,-1.9853,-1.9807,-1.974,-1.9426,-1.9399,-1.9412,-1.9372,-1.943,-1.943,-1.943,-1.943,-1.943,-1.943,-1.943,-1.9394,-1.9407,-1.9228,-1.8926,-1.8506,-1.7956,-1.7582,-1.7582,-1.7582,-1.7582,-1.7582,-1.7582,-1.7621,-1.7581,-1.7621,-1.7555,-1.7449,-1.7555,-1.7578,-0.9585,-0.9849,-1.0114,-1.0046,-1.0276,-1.0493,-1.0412,-1.0222,-1.0066,-0.999,-0.993,-1.0012,-1.0243,-1.0412,-1.067,-1.1131,-1.1443,-1.1674,-1.1803,-1.1809,-1.1809,-1.183,-1.1755,-1.1653,-1.1525,-1.1443,-1.1294,-1.1063,-1.0921,-1.0813,-1.0731,-1.0717,-1.0717,-1.0717,-1.0636,-1.0595,-1.0595,-1.0521,-1.0561,-1.0717,-1.0717,-1.0717,-1.0717,-1.0717,-1.0717,-1.0717,0.0,-1.0717,-1.0717,-1.0717,-1.0717,-1.0711,-1.0629,-1.0595,-1.0588,-1.0514,-1.048,-1.0473,-1.0399,-1.0283,-1.0141,-1.0011,-1.0039,-1.0314,-1.1784,-1.3685,-1.5752,-1.743,-1.9248,-2.0708,-2.0842,-2.0869,-2.0802,-2.0508,-2.0321,-2.016,-2.0027,-2.0,-1.9907,-1.9626,-1.9693,-1.9706,-1.947,-1.943,-1.943,-1.943,-1.943,-1.9426,-1.9586,-1.9599,-1.9599,-1.9599,-1.9469,-1.9407,-1.9385,-1.9407,-1.8996,-1.8099,-1.7754,-1.7583,-1.7582,-1.7582,-1.7582,-1.7582,-1.7582,-1.7582,-1.7582,-1.7582,-1.7582,-1.7582,-1.7582,-1.7605,-0.9381,-0.9625,-0.9856,-0.9788,-1.0168,-1.0548,-1.05,-1.0405,-1.0304,-1.0159,-1.0145,-1.0179,-1.0365,-1.0622,-1.1002,-1.1531,-1.1742,-1.1816,-1.1782,-1.1647,-1.1606,-1.1762,-1.1586,-1.1463,-1.1511,-1.1375,-1.1192,-1.09,-1.0813,-1.0792,-1.067,-1.0636,-1.0616,-1.0616,-1.0507,-1.0439,-1.0439,-1.0337,-1.0392,-1.0616,-1.0616,-1.0636,-1.067,-1.067,-1.0683,-1.0717,-1.0717,-1.0697,-1.067,-1.0704,-1.0677,-1.0609,-1.0527,-1.0473,-1.0426,-1.0324,-1.0256,-1.0229,-1.0229,-1.0127,-0.9936,-0.9936,-0.9856,-1.0119,-1.1736,-1.3718,-1.5741,-1.7337,-1.9147,-2.0588,-2.0655,-2.0628,-2.0494,-2.0201,-1.996,-1.9786,-1.972,-1.9693,-1.9639,-1.947,-1.9546,-1.9626,-1.947,-1.943,-1.943,-1.943,-1.943,-1.9466,-1.976,-1.98,-1.98,-1.98,-1.9595,-1.9476,-1.9386,-1.9415,-1.8994,-1.7976,-1.7697,-1.7608,-1.7595,-1.7582,-1.7582,-1.7582,-1.7582,-1.7582,-1.7582,-1.7582,-1.7582,-1.7582,-1.7582,-1.758,-0.9381,-0.97,-0.9903,-0.9693,-0.9863,-1.0105,-1.0432,-1.0487,-1.0514,-1.0643,-1.067,-1.0677,-1.0683,-1.0928,-1.124,-1.1565,-1.1742,-1.1925,-1.2203,-1.2108,-1.1918,-1.1667,-1.1613,-1.1497,-1.1219,-1.1063,-1.09,-1.088,-1.0683,-1.0521,-1.0507,-1.0385,-1.031,-1.031,-1.0304,-1.0297,-1.0297,-1.0283,-1.029,-1.031,-1.031,-1.0378,-1.0507,-1.0507,-1.0582,-1.0717,-1.0717,-1.0636,-1.0521,-1.0663,-1.0561,-1.0324,-1.0446,-1.0412,-1.0297,-1.0283,-1.0188,-1.0004,-1.0004,-0.9903,-0.9836,-0.9836,-0.9829,-1.0119,-1.1736,-1.3555,-1.5379,-1.6952,-1.8797,-2.0334,-2.0601,-2.0468,-2.0187,-1.9907,-1.9813,-1.9733,-1.9452,-1.9457,-1.9399,-1.943,-1.9444,-1.9399,-1.943,-1.943,-1.943,-1.943,-1.943,-1.9466,-1.976,-1.98,-1.98,-1.98,-1.98,-1.9679,-1.9399,-1.9403,-1.9199,-1.8821,-1.8042,-1.7608,-1.7595,-1.7582,-1.7582,-1.7582,-1.7582,-1.7582,-1.7582,-1.7582,-1.7582,-1.7582,-1.7582,-1.7621,-0.911,-0.9435,-0.9747,-0.9639,-0.9829,-1.0092,-1.0541,-1.0711,-1.0792,-1.0786,-1.0934,-1.0995,-1.0995,-1.124,-1.1511,-1.1714,-1.1877,-1.1979,-1.1999,-1.1796,-1.1606,-1.1491,-1.1396,-1.1253,-1.105,-1.0894,-1.0765,-1.067,-1.0473,-1.0358,-1.0358,-1.031,-1.0283,-1.0283,-1.0188,-1.0134,-1.0134,-1.0039,-0.9992,-0.9998,-1.0188,-1.031,-1.0358,-1.0358,-1.0392,-1.0446,-1.0446,-1.0412,-1.0365,-1.0426,-1.0378,-1.0276,-1.0236,-1.0127,-0.9992,-0.9992,-0.9958,-0.9862,-0.9957,-0.9889,-0.9836,-0.9869,-0.9897,-1.0119,-1.1736,-1.3639,-1.5627,-1.728,-1.8897,-2.0214,-2.0147,-2.0054,-1.9893,-1.9599,-1.9533,-1.9506,-1.9399,-1.943,-1.943,-1.943,-1.943,-1.943,-1.943,-1.943,-1.943,-1.943,-1.943,-1.9466,-1.976,-1.98,-1.98,-1.98,-1.9639,-1.9492,-1.943,-1.943,-1.9239,-1.8945,-1.8419,-1.8061,-1.7876,-1.7689,-1.7582,-1.7582,-1.7582,-1.7582,-1.7582,-1.7582,-1.7582,-1.7582,-1.7582,-1.7675,-0.9008,-0.9266,-0.9537,-0.9537,-0.9761,-1.0044,-1.0609,-1.0873,-1.1056,-1.113,-1.1233,-1.1219,-1.1241,-1.1375,-1.1579,-1.1674,-1.1823,-1.1884,-1.1782,-1.1504,-1.1301,-1.1253,-1.1118,-1.0968,-1.0819,-1.067,-1.0534,-1.0432,-1.029,-1.0209,-1.0209,-1.0161,-1.0134,-1.0134,-1.0032,-0.9916,-0.9916,-0.9876,-0.9822,-0.9822,-1.0032,-1.0161,-1.0209,-1.0209,-1.0236,-1.0283,-1.0283,-1.0249,-1.0209,-1.0263,-1.0249,-1.0188,-1.0039,-0.9856,-0.9822,-0.9822,-0.9822,-0.9836,-0.9876,-0.9849,-0.9836,-0.9883,-0.9849,-1.0119,-1.1736,-1.3238,-1.4931,-1.7005,-1.8348,-1.9236,-1.9588,-1.9666,-1.9613,-1.9412,-1.943,-1.943,-1.943,-1.943,-1.943,-1.943,-1.943,-1.943,-1.943,-1.943,-1.943,-1.943,-1.943,-1.9466,-1.976,-1.98,-1.98,-1.98,-1.9546,-1.943,-1.943,-1.943,-1.9279,-1.9078,-1.8784,-1.845,-1.8009,-1.7836,-1.7689,-1.7582,-1.7582,-1.7582,-1.7582,-1.7582,-1.7635,-1.7729,-1.7729,-1.7889,-0.9207,-0.9323,-0.9381,-0.9381,-0.9605,-0.9985,-1.0582,-1.0948,-1.1287,-1.1735,-1.1592,-1.1341,-1.1192,-1.1287,-1.1389,-1.1389,-1.1511,-1.1613,-1.1613,-1.1348,-1.1104,-1.0894,-1.0812,-1.0656,-1.0507,-1.0365,-1.0276,-1.0276,-1.0134,-0.9984,-0.9984,-0.9835,-0.9815,-0.9822,-0.9822,-0.9822,-0.9822,-0.9822,-0.9822,-0.9822,-0.9822,-0.9897,-0.9984,-0.9984,-1.0134,-1.0276,-1.0276,-1.0188,-0.9997,-1.0215,-1.0188,-0.997,-0.9883,-0.9822,-0.9822,-0.9822,-0.9822,-0.9822,-0.9822,-0.9822,-0.9822,-0.9822,-0.9822,-1.0119,-1.1675,-1.2217,-1.2868,-1.6079,-1.6973,-1.7325,-1.8952,-1.9372,-1.9359,-1.943,-1.943,-1.943,-1.943,-1.943,-1.943,-1.943,-1.943,-1.943,-1.943,-1.943,-1.943,-1.943,-1.943,-1.9466,-1.976,-1.98,-1.98,-1.98,-1.9546,-1.943,-1.943,-1.943,-1.943,-1.943,-1.9092,-1.8664,-1.8022,-1.7995,-1.7903,-1.7595,-1.7582,-1.7582,-1.7582,-1.7582,-1.7742,-1.7995,-1.7995,-1.8155,-0.9028,-0.9191,-0.9408,-0.9517,-0.9849,-1.027,-1.0765,-1.0948,-1.1138,-1.1592,-1.1443,-1.1219,-1.1241,-1.1199,-1.1199,-1.1097,-1.1049,-1.1076,-1.1076,-1.0975,-1.0799,-1.0643,-1.0588,-1.05,-1.0358,-1.0209,-1.012,-1.012,-0.9883,-0.9741,-0.9741,-0.9598,-0.9557,-0.9673,-0.9673,-0.972,-0.9822,-0.9822,-0.9822,-0.9822,-0.9822,-0.9842,-0.989,-0.989,-0.9917,-0.9958,-0.9958,-0.993,-0.989,-0.9937,-0.993,-0.9883,-0.9836,-0.9822,-0.9822,-0.9822,-0.9822,-0.9822,-0.9822,-0.9822,-0.9822,-0.9822,-0.9822,-0.9883,-1.0361,-1.14,-1.2708,-1.3611,-1.4701,-1.5975,-1.7601,-1.7823,-1.7981,-1.9127,-1.943,-1.943,-1.943,-1.943,-1.943,-1.943,-1.943,-1.943,-1.943,-1.943,-1.943,-1.943,-1.943,-1.9457,-1.9492,-1.9492,-1.9492,-1.9492,-1.947,-1.943,-1.943,-1.943,-1.943,-1.943,-1.9292,-1.9065,-1.8621,-1.8464,-1.8223,-1.7916,-1.7849,-1.7849,-1.7849,-1.7849,-1.8063,-1.8357,-1.8357,-1.8517,-0.9123,-0.9286,-0.9523,-0.9734,-1.0032,-1.0385,-1.0772,-1.1015,-1.1396,-1.1728,-1.1504,-1.1253,-1.1253,-1.1158,-1.105,-1.0894,-1.088,-1.088,-1.088,-1.0765,-1.0595,-1.05,-1.0385,-1.0283,-1.0195,-1.0053,-0.9896,-0.9896,-0.9741,-0.9632,-0.9693,-0.9496,-0.9476,-0.9686,-0.9578,-0.9618,-0.9822,-0.9768,-0.9768,-0.9822,-0.9822,-0.9822,-0.9822,-0.9822,-0.9822,-0.9815,-0.9761,-0.9768,-0.9815,-0.9761,-0.9768,-0.9822,-0.9822,-0.9822,-0.9822,-0.9822,-0.9822,-0.9822,-0.9822,-0.9822,-0.9822,-0.9822,-0.9822,-0.9822,-0.9822,-1.0609,-1.1593,-1.2256,-1.3168,-1.4248,-1.5872,-1.6665,-1.7384,-1.901,-1.943,-1.943,-1.943,-1.943,-1.943,-1.943,-1.943,-1.943,-1.943,-1.943,-1.943,-1.943,-1.943,-1.943,-1.943,-1.943,-1.943,-1.943,-1.943,-1.943,-1.943,-1.943,-1.943,-1.943,-1.943,-1.9292,-1.9105,-1.8811,-1.8464,-1.7995,-1.8102,-1.8115,-1.7995,-1.8115,-1.837,-1.8664,-1.8664,-1.8824,-0.934,-0.9483,-0.9666,-0.993,-1.0209,-1.0412,-1.0697,-1.1287,-1.1809,-1.1932,-1.1647,-1.1369,-1.1355,-1.1131,-1.0873,-1.086,-1.0847,-1.084,-1.084,-1.0656,-1.0466,-1.0453,-1.0215,-0.9984,-0.997,-0.9903,-0.9815,-0.9802,-0.9673,-0.9639,-0.9754,-0.9496,-0.9469,-0.9747,-0.9503,-0.9496,-0.9781,-0.9652,-0.9652,-0.9781,-0.9781,-0.9788,-0.9802,-0.9815,-0.9822,-0.9815,-0.9686,-0.97,-0.9808,-0.968,-0.97,-0.9802,-0.9802,-0.9802,-0.9802,-0.9788,-0.9795,-0.9822,-0.9808,-0.9808,-0.9822,-0.9822,-0.9822,-0.9822,-0.9822,-0.9822,-1.0119,-1.1555,-1.1976,-1.2397,-1.4123,-1.5666,-1.7208,-1.901,-1.943,-1.943,-1.943,-1.943,-1.943,-1.943,-1.943,-1.943,-1.943,-1.943,-1.943,-1.943,-1.943,-1.943,-1.943,-1.943,-1.943,-1.943,-1.943,-1.943,-1.943,-1.943,-1.943,-1.943,-1.943,-1.943,-1.943,-1.9105,-1.8648,-1.8089,-1.8397,-1.8397,-1.8075,-1.8397,-1.8677,-1.8958,-1.8958,-1.9105,-0.934,-0.9408,-0.9557,-1.0093,-1.0521,-1.0853,-1.1029,-1.1192,-1.128,-1.1206,-1.1199,-1.1179,-1.1063,-1.0921,-1.084,-1.0785,-1.067,-1.0588,-1.0588,-1.0439,-1.0283,-1.0161,-1.0024,-0.9936,-0.9883,-0.9842,-0.9774,-0.9666,-0.9517,-0.9395,-0.9357,-0.913,-0.9117,-0.935,-0.9296,-0.935,-0.9476,-0.9449,-0.9449,0.0,-0.9476,-0.9537,-0.9659,-0.9768,-0.9822,-0.9822,-0.9788,-0.9795,-0.9822,-0.9788,-0.9727,-0.9652,-0.9652,-0.9652,-0.9639,-0.9517,-0.9625,-0.9802,-0.9693,-0.9727,-0.9822,-0.9822,-0.9822,-0.9822,-0.9822,-0.9822,-0.9883,-1.024,-1.0301,-1.0959,-1.3825,-1.4837,-1.5854,-1.8706,-1.943,-1.943,-1.943,-1.943,-1.943,-1.943,-1.943,-1.943,-1.943,-1.943,-1.943,-1.943,-1.943,-1.943,-1.943,-1.943,-1.943,-1.943,-1.943,-1.943,-1.943,-1.943,-1.943,-1.943,-1.943,-1.943,-1.943,-1.9305,-1.9105,-1.8688,-1.8798,-1.8798,-1.8731,-1.8798,-1.8985,-1.9265,-1.9265,-1.9305,-0.915,-0.9374,-0.9734,-1.0337,-1.0724,-1.088,-1.0948,-1.1009,-1.0995,-1.0772,-1.0907,-1.1036,-1.0894,-1.082,-1.0785,-1.0636,-1.0548,-1.0466,-1.0399,-1.0263,-1.0141,-0.9997,-0.9923,-0.9849,-0.9829,-0.9761,-0.9686,-0.9612,-0.9401,-0.9323,-0.9316,-0.9055,-0.9035,-0.9309,-0.9123,-0.9157,-0.9381,-0.9306,-0.9306,-0.9381,-0.9381,-0.9462,-0.9612,-0.9754,-0.9822,-0.9815,-0.9747,-0.9754,-0.9815,-0.9747,-0.972,-0.9707,-0.9639,-0.9652,-0.9686,-0.9462,-0.9564,-0.9802,-0.9659,-0.97,-0.9822,-0.9822,-0.9822,-0.9822,-0.9822,-0.9822,-0.9822,-0.9822,-0.9822,-1.0361,-1.2808,-1.3926,-1.5045,-1.7652,-1.8823,-1.943,-1.943,-1.943,-1.943,-1.943,-1.943,-1.943,-1.943,-1.943,-1.943,-1.943,-1.943,-1.943,-1.943,-1.943,-1.943,-1.943,-1.943,-1.943,-1.943,-1.943,-1.943,-1.943,-1.943,-1.943,-1.943,-1.943,-1.9225,-1.8931,-1.9065,-1.9065,-1.8918,-1.9065,-1.9212,-1.943,-1.943,-1.943,-0.8871,-0.933,-0.9985,-1.0514,-1.0778,-1.0806,-1.0751,-1.0819,-1.0826,-1.0548,-1.0697,-1.0793,-1.0772,-1.0751,-1.0629,-1.048,-1.0453,-1.0405,-1.0263,-1.0107,-0.995,-0.995,-0.9897,-0.9822,-0.9822,-0.9713,-0.9625,-0.9571,-0.9334,-0.9282,-0.93,-0.9049,-0.9015,-0.9259,-0.9001,-0.8988,-0.9266,-0.9193,-0.9157,-0.9306,-0.9327,-0.9408,-0.9537,-0.968,-0.9761,-0.9774,-0.9632,-0.9639,-0.9741,-0.9646,-0.9659,-0.9734,-0.9646,-0.9666,-0.9713,-0.9442,-0.951,-0.9727,-0.9612,-0.9666,-0.9788,-0.9815,-0.9822,-0.9822,-0.9822,-0.9822,-0.9822,-0.9822,-0.9822,-1.0179,-1.1796,-1.3218,-1.4707,-1.6563,-1.8227,-1.943,-1.943,-1.943,-1.943,-1.943,-1.943,-1.943,-1.943,-1.943,-1.943,-1.943,-1.943,-1.943,-1.943,-1.943,-1.943,-1.943,-1.943,-1.943,-1.943,-1.943,-1.943,-1.943,-1.943,-1.943,-1.943,-1.943,-1.9252,-1.8998,-1.9239,-1.9239,-1.8998,-1.9252,-1.943,-1.943,-1.943,-1.943,-0.8811,-0.9411,-1.0011,-1.0283,-1.0548,-1.0744,-1.0724,-1.0738,-1.0704,-1.0527,-1.0527,-1.0514,-1.0392,-1.0453,-1.0473,-1.0331,-1.031,-1.0256,-1.01,-0.9944,-0.9849,-0.9849,-0.9836,-0.9822,-0.9822,-0.9802,-0.9686,-0.9429,-0.9374,-0.9245,-0.8952,-0.8838,-0.8757,-0.8798,-0.8635,-0.8628,-0.8798,-0.8777,-0.8845,-0.8946,-0.9123,-0.9248,-0.9275,-0.9367,-0.951,-0.9632,-0.9476,-0.9422,-0.9449,-0.9564,-0.9544,-0.9449,-0.9564,-0.9537,-0.9422,-0.9303,-0.935,-0.9435,-0.9415,-0.951,-0.9659,-0.9781,-0.9822,-0.9822,-0.9822,-0.9822,-0.9822,-0.9822,-0.9822,-1.0179,-1.1796,-1.3388,-1.4973,-1.6598,-1.8227,-1.943,-1.943,-1.943,-1.943,-1.943,-1.943,-1.943,-1.943,-1.943,-1.943,-1.943,-1.943,-1.943,-1.943,-1.943,-1.943,-1.943,-1.943,-1.943,-1.943,-1.943,-1.943,-1.943,-1.943,-1.943,-1.943,-1.943,-1.9403,-1.9305,-1.9403,-1.9403,-1.9305,-1.9403,-1.943,-1.943,-1.943,-1.943,-0.9055,-0.9429,-0.9788,-1.0276,-1.0439,-1.0521,-1.0683,-1.0656,-1.0548,-1.0405,-1.0304,-1.0249,-1.0276,-1.0331,-1.0324,-1.0175,-1.0148,-1.01,-0.9883,-0.9863,-0.9822,-0.9822,-0.9822,-0.9822,-0.9822,-0.9673,-0.9517,-0.9395,-0.9225,-0.9076,-0.8892,-0.8791,-0.871,-0.871,-0.856,-0.8513,-0.8581,-0.8669,-0.8784,-0.8885,-0.9083,-0.9207,-0.9214,-0.9282,-0.934,-0.9476,-0.9408,-0.9381,-0.9388,-0.9456,-0.9442,-0.9388,-0.9456,-0.9496,-0.9483,-0.9296,-0.9306,-0.9483,-0.9313,-0.9354,-0.949,-0.9551,-0.9632,-0.9686,-0.9598,-0.9693,-0.9802,-0.9727,-0.9761,-1.0179,-1.1796,-1.261,-1.3681,-1.634,-1.7392,-1.8096,-1.9145,-1.943,-1.943,-1.943,-1.943,-1.943,-1.943,-1.943,-1.943,-1.943,-1.943,-1.943,-1.943,-1.943,-1.943,-1.943,-1.943,-1.943,-1.943,-1.943,-1.943,-1.943,-1.943,-1.943,-1.943,-1.943,-1.943,-1.943,-1.943,-1.943,-1.943,-1.943,-1.943,-1.943,-1.943,-1.943,-0.8967,-0.9184,-0.9408,-1.0005,-1.0188,-1.0283,-1.05,-1.0493,-1.0399,-1.0249,-1.0127,-1.0011,-1.0148,-1.0195,-1.0168,-0.9957,-0.9963,-0.9936,-0.9842,-0.9822,-0.9822,-0.9822,-0.9822,-0.9822,-0.9822,-0.9591,-0.9422,-0.9388,-0.9144,-0.8981,-0.8885,-0.8757,-0.8669,-0.871,-0.8486,-0.8404,-0.8479,-0.8635,-0.8771,-0.8824,-0.9028,-0.9096,-0.9096,-0.9096,-0.9164,-0.9266,-0.9266,-0.9266,-0.9273,-0.9306,-0.9347,-0.9388,-0.9422,-0.951,-0.9578,-0.9306,-0.9334,-0.9462,-0.9289,-0.9309,-0.9381,-0.9381,-0.951,-0.9639,-0.9483,-0.9618,-0.9795,-0.9693,-0.9713,-1.0016,-1.1246,-1.1725,-1.251,-1.5129,-1.5876,-1.6623,-1.89,-1.943,-1.943,-1.943,-1.943,-1.943,-1.943,-1.943,-1.943,-1.943,-1.943,-1.943,-1.943,-1.943,-1.943,-1.943,-1.943,-1.943,-1.943,-1.943,-1.943,-1.943,-1.943,-1.943,-1.943,-1.943,-1.943,-1.943,-1.943,-1.943,-1.943,-1.943,-1.943,-1.943,-1.943,-1.943,-0.8282,-0.8635,-0.9001,-0.9234,-0.9646,-1.0004,-1.0017,-1.0188,-1.0249,-1.0031,-0.999,-0.9943,-0.9869,-0.9903,-0.995,-0.9856,-0.9896,-0.9936,-0.9842,-0.9822,-0.9822,-0.9822,-0.9822,-0.9822,-0.9822,-0.9686,-0.9537,-0.9395,-0.9289,-0.9083,-0.8892,-0.8655,-0.856,-0.8703,-0.8238,-0.8194,-0.8479,-0.8635,-0.8716,-0.8723,-0.8879,-0.8892,-0.8892,-0.8892,-0.8898,-0.8905,-0.8905,-0.8905,-0.8919,-0.911,-0.9309,-0.9395,-0.9544,-0.9605,-0.9591,-0.9429,-0.9344,-0.9228,-0.9214,-0.9309,-0.9381,-0.9381,-0.9578,-0.9781,-0.9639,-0.97,-0.9822,-0.9815,-0.972,-0.9652,-0.9849,-1.095,-1.2098,-1.2406,-1.3577,-1.5537,-1.8706,-1.943,-1.943,-1.943,-1.943,-1.943,-1.943,-1.943,-1.943,-1.943,-1.943,-1.943,-1.943,-1.943,-1.943,-1.943,-1.943,-1.943,-1.943,-1.943,-1.943,-1.943,-1.943,-1.943,-1.943,-1.943,-1.943,-1.943,-1.943,-1.943,-1.943,-1.943,-1.943,-1.943,-1.943,-1.943,-0.8391,-0.8526,-0.875,-0.9191,-0.9462,-0.9693,-0.9923,-1.0031,-1.0114,-0.9997,-0.9909,-0.9883,-0.9829,-0.9869,-0.9883,-0.9829,-0.9869,-0.9883,-0.9829,-0.9822,-0.9822,-0.9822,-0.9822,-0.9822,-0.9822,-0.9605,-0.9442,-0.9388,-0.915,-0.8994,-0.8885,-0.8648,-0.8506,-0.856,-0.8316,-0.8282,-0.8479,-0.8533,-0.8615,-0.871,-0.8811,-0.8885,-0.8885,-0.8885,-0.8885,-0.8885,-0.8885,-0.8885,-0.8885,-0.8994,-0.9049,-0.9123,-0.9367,-0.9462,-0.9469,-0.951,-0.9429,-0.9344,-0.9241,-0.9248,-0.9275,-0.9123,-0.9367,-0.9639,-0.9395,-0.9551,-0.9781,-0.9591,-0.9639,-0.9734,-0.9693,-1.0127,-1.0883,-1.196,-1.3407,-1.4896,-1.609,-1.7935,-1.943,-1.943,-1.943,-1.943,-1.943,-1.943,-1.943,-1.943,-1.943,-1.943,-1.943,-1.943,-1.943,-1.943,-1.943,-1.943,-1.943,-1.943,-1.943,-1.943,-1.943,-1.943,-1.943,-1.943,-1.943,-1.943,-1.9546,-1.9559,-1.943,-1.943,-1.943,-1.943,-1.943,-1.943,-0.8336,-0.837,-0.8533,-0.9035,-0.9191,-0.9334,-0.9734,-0.9822,-0.9842,-0.9829,-0.9822,-0.9768,-0.9815,-0.9822,-0.9822,-0.9822,-0.9822,-0.9822,-0.9822,-0.9822,-0.9822,-0.9822,-0.9822,-0.9822,-0.9822,-0.9551,-0.9381,-0.9381,-0.911,0.0,-0.8885,-0.8648,-0.8438,-0.8336,-0.8296,-0.8289,-0.8336,-0.8431,-0.8513,-0.8567,-0.8818,-0.8858,-0.8811,-0.8858,-0.8885,-0.8885,-0.8885,-0.8885,-0.8885,-0.8885,-0.8967,-0.9035,-0.9286,-0.9381,-0.9401,-0.9551,-0.9483,-0.935,-0.9248,-0.9241,-0.9262,-0.9055,-0.9313,-0.9632,-0.9381,-0.9544,-0.9781,-0.9585,-0.9639,-0.9741,-0.9693,-0.9747,-1.0058,-1.114,-1.2629,-1.3765,-1.3765,-1.6326,-1.859,-1.859,-1.901,-1.943,-1.943,-1.943,-1.943,-1.943,-1.943,-1.943,-1.943,-1.943,-1.943,-1.943,-1.943,-1.943,-1.943,-1.943,-1.943,-1.943,-1.943,-1.943,-1.943,-1.943,-1.943,-1.943,-1.9559,-1.9613,-1.9506,-1.9506,-1.9466,-1.943,-1.943,-1.943,0.0,0.0,0.0,-0.8621,-0.8811,-0.9001,-0.93,-0.9367,-0.9415,-0.9571,-0.9605,-0.9646,-0.9788,-0.9815,-0.9822,-0.9822,-0.9822,-0.9822,-0.9822,-0.9822,-0.9822,-0.9822,-0.9822,-0.9822,-0.9822,-0.9551,-0.9381,-0.9381,-0.911,-0.8885,-0.8878,-0.8642,-0.8343,-0.8008,-0.8187,-0.8194,-0.7995,-0.833,-0.8404,-0.8327,-0.8723,-0.8797,-0.871,-0.8811,-0.8885,-0.8878,-0.8885,-0.8885,-0.8885,-0.8885,-0.9022,-0.9221,-0.9313,-0.9374,-0.9395,-0.9551,-0.9415,-0.9207,-0.9214,-0.9309,-0.9347,-0.9255,-0.9449,-0.9788,-0.9646,-0.9707,-0.9822,-0.9815,-0.972,-0.9646,-0.9788,-0.9822,-0.9822,-0.9822,-1.102,-1.2157,-1.2157,-1.4648,-1.6903,-1.6962,-1.8286,-1.9359,-1.9372,-1.943,-1.943,-1.943,-1.943,-1.943,-1.943,-1.943,-1.943,-1.943,-1.943,-1.943,-1.943,-1.943,-1.943,-1.943,-1.943,-1.943,-1.943,-1.943,-1.943,-1.943,-1.9444,-1.9533,-1.98,-1.98,-1.9653,-1.9399,-1.9444,-1.9386,-0.7988,0.0,0.0,0.0,0.0,0.0,-0.8994,-0.9062,-0.913,-0.9395,-0.9442,-0.949,-0.9639,-0.9754,-0.9822,-0.9822,-0.9822,-0.9822,-0.9822,-0.9822,-0.9822,-0.9822,-0.9822,-0.9822,-0.9822,-0.9551,-0.9381,0.0,-0.911,-0.8838,-0.8777,-0.8492,-0.8289,-0.8208,-0.814,-0.814,-0.8208,-0.8289,-0.8361,-0.8327,-0.8615,-0.8696,-0.8554,-0.8818,-0.8824,-0.8777,-0.8838,-0.8885,-0.8885,-0.8885,-0.8905,-0.9015,-0.9157,-0.9275,-0.9303,-0.951,-0.9415,-0.9228,-0.9337,-0.933,-0.9248,-0.9049,-0.93,-0.9639,-0.949,-0.9618,-0.9802,-0.97,-0.9713,-0.9774,-0.9808,-0.9822,-0.9822,-0.9822,-1.0119,-1.0482,-1.0482,-1.2097,-1.4232,-1.655,-1.7384,-1.804,-1.9185,-1.943,-1.943,-1.943,-1.943,-1.943,-1.943,-1.943,-1.943,-1.943,-1.943,-1.943,-1.943,-1.943,-1.943,-1.943,-1.943,-1.943,-1.943,-1.943,-1.943,-1.943,-1.9773,-1.9933,-1.98,-1.98,-1.9867,-1.9987,-1.9773,-1.9679,-0.8008,-0.7988,-0.8042,-0.8303,0.0,0.0,-0.8777,-0.8798,-0.8818,-0.9055,-0.9103,-0.9164,-0.9381,-0.949,-0.9585,-0.9713,-0.9734,-0.9754,-0.9815,-0.9822,-0.9822,-0.9822,-0.9822,-0.9822,-0.9822,-0.9551,-0.9381,-0.9381,-0.911,-0.8845,-0.8628,-0.8397,-0.8241,-0.8174,-0.8085,-0.8029,-0.8174,-0.8241,-0.8241,-0.818,-0.8472,-0.8567,-0.8492,-0.873,-0.8832,-0.8811,-0.8844,-0.8885,-0.8885,-0.8885,-0.8885,-0.8898,-0.9096,-0.9173,-0.9103,-0.9401,-0.932,-0.9083,-0.9232,-0.9282,-0.9193,-0.9055,-0.9293,-0.9591,-0.9503,-0.9639,-0.9802,-0.972,-0.9754,-0.9822,-0.9822,-0.9822,-0.9822,-0.9822,-0.9822,-0.9822,-0.9822,-1.0543,-1.1976,-1.4529,-1.6079,-1.7325,-1.8227,-1.8939,-1.943,-1.943,-1.943,-1.943,-1.943,-1.943,-1.943,-1.943,-1.943,-1.947,-1.9533,-1.9439,-1.9466,-1.972,-1.9613,-1.9599,-1.972,-1.9733,-1.9733,-1.9733,-2.0054,-2.0214,-2.016,-2.016,-2.0187,-2.0227,-2.0054,-1.9987,-0.8029,-0.7988,-0.8056,-0.8364,-0.835,0.0,-0.8601,-0.8554,-0.8499,-0.8655,-0.8682,-0.8777,-0.9132,-0.92,-0.9303,-0.9517,-0.9585,-0.9659,-0.9802,-0.9822,-0.9822,-0.9822,-0.9822,-0.9822,-0.9822,-0.9571,-0.9401,-0.9381,-0.9089,-0.8784,-0.8499,-0.835,-0.8201,-0.7995,-0.7988,-0.7988,-0.7988,-0.8174,-0.8174,-0.7995,-0.8323,-0.8452,-0.8438,-0.8628,-0.8777,-0.8838,-0.8871,-0.8885,-0.8885,-0.8885,-0.8885,-0.8898,-0.9083,-0.9049,-0.8919,-0.9252,-0.9178,-0.8905,-0.9103,-0.92,-0.9187,-0.9187,-0.9327,-0.9564,-0.9578,-0.9686,-0.9802,-0.9815,-0.9822,-0.9822,-0.9822,-0.9822,-0.9822,-0.9822,-0.9822,-0.9822,-0.9822,-0.9822,-1.024,-1.1675,-1.4411,-1.6609,-1.6962,-1.8169,-1.9185,-1.9372,-1.943,-1.943,-1.943,-1.943,-1.943,-1.947,-1.9412,-1.9519,-1.9773,-1.9599,-1.9666,-2.0147,-1.9973,-1.996,-2.0167,-2.0167,-2.0167,-2.0167,-2.0267,-2.0428,-2.0722,-2.0722,-2.0588,-2.0334,-2.0294,-2.0281,-0.7995,-0.7988,-0.8002,-0.8062,-0.8201,0.0,-0.8343,-0.8336,-0.835,-0.8499,-0.8526,-0.8621,-0.8927,-0.9076,-0.9228,-0.9289,-0.9449,-0.9659,-0.9802,-0.9822,-0.9822,-0.9822,-0.9822,-0.9822,-0.9822,-0.9666,-0.9517,-0.9388,-0.8994,-0.8676,-0.8492,-0.835,-0.8201,-0.7995,-0.7988,-0.7988,-0.7988,-0.8022,-0.8022,-0.7988,-0.8221,-0.8248,-0.8089,-0.8533,-0.8662,-0.8587,-0.8832,-0.8885,-0.8885,-0.8885,-0.8885,-0.8885,-0.8967,-0.8905,-0.8905,-0.913,-0.9089,-0.8905,-0.9103,-0.9076,-0.8981,-0.8981,-0.9096,-0.9323,-0.9388,-0.953,-0.9673,-0.9788,-0.9822,-0.9822,-0.9822,-0.9822,-0.9822,-0.9822,-0.9822,-0.9822,-0.9822,-0.9822,-0.9883,-1.0179,-1.1796,-1.3935,-1.655,-1.7267,-1.7923,-1.9185,-1.943,-1.943,-1.943,-1.943,-1.9452,-1.9693,-1.972,-1.9733,-1.98,-1.996,-2.0013,-1.9893,-2.0054,-2.0174,-2.0227,-2.0167,-2.0167,-2.0167,-2.0468,-2.0735,-2.1029,-2.1029,-2.1002,-2.0935,-2.0695,-2.0588,-0.7859,-0.7988,-0.7988,-0.7988,-0.8099,0.0,0.0,-0.8153,-0.8174,-0.8248,-0.8262,-0.833,-0.856,-0.8662,-0.8838,-0.9008,-0.9171,-0.9354,-0.9571,-0.9727,-0.9822,-0.9822,-0.9822,-0.9822,-0.9822,-0.9693,-0.9517,-0.9344,-0.892,-0.8676,-0.8601,-0.8391,-0.8235,-0.816,-0.8029,-0.7988,-0.7988,-0.7988,-0.7988,-0.7988,-0.8119,-0.8153,-0.8167,-0.8459,-0.8554,-0.8492,-0.8723,-0.8825,-0.8825,-0.8825,-0.8825,-0.8832,-0.8851,-0.8885,-0.8892,-0.9022,-0.9001,-0.8892,-0.9022,-0.9001,-0.8885,-0.8885,-0.9035,-0.9234,-0.9334,-0.9537,-0.9727,-0.9802,-0.9822,-0.9822,-0.9822,-0.9822,-0.9822,-0.9822,-0.9822,-0.9822,-0.9822,-0.9822,-0.9822,-0.9822,-1.0422,-1.2037,-1.5252,-1.6492,-1.756,-1.9185,-1.943,-1.943,-1.943,-1.943,-1.9479,-1.9773,-1.98,-1.9853,-2.0,-2.0147,-2.0227,-2.0241,-2.0374,-2.0521,-2.0668,-2.0668,-2.0668,-2.0668,-2.0815,-2.0962,-2.1109,-2.1109,-2.1109,-2.1109,-2.0962,-2.0895,-0.7366,-0.7789,-0.7988,-0.7988,-0.8015,-0.8029,0.0,0.0,0.0,-0.7995,-0.7988,-0.8035,-0.8241,-0.832,-0.8397,-0.8784,-0.8844,-0.9022,-0.9266,-0.9551,-0.9747,-0.9774,-0.9754,-0.9761,-0.9815,-0.9666,-0.9462,-0.9275,-0.892,-0.8743,-0.871,-0.8486,-0.833,-0.8327,-0.8147,-0.8022,-0.7988,-0.7988,-0.7988,-0.7988,-0.7988,-0.8106,-0.8235,-0.8377,-0.8438,-0.8452,-0.8628,-0.871,-0.871,-0.871,-0.871,-0.8723,-0.8824,-0.8865,-0.8844,-0.8871,-0.8885,-0.8885,-0.8967,-0.8905,-0.8892,-0.8974,-0.9076,-0.9275,-0.9347,-0.9585,-0.9822,-0.9822,-0.9822,-0.9822,-0.9822,-0.9822,-0.9822,-0.9822,-0.9822,-0.9822,-0.9822,-0.9822,-0.9822,-0.9822,-0.9822,-1.0717,-1.3646,-1.5252,-1.6727,-1.8648,-1.8952,-1.9068,-1.9372,-1.943,-1.9506,-1.984,-1.9826,-1.992,-2.0214,-2.0281,-2.0401,-2.0575,-2.0695,-2.0869,-2.1096,-2.1109,-2.1109,-2.1109,-2.1109,-2.1109,-2.1109,-2.1109,-2.1109,-2.1109,-2.1109,-2.1109,-0.6182,-0.7086,-0.7988,-0.7988,-0.814,-0.8208,-0.8022,0.0,-0.8208,-0.8015,0.0,-0.8035,-0.8241,0.0,0.0,-0.8506,-0.8764,-0.8898,-0.8932,-0.9245,-0.9483,-0.9618,-0.951,-0.9537,-0.9795,-0.9571,-0.9395,-0.9361,-0.9083,-0.8797,-0.8716,-0.8676,-0.854,-0.8333,-0.8255,-0.818,-0.7988,-0.7988,-0.7988,-0.7988,-0.7988,-0.8002,-0.8022,-0.8221,-0.8347,-0.8361,-0.8587,-0.871,-0.871,-0.871,-0.871,-0.8723,-0.8824,-0.8804,-0.875,-0.8838,-0.8885,-0.8898,-0.9083,-0.9049,-0.8905,-0.9089,-0.9289,-0.9361,-0.9374,-0.9585,-0.9822,-0.9822,-0.9822,-0.9822,-0.9822,-0.9822,-0.9822,-0.9822,-0.9822,-0.9822,-0.9822,-0.9822,-0.9822,-0.9822,-0.9822,-1.0361,-1.2157,-1.2629,-1.3756,-1.6786,-1.7267,-1.7806,-1.9243,-1.943,-1.9573,-2.012,-1.996,-1.992,-2.0214,-2.0468,-2.0535,-2.0294,-2.0775,-2.1069,-2.1109,-2.1109,-2.1109,-2.1109,-2.1109,-2.1109,-2.1109,-2.1109,-2.1109,-2.1109,-2.1109,-2.1109,-0.4618,-0.5272,-0.5872,-0.6631,-0.6927,-0.7157,-0.7852,-0.8092,-0.8119,-0.8002,0.0,0.0,0.0,0.0,0.0,0.0,-0.8587,-0.8737,-0.8858,-0.9049,-0.9245,-0.9571,-0.9476,0.0,-0.9551,-0.9374,-0.9211,-0.913,-0.8952,-0.8817,-0.8716,-0.871,-0.8655,-0.8526,-0.8364,-0.8241,-0.8174,-0.8035,-0.7988,-0.7988,-0.7988,-0.7988,-0.7995,-0.8201,-0.8221,-0.8147,-0.8364,-0.8459,-0.8459,-0.8459,-0.8459,-0.8472,-0.8615,-0.8689,-0.873,-0.8824,-0.8885,-0.8892,-0.9008,-0.9042,-0.9076,-0.9187,-0.9316,-0.9381,-0.9381,-0.9585,-0.9822,-0.9822,-0.9822,-0.9822,-0.9822,-0.9822,-0.9822,-0.9822,-0.9822,-0.9822,-0.9822,-0.9822,-0.9822,-0.9822,-0.9822,-1.0004,-1.0657,-1.1555,-1.2988,-1.5252,-1.6374,-1.7267,-1.7923,-1.8823,-1.9533,-1.9933,-2.0027,-2.0094,-2.0167,-2.0655,-2.0802,-2.0508,-2.0882,-2.1109,-2.1109,-2.1109,-2.1109,-2.1109,-2.1109,-2.1109,-2.1109,-2.1109,-2.1109,-2.1109,-2.1109,-2.1109,-0.3165,-0.3717,-0.4218,-0.5222,-0.5477,-0.5827,-0.7135,-0.7434,-0.7547,-0.7992,-0.8022,0.0,0.0,0.0,-0.8201,-0.8492,0.0,-0.8635,-0.8844,-0.8885,-0.9076,-0.9442,-0.9462,-0.9442,0.0,-0.9306,-0.9157,-0.9008,-0.892,-0.8811,-0.8655,-0.8689,-0.8689,-0.8648,-0.8438,-0.8361,-0.832,-0.8119,-0.7988,-0.7988,-0.7988,-0.7988,-0.7995,-0.8153,-0.8147,-0.7995,-0.8201,-0.832,-0.832,-0.832,-0.832,-0.8333,-0.8425,-0.8554,-0.8669,-0.8818,-0.8844,-0.8892,-0.8981,-0.9096,-0.9268,-0.9221,-0.9344,-0.9442,-0.9442,-0.9618,-0.9822,-0.9822,-0.9822,-0.9822,-0.9822,-0.9822,-0.9822,-0.9822,-0.9822,-0.9822,-0.9822,-0.9822,-0.9836,-0.9876,-0.9883,-0.9897,-0.9937,-1.0882,-1.2155,-1.3715,-1.4999,-1.6127,-1.702,-1.8155,-1.9233,-1.9953,-2.016,-2.0267,-2.0347,-2.0748,-2.0935,-2.0802,-2.0989,-2.1109,-2.1109,-2.1109,-2.1109,-2.1109,-2.1109,-2.1109,-2.1109,-2.1109,-2.1109,-2.1109,-2.1109,-2.1109,-0.2063,-0.3015,-0.4017,-0.4067,-0.4067,-0.4418,-0.5777,-0.6077,-0.6464,-0.7973,-0.8147,-0.8076,-0.8418,-0.8357,-0.8364,-0.8655,-0.8703,0.0,0.0,-0.8885,-0.8994,-0.9207,-0.9422,-0.9605,0.0,-0.9462,-0.9313,0.0,-0.8879,-0.8648,-0.8499,-0.8628,-0.8642,-0.8492,-0.8479,-0.8411,-0.8327,-0.8119,-0.7988,-0.7988,-0.7988,-0.7988,-0.7988,-0.7995,-0.7995,-0.7995,-0.8201,-0.832,-0.832,-0.832,-0.832,-0.8333,-0.8425,-0.8486,-0.8506,-0.8662,-0.8811,-0.8905,-0.9096,-0.9303,-0.9347,-0.9255,-0.9354,-0.9605,-0.9605,-0.9707,-0.9822,-0.9822,-0.9822,-0.9822,-0.9822,-0.9822,-0.9822,-0.9822,-0.9822,-0.9822,-0.9822,-0.9822,-0.9863,-0.995,-0.9977,-1.0093,-1.0243,-1.0141,-1.054,-1.2062,-1.2583,-1.3918,-1.7,-1.7561,-1.8435,-2.0491,-2.0401,-2.0347,-2.0641,-2.0681,-2.0802,-2.1082,-2.1109,-2.1109,-2.1109,-2.1109,-2.1109,-2.1109,-2.1109,-2.1109,-2.1109,-2.1109,-2.1109,-2.1109,-2.1109,-2.1109,0.0,0.0,-0.1561,-0.2465,-0.2663,-0.3015,-0.4368,-0.5372,-0.6163,-0.6839,-0.7604,-0.8255,-0.8445,-0.8445,-0.8479,-0.8676,-0.871,-0.8764,0.0,-0.8852,-0.8879,-0.918,-0.9334,-0.9381,-0.9184,0.0,0.0,0.0,-0.8615,0.0,-0.835,-0.8574,-0.8682,-0.8635,-0.8533,-0.8459,-0.8411,-0.816,-0.7988,-0.7988,-0.7988,-0.7988,-0.7988,-0.7988,-0.7988,-0.7995,-0.8092,-0.8119,-0.8119,-0.8119,-0.8119,-0.8133,-0.8282,-0.8397,-0.8513,-0.8771,-0.8838,-0.8919,-0.9218,-0.933,-0.9309,-0.9408,-0.9523,-0.9612,-0.9612,-0.9707,-0.9822,-0.9822,-0.9822,-0.9822,-0.9822,-0.9822,-0.9822,-0.9822,-0.9822,-0.9822,-0.9822,-0.9897,-0.9923,-0.9977,-1.0134,-1.0215,-1.027,-1.0317,-1.0481,-1.0893,-1.1948,-1.3117,-1.4166,-1.6255,-1.7895,-1.8557,-1.9779,-2.0561,-2.0668,-2.0855,-2.1002,-2.1096,-2.1109,-2.1109,-2.1109,-2.1109,-2.1109,-2.1109,-2.1109,-2.1109,-2.1109,-2.1109,-2.1109,-2.1109,-2.1109,-2.1109,0.0,0.0,0.0,-0.1058,-0.1309,0.0,-0.2964,-0.3967,-0.4746,-0.5397,-0.621,-0.685,-0.702,-0.7475,-0.7821,-0.7915,-0.8347,-0.8723,0.0,-0.8737,-0.8784,-0.8974,-0.913,-0.9171,-0.9028,-0.9015,-0.8866,0.0,0.0,-0.8397,0.0,0.0,-0.8574,-0.8628,-0.8533,-0.8479,-0.8479,-0.8241,-0.8092,-0.7988,-0.7988,-0.7988,-0.7988,-0.7988,-0.7988,-0.7988,-0.7988,-0.7988,-0.7988,-0.7988,-0.8022,-0.814,-0.8289,-0.8431,-0.8587,-0.8784,-0.8838,-0.8919,-0.9218,-0.933,-0.933,-0.953,-0.9646,-0.9686,-0.9686,-0.9747,-0.9822,-0.9822,-0.9822,-0.9822,-0.9822,-0.9822,-0.9822,-0.9822,-0.9863,-0.9903,-0.9903,-1.0025,-1.0148,-1.0195,-1.029,-1.0371,-1.0426,-1.0514,-1.0507,-1.031,-1.1246,-1.2187,-1.275,-1.4746,-1.6558,-1.7758,-1.9124,-2.019,-2.0766,-2.1002,-2.1109,-2.1109,-2.1109,-2.1109,-2.1109,-2.1109,-2.1203,-2.1416,-2.1216,-2.1216,-2.1416,-2.1216,-2.1109,-2.1109,-2.1109,-2.1109]}]]